GEFSSE_prec_meanprecacc_174.txt.gz
Total_Precipitation_Accumulation
0.02 0.07 0.24 0.37 0.36 0.34 0.33 0.32 0.31 0.26 0.24 0.29 0.33 0.37 0.40 0.38 0.35 0.33 0.32 0.33 0.35 0.37 0.41 0.45 0.44 0.43 0.39 0.37 0.34 0.30 0.31 0.35 0.35 0.34 0.35 0.40 0.42 0.39 0.36 0.33 0.24 0.32 0.49
0.02 0.08 0.23 0.30 0.31 0.32 0.31 0.30 0.27 0.23 0.22 0.27 0.30 0.31 0.33 0.34 0.34 0.35 0.34 0.33 0.33 0.37 0.43 0.47 0.44 0.40 0.38 0.34 0.30 0.25 0.23 0.23 0.25 0.26 0.23 0.21 0.36 0.42 0.36 0.38 0.35 0.55 0.64
0.01 0.07 0.16 0.25 0.28 0.30 0.30 0.28 0.25 0.23 0.23 0.26 0.28 0.27 0.28 0.31 0.33 0.34 0.35 0.34 0.34 0.33 0.35 0.39 0.39 0.35 0.32 0.27 0.23 0.20 0.20 0.17 0.15 0.17 0.17 0.13 0.30 0.50 0.46 0.44 0.44 0.62 0.63
0.02 0.06 0.10 0.20 0.26 0.29 0.28 0.27 0.26 0.26 0.26 0.30 0.30 0.27 0.29 0.32 0.33 0.35 0.34 0.32 0.33 0.32 0.32 0.32 0.29 0.27 0.24 0.18 0.17 0.17 0.17 0.15 0.11 0.10 0.05 0.07 0.28 0.53 0.56 0.52 0.49 0.53 0.58
0.02 0.05 0.11 0.22 0.26 0.27 0.28 0.27 0.27 0.27 0.30 0.34 0.35 0.31 0.30 0.32 0.34 0.35 0.33 0.31 0.29 0.29 0.29 0.28 0.25 0.24 0.21 0.18 0.17 0.18 0.17 0.14 0.10 0.05 0.02 0.06 0.22 0.48 0.47 0.47 0.43 0.48 0.52
0.02 0.04 0.11 0.22 0.27 0.27 0.29 0.29 0.28 0.29 0.32 0.37 0.37 0.34 0.33 0.34 0.34 0.33 0.33 0.31 0.28 0.27 0.27 0.25 0.24 0.25 0.23 0.21 0.20 0.23 0.24 0.21 0.11 0.03 0.02 0.05 0.13 0.32 0.41 0.46 0.45 0.44 0.40
0.03 0.05 0.12 0.23 0.30 0.30 0.31 0.31 0.31 0.32 0.35 0.37 0.38 0.38 0.38 0.37 0.36 0.34 0.30 0.28 0.26 0.25 0.26 0.26 0.24 0.24 0.25 0.24 0.24 0.26 0.31 0.26 0.13 0.14 0.10 0.08 0.12 0.24 0.33 0.43 0.46 0.44 0.43
0.04 0.07 0.15 0.29 0.33 0.32 0.33 0.32 0.34 0.35 0.38 0.37 0.38 0.39 0.42 0.41 0.35 0.32 0.31 0.29 0.28 0.26 0.25 0.22 0.20 0.20 0.22 0.25 0.25 0.25 0.28 0.19 0.15 0.23 0.25 0.21 0.20 0.28 0.34 0.39 0.43 0.45 0.49
0.05 0.09 0.18 0.30 0.35 0.39 0.40 0.38 0.37 0.38 0.40 0.39 0.40 0.39 0.41 0.42 0.38 0.33 0.30 0.31 0.29 0.27 0.25 0.21 0.18 0.16 0.17 0.17 0.19 0.22 0.23 0.18 0.23 0.37 0.32 0.35 0.30 0.39 0.43 0.39 0.39 0.46 0.50
0.10 0.13 0.20 0.28 0.35 0.39 0.42 0.41 0.41 0.41 0.42 0.42 0.43 0.43 0.39 0.39 0.40 0.36 0.32 0.31 0.30 0.28 0.27 0.24 0.21 0.19 0.18 0.16 0.15 0.16 0.18 0.15 0.18 0.27 0.38 0.33 0.33 0.49 0.57 0.50 0.43 0.44 0.49
0.17 0.20 0.25 0.30 0.35 0.40 0.44 0.41 0.44 0.46 0.47 0.49 0.47 0.44 0.44 0.41 0.39 0.36 0.32 0.29 0.28 0.28 0.27 0.25 0.22 0.21 0.20 0.16 0.14 0.13 0.12 0.09 0.15 0.24 0.30 0.28 0.35 0.53 0.66 0.61 0.57 0.50 0.49
0.19 0.23 0.28 0.32 0.38 0.44 0.47 0.48 0.51 0.51 0.48 0.49 0.43 0.42 0.42 0.41 0.39 0.34 0.31 0.30 0.29 0.30 0.31 0.30 0.26 0.22 0.21 0.16 0.13 0.15 0.09 0.05 0.04 0.07 0.11 0.16 0.25 0.40 0.60 0.67 0.67 0.64 0.59
0.17 0.24 0.30 0.36 0.40 0.47 0.50 0.49 0.48 0.50 0.48 0.48 0.44 0.41 0.42 0.44 0.41 0.37 0.36 0.34 0.32 0.29 0.30 0.33 0.34 0.31 0.30 0.26 0.21 0.21 0.13 0.09 0.06 0.04 0.04 0.09 0.13 0.22 0.35 0.49 0.67 0.74 0.75
0.19 0.27 0.32 0.39 0.47 0.52 0.53 0.53 0.48 0.46 0.46 0.44 0.45 0.42 0.40 0.39 0.37 0.33 0.30 0.29 0.28 0.26 0.25 0.26 0.28 0.32 0.37 0.36 0.29 0.23 0.22 0.21 0.15 0.11 0.07 0.09 0.11 0.15 0.23 0.32 0.48 0.66 0.78
0.19 0.28 0.36 0.43 0.49 0.57 0.62 0.57 0.52 0.48 0.44 0.43 0.45 0.43 0.39 0.36 0.32 0.29 0.29 0.29 0.28 0.24 0.22 0.21 0.20 0.19 0.22 0.26 0.28 0.24 0.23 0.21 0.19 0.19 0.15 0.15 0.13 0.13 0.18 0.26 0.36 0.52 0.68
0.21 0.30 0.39 0.47 0.51 0.56 0.63 0.60 0.55 0.51 0.48 0.47 0.45 0.42 0.40 0.38 0.35 0.30 0.28 0.27 0.28 0.26 0.24 0.21 0.19 0.16 0.14 0.13 0.13 0.14 0.19 0.21 0.22 0.22 0.19 0.17 0.16 0.13 0.16 0.21 0.29 0.41 0.58
0.25 0.34 0.43 0.47 0.53 0.57 0.61 0.64 0.61 0.57 0.53 0.53 0.50 0.45 0.44 0.43 0.41 0.37 0.32 0.27 0.26 0.25 0.26 0.25 0.24 0.21 0.17 0.13 0.11 0.10 0.10 0.12 0.15 0.19 0.19 0.19 0.20 0.17 0.16 0.20 0.25 0.30 0.42
0.29 0.38 0.49 0.51 0.55 0.59 0.60 0.68 0.66 0.65 0.57 0.57 0.59 0.54 0.47 0.45 0.45 0.42 0.40 0.36 0.31 0.28 0.27 0.28 0.26 0.25 0.20 0.16 0.12 0.11 0.10 0.10 0.10 0.11 0.13 0.17 0.21 0.22 0.20 0.21 0.24 0.28 0.32
0.26 0.36 0.50 0.57 0.60 0.62 0.63 0.69 0.74 0.72 0.67 0.62 0.63 0.63 0.55 0.50 0.49 0.46 0.41 0.39 0.41 0.37 0.31 0.29 0.26 0.24 0.22 0.18 0.15 0.13 0.11 0.10 0.10 0.10 0.09 0.09 0.11 0.16 0.21 0.22 0.22 0.24 0.25
0.25 0.35 0.49 0.63 0.69 0.70 0.74 0.75 0.83 0.84 0.76 0.69 0.64 0.67 0.64 0.57 0.53 0.52 0.46 0.40 0.40 0.41 0.36 0.31 0.28 0.25 0.23 0.22 0.20 0.17 0.16 0.13 0.11 0.10 0.09 0.08 0.08 0.11 0.15 0.18 0.20 0.20 0.22
0.31 0.38 0.49 0.60 0.73 0.76 0.80 0.80 0.77 0.82 0.81 0.74 0.66 0.67 0.75 0.68 0.57 0.54 0.52 0.49 0.43 0.39 0.35 0.31 0.29 0.28 0.27 0.25 0.26 0.25 0.21 0.17 0.15 0.12 0.10 0.08 0.07 0.08 0.12 0.16 0.17 0.18 0.19
0.33 0.37 0.47 0.60 0.70 0.73 0.73 0.77 0.75 0.76 0.75 0.74 0.69 0.67 0.72 0.78 0.71 0.58 0.52 0.50 0.46 0.41 0.37 0.32 0.30 0.31 0.31 0.28 0.27 0.29 0.28 0.25 0.19 0.13 0.11 0.09 0.07 0.07 0.08 0.11 0.16 0.17 0.16
0.30 0.33 0.39 0.54 0.70 0.74 0.71 0.79 0.86 0.90 0.92 0.86 0.78 0.70 0.72 0.76 0.76 0.67 0.56 0.49 0.46 0.44 0.42 0.37 0.34 0.32 0.33 0.30 0.26 0.35 0.44 0.33 0.19 0.13 0.11 0.09 0.07 0.07 0.06 0.07 0.11 0.16 0.18
0.32 0.35 0.36 0.44 0.60 0.76 0.76 0.77 0.82 0.88 0.86 0.81 0.76 0.71 0.71 0.76 0.79 0.72 0.66 0.59 0.49 0.43 0.41 0.40 0.38 0.35 0.36 0.37 0.31 0.30 0.33 0.33 0.36 0.23 0.12 0.12 0.12 0.10 0.08 0.07 0.08 0.12 0.18
0.37 0.44 0.43 0.47 0.54 0.72 0.74 0.70 0.73 0.75 0.77 0.75 0.80 0.78 0.77 0.79 0.82 0.82 0.73 0.69 0.64 0.52 0.42 0.40 0.39 0.38 0.38 0.39 0.37 0.33 0.30 0.26 0.26 0.35 0.22 0.15 0.18 0.18 0.15 0.12 0.12 0.14 0.16
0.43 0.53 0.52 0.54 0.55 0.65 0.77 0.71 0.70 0.70 0.73 0.77 0.81 0.87 0.87 0.86 0.84 0.84 0.79 0.72 0.68 0.63 0.53 0.46 0.43 0.40 0.37 0.35 0.36 0.36 0.37 0.38 0.30 0.32 0.31 0.18 0.15 0.14 0.16 0.19 0.18 0.19 0.21

GEFSSE_prec_meanprecacc_180.txt.gz
Total_Precipitation_Accumulation
0.02 0.07 0.24 0.38 0.37 0.36 0.34 0.34 0.33 0.28 0.27 0.32 0.36 0.39 0.41 0.38 0.36 0.33 0.32 0.33 0.36 0.39 0.44 0.50 0.50 0.50 0.46 0.42 0.38 0.34 0.34 0.37 0.37 0.35 0.37 0.42 0.44 0.40 0.37 0.34 0.25 0.33 0.50
0.02 0.08 0.23 0.31 0.32 0.34 0.33 0.32 0.30 0.26 0.25 0.30 0.35 0.35 0.35 0.35 0.36 0.37 0.35 0.34 0.35 0.39 0.46 0.52 0.50 0.47 0.46 0.40 0.34 0.28 0.26 0.25 0.27 0.27 0.24 0.22 0.37 0.43 0.37 0.39 0.36 0.57 0.65
0.01 0.07 0.16 0.25 0.29 0.31 0.31 0.30 0.28 0.27 0.27 0.30 0.32 0.32 0.31 0.33 0.34 0.38 0.39 0.38 0.37 0.37 0.39 0.44 0.46 0.42 0.39 0.32 0.27 0.23 0.23 0.19 0.18 0.19 0.18 0.13 0.31 0.52 0.48 0.46 0.45 0.64 0.65
0.02 0.06 0.10 0.20 0.27 0.30 0.30 0.30 0.30 0.30 0.31 0.36 0.35 0.32 0.33 0.34 0.34 0.37 0.38 0.36 0.38 0.37 0.37 0.38 0.36 0.34 0.29 0.22 0.20 0.20 0.20 0.18 0.13 0.11 0.06 0.07 0.29 0.55 0.58 0.53 0.50 0.54 0.59
0.02 0.05 0.12 0.22 0.27 0.29 0.31 0.31 0.31 0.30 0.34 0.40 0.41 0.38 0.36 0.36 0.36 0.37 0.37 0.36 0.34 0.34 0.34 0.34 0.31 0.29 0.26 0.23 0.21 0.21 0.20 0.17 0.13 0.08 0.03 0.06 0.23 0.50 0.49 0.48 0.44 0.49 0.53
0.02 0.04 0.11 0.22 0.29 0.30 0.32 0.31 0.31 0.32 0.36 0.42 0.42 0.41 0.39 0.41 0.39 0.36 0.36 0.36 0.33 0.32 0.32 0.32 0.30 0.30 0.27 0.24 0.23 0.26 0.27 0.24 0.14 0.06 0.04 0.06 0.14 0.34 0.42 0.47 0.46 0.45 0.42
0.03 0.05 0.12 0.24 0.32 0.33 0.34 0.34 0.34 0.35 0.38 0.41 0.42 0.43 0.44 0.44 0.43 0.39 0.33 0.33 0.31 0.30 0.31 0.31 0.29 0.30 0.30 0.28 0.27 0.29 0.34 0.28 0.15 0.16 0.12 0.09 0.13 0.26 0.35 0.44 0.46 0.45 0.44
0.04 0.07 0.15 0.30 0.35 0.35 0.36 0.35 0.37 0.39 0.41 0.42 0.41 0.43 0.47 0.47 0.42 0.39 0.35 0.34 0.32 0.31 0.29 0.26 0.23 0.23 0.25 0.28 0.29 0.30 0.32 0.22 0.17 0.24 0.26 0.22 0.22 0.30 0.37 0.41 0.45 0.46 0.50
0.06 0.09 0.18 0.31 0.37 0.42 0.43 0.41 0.41 0.42 0.44 0.45 0.45 0.44 0.46 0.48 0.45 0.40 0.35 0.35 0.34 0.31 0.30 0.25 0.22 0.19 0.20 0.20 0.21 0.25 0.26 0.22 0.26 0.38 0.33 0.36 0.31 0.41 0.46 0.42 0.41 0.47 0.51
0.10 0.14 0.21 0.29 0.36 0.41 0.45 0.44 0.44 0.44 0.45 0.46 0.48 0.48 0.45 0.45 0.46 0.43 0.37 0.36 0.35 0.33 0.31 0.28 0.25 0.22 0.21 0.18 0.16 0.18 0.20 0.18 0.20 0.29 0.39 0.34 0.34 0.51 0.59 0.53 0.45 0.45 0.50
0.17 0.21 0.26 0.32 0.37 0.44 0.47 0.45 0.49 0.50 0.51 0.53 0.52 0.50 0.52 0.47 0.44 0.41 0.37 0.34 0.34 0.33 0.31 0.29 0.27 0.26 0.23 0.18 0.15 0.15 0.14 0.11 0.17 0.26 0.32 0.29 0.36 0.55 0.69 0.63 0.59 0.51 0.50
0.19 0.24 0.29 0.34 0.40 0.47 0.51 0.52 0.55 0.55 0.52 0.53 0.48 0.49 0.51 0.52 0.48 0.39 0.37 0.36 0.35 0.36 0.36 0.34 0.31 0.27 0.24 0.18 0.15 0.17 0.11 0.07 0.06 0.09 0.13 0.18 0.26 0.42 0.64 0.71 0.69 0.65 0.61
0.18 0.25 0.31 0.37 0.42 0.49 0.53 0.54 0.52 0.54 0.51 0.51 0.47 0.46 0.48 0.53 0.51 0.46 0.42 0.42 0.40 0.36 0.37 0.38 0.39 0.35 0.33 0.28 0.23 0.22 0.15 0.12 0.09 0.06 0.06 0.11 0.15 0.24 0.40 0.54 0.71 0.76 0.77
0.20 0.28 0.34 0.41 0.49 0.55 0.56 0.57 0.53 0.50 0.49 0.47 0.48 0.47 0.48 0.48 0.46 0.42 0.38 0.35 0.34 0.31 0.30 0.31 0.33 0.35 0.39 0.37 0.30 0.24 0.23 0.22 0.17 0.13 0.09 0.12 0.14 0.18 0.29 0.39 0.54 0.70 0.81
0.19 0.29 0.38 0.45 0.51 0.59 0.65 0.61 0.57 0.51 0.46 0.45 0.48 0.47 0.46 0.46 0.43 0.40 0.37 0.36 0.33 0.28 0.25 0.24 0.23 0.22 0.24 0.28 0.29 0.25 0.24 0.22 0.21 0.21 0.17 0.17 0.16 0.16 0.24 0.33 0.42 0.58 0.73
0.21 0.31 0.40 0.50 0.54 0.59 0.66 0.64 0.59 0.55 0.51 0.51 0.48 0.46 0.46 0.46 0.44 0.40 0.37 0.34 0.34 0.31 0.27 0.24 0.22 0.20 0.16 0.15 0.14 0.15 0.20 0.22 0.24 0.25 0.21 0.20 0.19 0.16 0.20 0.28 0.36 0.48 0.66
0.25 0.34 0.43 0.49 0.56 0.60 0.64 0.68 0.65 0.60 0.56 0.56 0.53 0.49 0.49 0.50 0.50 0.47 0.43 0.36 0.33 0.31 0.30 0.29 0.28 0.25 0.20 0.16 0.13 0.11 0.11 0.13 0.17 0.21 0.21 0.21 0.23 0.20 0.19 0.24 0.32 0.38 0.51
0.29 0.38 0.49 0.53 0.58 0.62 0.64 0.72 0.70 0.68 0.60 0.60 0.62 0.58 0.53 0.52 0.53 0.53 0.52 0.48 0.42 0.36 0.33 0.33 0.31 0.29 0.25 0.21 0.17 0.14 0.13 0.12 0.12 0.13 0.15 0.18 0.22 0.24 0.23 0.26 0.31 0.37 0.42
0.26 0.36 0.51 0.58 0.62 0.65 0.66 0.73 0.79 0.76 0.71 0.66 0.67 0.66 0.59 0.57 0.57 0.55 0.53 0.53 0.56 0.52 0.42 0.36 0.32 0.27 0.25 0.22 0.20 0.18 0.16 0.14 0.14 0.13 0.12 0.11 0.13 0.18 0.23 0.25 0.28 0.33 0.36
0.26 0.36 0.50 0.64 0.71 0.74 0.79 0.79 0.88 0.89 0.79 0.73 0.69 0.71 0.68 0.62 0.61 0.62 0.58 0.53 0.54 0.58 0.54 0.44 0.36 0.30 0.27 0.25 0.22 0.21 0.19 0.17 0.15 0.13 0.11 0.10 0.09 0.12 0.17 0.20 0.23 0.25 0.29
0.32 0.38 0.50 0.61 0.75 0.80 0.86 0.85 0.82 0.86 0.85 0.78 0.72 0.73 0.80 0.74 0.64 0.63 0.65 0.63 0.57 0.54 0.51 0.46 0.41 0.36 0.31 0.28 0.29 0.29 0.25 0.21 0.19 0.16 0.13 0.11 0.09 0.09 0.13 0.18 0.20 0.21 0.24
0.33 0.37 0.48 0.62 0.73 0.77 0.77 0.83 0.81 0.83 0.82 0.82 0.77 0.76 0.81 0.85 0.77 0.68 0.65 0.65 0.63 0.57 0.53 0.47 0.44 0.43 0.39 0.32 0.31 0.34 0.33 0.29 0.23 0.17 0.14 0.12 0.10 0.09 0.10 0.13 0.18 0.19 0.19
0.30 0.34 0.40 0.56 0.73 0.79 0.76 0.86 0.92 0.98 1.01 0.96 0.89 0.82 0.83 0.86 0.82 0.75 0.68 0.63 0.63 0.61 0.57 0.52 0.48 0.44 0.43 0.37 0.30 0.40 0.49 0.38 0.24 0.17 0.14 0.12 0.10 0.09 0.08 0.09 0.13 0.18 0.20
0.32 0.36 0.38 0.47 0.62 0.81 0.84 0.86 0.91 0.95 0.95 0.96 0.90 0.82 0.82 0.87 0.89 0.81 0.77 0.71 0.63 0.58 0.54 0.52 0.51 0.48 0.48 0.46 0.37 0.33 0.36 0.37 0.41 0.29 0.18 0.18 0.17 0.14 0.11 0.09 0.10 0.14 0.21
0.39 0.46 0.45 0.49 0.57 0.76 0.79 0.77 0.84 0.87 0.87 0.92 0.97 0.88 0.86 0.90 0.93 0.93 0.87 0.82 0.77 0.67 0.57 0.52 0.51 0.53 0.52 0.49 0.44 0.38 0.33 0.28 0.30 0.40 0.29 0.22 0.26 0.25 0.20 0.16 0.16 0.17 0.20
0.44 0.55 0.54 0.57 0.57 0.68 0.81 0.75 0.75 0.79 0.82 0.87 0.92 0.96 0.95 0.96 0.95 0.95 0.92 0.87 0.82 0.79 0.71 0.60 0.53 0.52 0.52 0.48 0.45 0.44 0.44 0.43 0.35 0.37 0.36 0.24 0.22 0.21 0.23 0.25 0.23 0.23 0.25

GEFSSE_prec_meanprecacc_186.txt.gz
Total_Precipitation_Accumulation
0.02 0.07 0.26 0.40 0.40 0.39 0.38 0.37 0.35 0.31 0.30 0.35 0.40 0.43 0.45 0.41 0.38 0.35 0.34 0.35 0.38 0.41 0.47 0.53 0.54 0.55 0.51 0.47 0.44 0.39 0.39 0.41 0.41 0.39 0.41 0.47 0.48 0.43 0.39 0.35 0.26 0.34 0.52
0.02 0.08 0.24 0.32 0.33 0.37 0.37 0.35 0.33 0.30 0.29 0.34 0.38 0.38 0.39 0.39 0.39 0.39 0.38 0.36 0.37 0.42 0.49 0.55 0.55 0.53 0.52 0.47 0.41 0.33 0.31 0.30 0.31 0.30 0.27 0.25 0.41 0.45 0.39 0.40 0.37 0.58 0.67
0.01 0.07 0.17 0.26 0.30 0.33 0.35 0.33 0.31 0.32 0.32 0.35 0.36 0.36 0.35 0.36 0.37 0.41 0.42 0.40 0.40 0.39 0.42 0.48 0.52 0.49 0.45 0.37 0.31 0.27 0.27 0.23 0.20 0.22 0.20 0.15 0.32 0.54 0.50 0.48 0.47 0.67 0.66
0.02 0.06 0.11 0.21 0.28 0.32 0.34 0.34 0.35 0.35 0.36 0.41 0.39 0.36 0.36 0.37 0.37 0.39 0.41 0.39 0.41 0.40 0.40 0.42 0.41 0.39 0.34 0.26 0.24 0.24 0.25 0.21 0.16 0.14 0.07 0.08 0.30 0.57 0.61 0.55 0.52 0.57 0.61
0.02 0.05 0.12 0.23 0.28 0.31 0.34 0.35 0.36 0.35 0.38 0.44 0.45 0.42 0.41 0.41 0.40 0.40 0.39 0.38 0.36 0.37 0.38 0.39 0.35 0.32 0.30 0.28 0.26 0.26 0.25 0.21 0.15 0.09 0.03 0.07 0.23 0.51 0.51 0.50 0.46 0.51 0.55
0.02 0.04 0.12 0.23 0.29 0.31 0.34 0.34 0.35 0.36 0.39 0.45 0.45 0.45 0.45 0.47 0.44 0.40 0.39 0.38 0.35 0.35 0.36 0.37 0.34 0.33 0.30 0.27 0.28 0.32 0.33 0.28 0.16 0.07 0.04 0.06 0.14 0.36 0.45 0.50 0.49 0.47 0.43
0.03 0.05 0.12 0.24 0.33 0.34 0.36 0.36 0.38 0.39 0.41 0.44 0.45 0.46 0.48 0.49 0.48 0.43 0.38 0.36 0.34 0.33 0.34 0.35 0.32 0.32 0.32 0.30 0.30 0.34 0.41 0.32 0.18 0.17 0.12 0.10 0.14 0.27 0.38 0.47 0.50 0.47 0.46
0.04 0.07 0.15 0.30 0.36 0.37 0.39 0.38 0.41 0.43 0.45 0.46 0.45 0.47 0.50 0.53 0.48 0.43 0.40 0.38 0.36 0.34 0.33 0.30 0.26 0.25 0.28 0.30 0.31 0.33 0.37 0.26 0.21 0.26 0.27 0.23 0.22 0.32 0.40 0.44 0.48 0.49 0.53
0.06 0.10 0.19 0.32 0.39 0.44 0.47 0.45 0.45 0.48 0.50 0.49 0.49 0.49 0.50 0.53 0.51 0.46 0.39 0.40 0.38 0.35 0.33 0.28 0.24 0.21 0.22 0.22 0.24 0.27 0.29 0.26 0.31 0.41 0.35 0.37 0.32 0.43 0.49 0.45 0.44 0.49 0.53
0.10 0.14 0.21 0.30 0.38 0.43 0.47 0.47 0.48 0.47 0.50 0.51 0.52 0.52 0.49 0.49 0.52 0.49 0.41 0.40 0.40 0.38 0.36 0.32 0.29 0.25 0.23 0.20 0.18 0.20 0.22 0.21 0.23 0.31 0.40 0.35 0.35 0.53 0.64 0.57 0.49 0.49 0.53
0.17 0.21 0.27 0.33 0.39 0.45 0.49 0.47 0.52 0.54 0.54 0.56 0.56 0.55 0.55 0.50 0.48 0.47 0.42 0.38 0.38 0.39 0.37 0.34 0.30 0.29 0.26 0.21 0.17 0.17 0.16 0.13 0.18 0.27 0.33 0.30 0.38 0.57 0.73 0.68 0.63 0.54 0.53
0.20 0.24 0.30 0.35 0.42 0.50 0.54 0.55 0.58 0.58 0.55 0.55 0.49 0.51 0.54 0.54 0.51 0.44 0.42 0.41 0.40 0.41 0.42 0.39 0.35 0.31 0.28 0.20 0.17 0.19 0.12 0.08 0.07 0.10 0.14 0.19 0.28 0.45 0.69 0.76 0.74 0.69 0.65
0.18 0.26 0.32 0.38 0.44 0.52 0.56 0.58 0.56 0.59 0.54 0.53 0.49 0.48 0.49 0.54 0.53 0.49 0.48 0.48 0.47 0.43 0.43 0.44 0.45 0.40 0.37 0.31 0.25 0.24 0.16 0.12 0.10 0.07 0.07 0.12 0.17 0.28 0.45 0.60 0.76 0.81 0.82
0.20 0.28 0.34 0.42 0.50 0.57 0.59 0.61 0.57 0.55 0.53 0.49 0.50 0.49 0.49 0.49 0.47 0.44 0.41 0.40 0.41 0.38 0.38 0.38 0.38 0.39 0.42 0.40 0.32 0.26 0.25 0.23 0.18 0.14 0.10 0.13 0.15 0.22 0.35 0.47 0.62 0.77 0.88
0.19 0.29 0.38 0.46 0.52 0.60 0.67 0.64 0.60 0.55 0.50 0.48 0.50 0.49 0.48 0.47 0.44 0.42 0.40 0.40 0.39 0.34 0.32 0.33 0.30 0.27 0.27 0.31 0.32 0.27 0.26 0.24 0.22 0.22 0.18 0.18 0.17 0.19 0.29 0.40 0.51 0.68 0.84
0.21 0.31 0.40 0.50 0.55 0.59 0.67 0.66 0.62 0.57 0.54 0.53 0.50 0.49 0.49 0.49 0.46 0.42 0.40 0.37 0.38 0.36 0.34 0.31 0.30 0.26 0.21 0.19 0.17 0.18 0.22 0.24 0.26 0.26 0.23 0.21 0.20 0.18 0.23 0.34 0.45 0.59 0.78
0.25 0.34 0.44 0.49 0.57 0.60 0.65 0.69 0.68 0.62 0.58 0.58 0.55 0.51 0.53 0.54 0.52 0.48 0.45 0.39 0.36 0.36 0.36 0.36 0.34 0.31 0.26 0.20 0.17 0.14 0.14 0.15 0.19 0.23 0.23 0.22 0.24 0.21 0.21 0.28 0.38 0.47 0.62
0.29 0.38 0.49 0.53 0.58 0.62 0.65 0.73 0.71 0.71 0.63 0.63 0.64 0.60 0.55 0.55 0.55 0.54 0.54 0.51 0.46 0.42 0.40 0.39 0.38 0.35 0.31 0.26 0.21 0.17 0.16 0.15 0.15 0.16 0.17 0.20 0.24 0.25 0.25 0.28 0.34 0.43 0.52
0.26 0.36 0.51 0.58 0.62 0.65 0.67 0.74 0.81 0.78 0.73 0.68 0.69 0.69 0.62 0.60 0.59 0.57 0.54 0.55 0.60 0.57 0.49 0.44 0.40 0.35 0.32 0.27 0.24 0.22 0.20 0.17 0.16 0.16 0.15 0.13 0.15 0.19 0.24 0.27 0.30 0.36 0.43
0.26 0.36 0.50 0.64 0.71 0.74 0.79 0.80 0.90 0.92 0.83 0.76 0.72 0.74 0.71 0.65 0.64 0.64 0.60 0.56 0.58 0.62 0.61 0.52 0.45 0.40 0.36 0.32 0.29 0.26 0.24 0.21 0.19 0.16 0.14 0.12 0.12 0.14 0.19 0.22 0.25 0.27 0.32
0.32 0.38 0.50 0.61 0.75 0.80 0.86 0.85 0.83 0.89 0.88 0.81 0.74 0.77 0.85 0.78 0.67 0.65 0.67 0.66 0.61 0.58 0.56 0.54 0.50 0.47 0.44 0.40 0.39 0.37 0.32 0.26 0.24 0.20 0.15 0.13 0.11 0.11 0.15 0.20 0.22 0.23 0.26
0.33 0.37 0.48 0.62 0.73 0.77 0.77 0.83 0.82 0.85 0.85 0.86 0.81 0.80 0.85 0.89 0.81 0.70 0.67 0.68 0.68 0.62 0.58 0.54 0.53 0.56 0.54 0.46 0.43 0.44 0.43 0.38 0.29 0.21 0.17 0.14 0.12 0.11 0.12 0.15 0.20 0.21 0.21
0.30 0.34 0.40 0.56 0.73 0.79 0.77 0.87 0.94 1.01 1.05 1.01 0.93 0.85 0.86 0.89 0.86 0.79 0.72 0.66 0.69 0.67 0.64 0.58 0.55 0.54 0.57 0.51 0.42 0.50 0.59 0.46 0.29 0.21 0.17 0.15 0.12 0.11 0.10 0.11 0.15 0.20 0.22
0.32 0.36 0.38 0.47 0.63 0.82 0.84 0.87 0.93 0.98 0.99 1.03 0.95 0.86 0.85 0.90 0.92 0.86 0.83 0.76 0.69 0.66 0.62 0.59 0.58 0.56 0.60 0.61 0.50 0.43 0.44 0.44 0.46 0.33 0.21 0.20 0.19 0.17 0.13 0.12 0.13 0.17 0.24
0.39 0.46 0.45 0.49 0.57 0.76 0.79 0.78 0.86 0.89 0.91 0.99 1.02 0.95 0.92 0.93 0.97 0.97 0.94 0.89 0.83 0.74 0.64 0.59 0.59 0.61 0.62 0.63 0.57 0.48 0.41 0.34 0.35 0.45 0.33 0.26 0.30 0.28 0.24 0.20 0.20 0.21 0.24
0.44 0.55 0.54 0.58 0.58 0.69 0.82 0.77 0.77 0.81 0.86 0.92 0.98 1.03 1.02 1.01 1.00 1.00 1.00 0.94 0.88 0.86 0.78 0.67 0.62 0.63 0.62 0.60 0.59 0.55 0.53 0.51 0.41 0.43 0.42 0.28 0.26 0.25 0.27 0.31 0.30 0.30 0.32

GEFSSE_prec_meanprecacc_192.txt.gz
Total_Precipitation_Accumulation
0.02 0.08 0.27 0.42 0.43 0.43 0.42 0.40 0.38 0.33 0.32 0.37 0.42 0.45 0.48 0.45 0.41 0.37 0.36 0.38 0.40 0.43 0.49 0.56 0.59 0.60 0.57 0.54 0.50 0.43 0.41 0.44 0.45 0.42 0.46 0.51 0.52 0.46 0.41 0.37 0.28 0.35 0.53
0.02 0.09 0.25 0.33 0.36 0.39 0.41 0.39 0.36 0.32 0.31 0.36 0.40 0.40 0.41 0.41 0.41 0.42 0.40 0.39 0.39 0.44 0.52 0.59 0.59 0.58 0.58 0.53 0.47 0.38 0.34 0.33 0.34 0.33 0.30 0.28 0.43 0.48 0.42 0.43 0.39 0.59 0.68
0.02 0.07 0.17 0.27 0.32 0.36 0.38 0.36 0.34 0.35 0.34 0.37 0.38 0.38 0.37 0.38 0.39 0.43 0.44 0.43 0.42 0.41 0.44 0.51 0.55 0.53 0.50 0.43 0.36 0.31 0.32 0.27 0.23 0.24 0.22 0.16 0.34 0.57 0.54 0.52 0.50 0.69 0.68
0.02 0.06 0.11 0.22 0.29 0.33 0.36 0.36 0.37 0.38 0.39 0.43 0.42 0.39 0.39 0.40 0.39 0.42 0.44 0.43 0.43 0.42 0.42 0.44 0.43 0.43 0.38 0.30 0.28 0.29 0.31 0.26 0.19 0.15 0.08 0.09 0.31 0.60 0.64 0.59 0.55 0.60 0.64
0.02 0.05 0.12 0.23 0.28 0.32 0.37 0.37 0.38 0.39 0.42 0.47 0.47 0.44 0.44 0.45 0.44 0.43 0.42 0.42 0.39 0.39 0.39 0.41 0.38 0.36 0.33 0.30 0.28 0.29 0.30 0.26 0.19 0.12 0.05 0.07 0.25 0.54 0.54 0.53 0.49 0.53 0.56
0.02 0.04 0.12 0.23 0.30 0.32 0.35 0.36 0.37 0.39 0.43 0.48 0.47 0.46 0.46 0.49 0.47 0.44 0.42 0.41 0.37 0.37 0.38 0.39 0.36 0.35 0.32 0.29 0.29 0.34 0.36 0.32 0.20 0.10 0.06 0.07 0.15 0.37 0.48 0.53 0.51 0.49 0.45
0.03 0.05 0.12 0.25 0.33 0.35 0.37 0.38 0.40 0.42 0.44 0.46 0.47 0.48 0.49 0.51 0.50 0.46 0.41 0.39 0.36 0.34 0.36 0.38 0.35 0.35 0.35 0.32 0.31 0.36 0.42 0.34 0.19 0.20 0.15 0.12 0.16 0.29 0.40 0.50 0.52 0.50 0.48
0.04 0.07 0.16 0.31 0.37 0.38 0.41 0.40 0.43 0.46 0.49 0.48 0.46 0.48 0.52 0.56 0.52 0.48 0.44 0.41 0.39 0.37 0.35 0.32 0.28 0.27 0.30 0.32 0.33 0.34 0.38 0.27 0.21 0.27 0.30 0.25 0.24 0.34 0.42 0.47 0.51 0.52 0.55
0.06 0.10 0.19 0.33 0.40 0.46 0.48 0.46 0.47 0.51 0.54 0.53 0.52 0.51 0.52 0.55 0.53 0.49 0.43 0.42 0.40 0.38 0.36 0.31 0.27 0.25 0.25 0.24 0.26 0.29 0.30 0.27 0.31 0.42 0.36 0.38 0.34 0.45 0.51 0.48 0.48 0.53 0.57
0.10 0.14 0.21 0.30 0.39 0.44 0.49 0.49 0.50 0.50 0.53 0.55 0.55 0.55 0.52 0.51 0.53 0.50 0.42 0.41 0.41 0.40 0.38 0.36 0.32 0.28 0.26 0.23 0.20 0.22 0.24 0.22 0.24 0.32 0.41 0.35 0.36 0.54 0.65 0.60 0.52 0.52 0.56
0.18 0.21 0.27 0.33 0.40 0.47 0.51 0.49 0.54 0.56 0.56 0.59 0.58 0.58 0.58 0.53 0.51 0.48 0.43 0.39 0.39 0.40 0.39 0.37 0.35 0.34 0.31 0.24 0.20 0.19 0.18 0.14 0.19 0.28 0.33 0.30 0.38 0.58 0.75 0.72 0.66 0.58 0.57
0.20 0.24 0.30 0.35 0.43 0.52 0.56 0.58 0.62 0.61 0.57 0.58 0.52 0.53 0.55 0.55 0.53 0.46 0.43 0.41 0.41 0.43 0.45 0.43 0.39 0.36 0.33 0.24 0.21 0.22 0.15 0.09 0.09 0.11 0.14 0.19 0.29 0.46 0.72 0.80 0.78 0.73 0.69
0.18 0.26 0.32 0.39 0.45 0.53 0.58 0.60 0.60 0.62 0.58 0.56 0.51 0.50 0.51 0.55 0.53 0.50 0.49 0.50 0.48 0.45 0.46 0.49 0.51 0.46 0.42 0.35 0.29 0.27 0.18 0.14 0.11 0.08 0.07 0.12 0.17 0.29 0.48 0.65 0.82 0.85 0.87
0.20 0.28 0.35 0.42 0.51 0.58 0.60 0.63 0.60 0.57 0.56 0.52 0.52 0.51 0.51 0.50 0.48 0.44 0.42 0.41 0.42 0.40 0.40 0.43 0.45 0.47 0.49 0.47 0.38 0.31 0.28 0.26 0.19 0.15 0.11 0.14 0.16 0.23 0.38 0.52 0.68 0.83 0.93
0.19 0.29 0.38 0.46 0.52 0.60 0.68 0.65 0.62 0.57 0.52 0.51 0.53 0.52 0.49 0.48 0.46 0.43 0.40 0.40 0.39 0.35 0.34 0.36 0.35 0.32 0.34 0.39 0.39 0.34 0.31 0.27 0.24 0.24 0.20 0.21 0.18 0.19 0.31 0.44 0.57 0.74 0.90
0.21 0.31 0.40 0.50 0.55 0.60 0.67 0.66 0.63 0.59 0.56 0.55 0.52 0.51 0.51 0.51 0.47 0.43 0.40 0.37 0.39 0.38 0.35 0.33 0.32 0.30 0.26 0.24 0.22 0.22 0.26 0.27 0.28 0.28 0.25 0.24 0.22 0.19 0.25 0.37 0.50 0.65 0.86
0.25 0.34 0.44 0.49 0.57 0.60 0.66 0.70 0.68 0.64 0.60 0.60 0.57 0.53 0.55 0.56 0.56 0.51 0.47 0.40 0.37 0.37 0.37 0.38 0.37 0.34 0.30 0.25 0.21 0.19 0.18 0.19 0.22 0.25 0.25 0.25 0.27 0.23 0.22 0.31 0.42 0.53 0.70
0.29 0.38 0.49 0.53 0.58 0.62 0.65 0.73 0.72 0.71 0.64 0.64 0.65 0.62 0.57 0.57 0.59 0.59 0.58 0.54 0.48 0.44 0.41 0.41 0.40 0.38 0.34 0.29 0.25 0.21 0.20 0.20 0.18 0.19 0.21 0.23 0.27 0.28 0.26 0.30 0.38 0.47 0.58
0.26 0.36 0.51 0.58 0.62 0.65 0.67 0.74 0.81 0.79 0.74 0.69 0.70 0.70 0.64 0.62 0.61 0.60 0.59 0.60 0.63 0.60 0.51 0.46 0.42 0.37 0.35 0.31 0.28 0.26 0.24 0.22 0.21 0.21 0.19 0.17 0.18 0.22 0.27 0.29 0.32 0.40 0.47
0.26 0.36 0.50 0.64 0.71 0.74 0.79 0.80 0.90 0.92 0.83 0.77 0.73 0.75 0.72 0.67 0.66 0.66 0.63 0.61 0.63 0.66 0.63 0.54 0.47 0.42 0.38 0.35 0.32 0.31 0.30 0.28 0.24 0.21 0.19 0.17 0.15 0.17 0.21 0.24 0.27 0.31 0.36
0.32 0.38 0.50 0.61 0.75 0.80 0.86 0.85 0.83 0.89 0.88 0.82 0.75 0.78 0.87 0.81 0.71 0.70 0.71 0.71 0.67 0.63 0.59 0.56 0.53 0.50 0.47 0.44 0.44 0.42 0.37 0.34 0.33 0.27 0.21 0.18 0.17 0.16 0.18 0.22 0.25 0.26 0.29
0.33 0.37 0.48 0.62 0.73 0.77 0.77 0.84 0.82 0.85 0.86 0.87 0.82 0.82 0.88 0.94 0.86 0.76 0.73 0.74 0.72 0.65 0.61 0.56 0.55 0.58 0.57 0.49 0.47 0.50 0.50 0.46 0.39 0.31 0.26 0.20 0.17 0.15 0.15 0.18 0.23 0.24 0.24
0.30 0.34 0.40 0.56 0.74 0.80 0.78 0.88 0.95 1.02 1.06 1.02 0.95 0.88 0.89 0.92 0.90 0.83 0.75 0.69 0.72 0.70 0.66 0.60 0.57 0.57 0.60 0.55 0.46 0.55 0.65 0.54 0.38 0.31 0.27 0.23 0.19 0.16 0.14 0.14 0.18 0.23 0.25
0.32 0.36 0.38 0.47 0.64 0.83 0.86 0.88 0.94 0.98 1.00 1.04 0.96 0.88 0.86 0.91 0.93 0.88 0.85 0.78 0.71 0.68 0.65 0.61 0.60 0.59 0.63 0.64 0.54 0.47 0.49 0.50 0.54 0.43 0.31 0.29 0.28 0.23 0.18 0.15 0.16 0.20 0.27
0.39 0.46 0.45 0.50 0.58 0.78 0.82 0.81 0.87 0.91 0.92 1.00 1.03 0.96 0.92 0.94 0.98 0.99 0.96 0.91 0.85 0.76 0.67 0.62 0.62 0.64 0.65 0.66 0.60 0.52 0.45 0.39 0.41 0.53 0.43 0.35 0.38 0.36 0.31 0.25 0.23 0.24 0.27
0.44 0.55 0.55 0.58 0.58 0.69 0.84 0.80 0.79 0.83 0.86 0.92 0.98 1.03 1.03 1.01 1.01 1.01 1.01 0.96 0.90 0.89 0.81 0.70 0.66 0.67 0.66 0.64 0.64 0.59 0.58 0.56 0.47 0.49 0.48 0.36 0.35 0.34 0.34 0.36 0.34 0.34 0.35

GEFSSE_prec_meanprecacc_198.txt.gz
Total_Precipitation_Accumulation
0.02 0.08 0.27 0.43 0.43 0.44 0.43 0.42 0.39 0.35 0.33 0.38 0.43 0.47 0.50 0.46 0.42 0.39 0.37 0.38 0.42 0.45 0.51 0.59 0.61 0.63 0.60 0.58 0.54 0.47 0.45 0.46 0.46 0.44 0.48 0.53 0.53 0.48 0.43 0.39 0.29 0.36 0.55
0.02 0.09 0.25 0.34 0.36 0.40 0.42 0.41 0.38 0.33 0.33 0.37 0.41 0.42 0.42 0.43 0.42 0.43 0.41 0.40 0.41 0.46 0.53 0.61 0.61 0.60 0.61 0.58 0.52 0.42 0.38 0.35 0.36 0.35 0.32 0.29 0.44 0.50 0.43 0.44 0.40 0.61 0.71
0.02 0.07 0.17 0.27 0.32 0.37 0.40 0.38 0.36 0.36 0.36 0.38 0.40 0.40 0.38 0.40 0.41 0.45 0.46 0.45 0.45 0.42 0.45 0.52 0.57 0.56 0.54 0.47 0.42 0.37 0.35 0.29 0.25 0.25 0.24 0.18 0.37 0.60 0.56 0.53 0.51 0.70 0.71
0.02 0.06 0.11 0.22 0.29 0.34 0.37 0.37 0.39 0.40 0.40 0.45 0.44 0.41 0.41 0.41 0.41 0.44 0.46 0.45 0.45 0.43 0.43 0.45 0.44 0.45 0.41 0.34 0.32 0.33 0.35 0.31 0.23 0.17 0.10 0.10 0.33 0.62 0.66 0.60 0.57 0.61 0.66
0.03 0.06 0.12 0.23 0.29 0.32 0.38 0.39 0.40 0.40 0.44 0.50 0.51 0.48 0.47 0.46 0.46 0.46 0.44 0.43 0.41 0.40 0.40 0.42 0.38 0.37 0.36 0.33 0.31 0.32 0.33 0.29 0.22 0.14 0.06 0.09 0.26 0.56 0.56 0.55 0.50 0.55 0.59
0.02 0.04 0.12 0.23 0.30 0.32 0.36 0.37 0.39 0.40 0.44 0.50 0.49 0.49 0.49 0.51 0.48 0.46 0.44 0.43 0.39 0.38 0.40 0.40 0.37 0.37 0.35 0.32 0.32 0.37 0.37 0.33 0.21 0.11 0.08 0.10 0.17 0.38 0.49 0.54 0.54 0.51 0.47
0.03 0.06 0.13 0.25 0.34 0.35 0.37 0.39 0.41 0.44 0.46 0.48 0.48 0.49 0.51 0.53 0.51 0.47 0.41 0.40 0.38 0.36 0.38 0.39 0.36 0.37 0.37 0.35 0.34 0.38 0.44 0.36 0.21 0.21 0.17 0.15 0.18 0.31 0.42 0.52 0.55 0.52 0.50
0.04 0.08 0.16 0.31 0.37 0.39 0.41 0.40 0.44 0.47 0.51 0.51 0.48 0.50 0.53 0.57 0.54 0.49 0.44 0.42 0.40 0.38 0.37 0.34 0.30 0.29 0.33 0.35 0.36 0.36 0.40 0.29 0.23 0.29 0.33 0.29 0.28 0.37 0.44 0.49 0.53 0.55 0.58
0.06 0.10 0.19 0.33 0.40 0.46 0.49 0.47 0.48 0.52 0.55 0.55 0.53 0.52 0.53 0.56 0.54 0.49 0.43 0.42 0.40 0.39 0.37 0.33 0.28 0.26 0.27 0.27 0.29 0.31 0.32 0.29 0.33 0.43 0.37 0.41 0.36 0.47 0.53 0.50 0.51 0.56 0.60
0.10 0.14 0.22 0.31 0.40 0.45 0.49 0.50 0.51 0.50 0.53 0.57 0.56 0.56 0.52 0.52 0.54 0.50 0.43 0.41 0.41 0.41 0.40 0.37 0.33 0.30 0.28 0.25 0.23 0.24 0.26 0.25 0.26 0.34 0.43 0.37 0.37 0.56 0.68 0.62 0.55 0.56 0.59
0.18 0.21 0.27 0.34 0.41 0.49 0.52 0.50 0.55 0.56 0.57 0.60 0.59 0.58 0.59 0.54 0.52 0.49 0.43 0.39 0.39 0.41 0.40 0.38 0.36 0.35 0.33 0.26 0.22 0.22 0.21 0.17 0.21 0.31 0.36 0.31 0.40 0.61 0.78 0.74 0.69 0.61 0.60
0.20 0.24 0.30 0.35 0.43 0.53 0.58 0.59 0.64 0.63 0.59 0.59 0.53 0.54 0.56 0.57 0.55 0.48 0.44 0.41 0.41 0.44 0.46 0.44 0.40 0.38 0.36 0.27 0.23 0.26 0.18 0.13 0.13 0.14 0.16 0.20 0.31 0.48 0.75 0.84 0.81 0.77 0.73
0.18 0.26 0.32 0.39 0.46 0.54 0.60 0.62 0.61 0.65 0.61 0.59 0.54 0.52 0.53 0.58 0.55 0.52 0.50 0.50 0.48 0.45 0.47 0.50 0.52 0.48 0.44 0.36 0.31 0.29 0.21 0.18 0.15 0.11 0.09 0.14 0.19 0.31 0.51 0.69 0.86 0.90 0.92
0.20 0.28 0.35 0.42 0.51 0.58 0.61 0.64 0.62 0.59 0.58 0.55 0.55 0.54 0.55 0.54 0.50 0.47 0.43 0.41 0.42 0.40 0.40 0.44 0.47 0.49 0.51 0.48 0.40 0.33 0.31 0.30 0.24 0.20 0.15 0.17 0.17 0.24 0.41 0.55 0.72 0.88 0.98
0.19 0.29 0.38 0.46 0.52 0.61 0.68 0.66 0.63 0.59 0.54 0.52 0.55 0.55 0.53 0.52 0.48 0.45 0.42 0.42 0.40 0.36 0.34 0.36 0.36 0.34 0.36 0.40 0.41 0.37 0.37 0.33 0.30 0.29 0.25 0.25 0.22 0.21 0.33 0.47 0.59 0.78 0.96
0.21 0.31 0.40 0.50 0.55 0.60 0.68 0.67 0.64 0.60 0.57 0.57 0.54 0.52 0.53 0.54 0.50 0.45 0.42 0.39 0.39 0.38 0.36 0.34 0.33 0.31 0.28 0.26 0.24 0.25 0.31 0.33 0.34 0.33 0.29 0.29 0.26 0.23 0.28 0.40 0.53 0.69 0.90
0.25 0.34 0.44 0.49 0.57 0.60 0.66 0.70 0.69 0.64 0.60 0.61 0.58 0.54 0.56 0.57 0.57 0.53 0.48 0.42 0.38 0.38 0.38 0.39 0.38 0.36 0.32 0.27 0.23 0.21 0.21 0.22 0.26 0.31 0.31 0.30 0.31 0.28 0.26 0.34 0.46 0.57 0.74
0.29 0.38 0.49 0.53 0.58 0.62 0.65 0.73 0.72 0.72 0.64 0.64 0.66 0.63 0.58 0.58 0.60 0.60 0.59 0.56 0.50 0.46 0.43 0.42 0.41 0.40 0.37 0.32 0.28 0.24 0.23 0.22 0.22 0.24 0.26 0.29 0.32 0.32 0.31 0.34 0.42 0.53 0.63
0.26 0.36 0.51 0.58 0.62 0.65 0.67 0.74 0.81 0.79 0.75 0.70 0.71 0.71 0.65 0.63 0.62 0.61 0.61 0.62 0.65 0.62 0.53 0.47 0.43 0.39 0.37 0.33 0.31 0.29 0.27 0.24 0.25 0.25 0.23 0.22 0.24 0.27 0.31 0.33 0.38 0.45 0.54
0.26 0.36 0.50 0.64 0.71 0.74 0.79 0.80 0.90 0.93 0.84 0.78 0.74 0.76 0.73 0.68 0.67 0.67 0.64 0.63 0.65 0.68 0.65 0.55 0.48 0.44 0.40 0.38 0.35 0.34 0.33 0.30 0.27 0.24 0.23 0.22 0.21 0.22 0.27 0.30 0.32 0.37 0.44
0.32 0.38 0.50 0.61 0.75 0.80 0.86 0.85 0.83 0.89 0.89 0.83 0.76 0.79 0.88 0.82 0.72 0.71 0.73 0.73 0.70 0.68 0.63 0.58 0.54 0.52 0.49 0.45 0.46 0.46 0.41 0.37 0.36 0.30 0.24 0.23 0.22 0.21 0.24 0.29 0.31 0.32 0.37
0.33 0.37 0.48 0.62 0.73 0.77 0.78 0.84 0.82 0.85 0.86 0.87 0.83 0.83 0.90 0.95 0.87 0.77 0.75 0.75 0.74 0.68 0.64 0.59 0.58 0.61 0.59 0.52 0.49 0.53 0.53 0.50 0.42 0.34 0.29 0.24 0.23 0.24 0.24 0.25 0.29 0.30 0.32
0.30 0.34 0.40 0.56 0.74 0.80 0.78 0.88 0.95 1.02 1.06 1.04 0.97 0.89 0.90 0.93 0.91 0.84 0.76 0.70 0.73 0.71 0.68 0.62 0.58 0.59 0.62 0.57 0.48 0.57 0.68 0.58 0.40 0.33 0.30 0.27 0.24 0.23 0.22 0.23 0.27 0.30 0.32
0.32 0.36 0.38 0.47 0.64 0.83 0.86 0.88 0.94 0.99 1.01 1.05 0.98 0.90 0.88 0.92 0.95 0.89 0.87 0.79 0.72 0.70 0.66 0.63 0.61 0.61 0.65 0.66 0.56 0.50 0.51 0.53 0.56 0.45 0.33 0.32 0.32 0.29 0.25 0.23 0.23 0.28 0.34
0.39 0.46 0.45 0.50 0.58 0.78 0.83 0.83 0.88 0.92 0.94 1.02 1.04 0.97 0.94 0.96 1.00 1.00 0.97 0.92 0.86 0.77 0.68 0.63 0.63 0.66 0.68 0.68 0.62 0.54 0.48 0.41 0.44 0.56 0.46 0.39 0.43 0.41 0.37 0.32 0.29 0.30 0.33
0.44 0.55 0.55 0.58 0.58 0.69 0.86 0.84 0.81 0.85 0.88 0.94 0.99 1.05 1.04 1.02 1.02 1.02 1.02 0.97 0.91 0.90 0.82 0.72 0.67 0.68 0.67 0.66 0.66 0.62 0.61 0.60 0.50 0.53 0.51 0.40 0.40 0.40 0.41 0.44 0.42 0.40 0.40

GEFSSE_prec_meanprecacc_204.txt.gz
Total_Precipitation_Accumulation
0.02 0.08 0.28 0.44 0.44 0.44 0.44 0.43 0.40 0.35 0.34 0.38 0.43 0.47 0.50 0.47 0.43 0.39 0.37 0.39 0.42 0.46 0.52 0.60 0.62 0.65 0.63 0.61 0.56 0.49 0.48 0.49 0.48 0.46 0.49 0.54 0.54 0.50 0.44 0.40 0.30 0.36 0.56
0.02 0.09 0.25 0.34 0.37 0.40 0.43 0.42 0.38 0.34 0.33 0.37 0.41 0.42 0.43 0.43 0.43 0.44 0.42 0.41 0.43 0.47 0.54 0.62 0.61 0.61 0.62 0.60 0.54 0.45 0.41 0.37 0.37 0.36 0.32 0.30 0.46 0.52 0.45 0.45 0.41 0.61 0.71
0.02 0.07 0.18 0.28 0.33 0.37 0.40 0.38 0.36 0.36 0.36 0.39 0.40 0.40 0.39 0.40 0.42 0.46 0.47 0.47 0.46 0.44 0.46 0.53 0.57 0.57 0.55 0.49 0.44 0.39 0.38 0.32 0.27 0.26 0.25 0.18 0.37 0.61 0.57 0.54 0.52 0.72 0.72
0.02 0.06 0.12 0.22 0.30 0.34 0.37 0.38 0.39 0.40 0.41 0.46 0.45 0.43 0.43 0.42 0.42 0.45 0.46 0.46 0.46 0.44 0.44 0.46 0.45 0.46 0.42 0.35 0.34 0.35 0.38 0.34 0.25 0.20 0.11 0.11 0.34 0.64 0.68 0.61 0.58 0.63 0.68
0.03 0.06 0.13 0.24 0.29 0.33 0.38 0.39 0.41 0.41 0.44 0.51 0.52 0.49 0.48 0.48 0.46 0.46 0.44 0.43 0.41 0.41 0.41 0.43 0.39 0.38 0.37 0.34 0.33 0.33 0.34 0.31 0.24 0.16 0.07 0.09 0.27 0.57 0.58 0.57 0.52 0.56 0.61
0.02 0.05 0.12 0.24 0.31 0.33 0.36 0.38 0.39 0.40 0.44 0.51 0.50 0.50 0.50 0.53 0.50 0.46 0.44 0.43 0.40 0.39 0.40 0.40 0.38 0.38 0.36 0.33 0.34 0.39 0.39 0.35 0.23 0.12 0.09 0.10 0.17 0.40 0.53 0.57 0.57 0.53 0.49
0.03 0.06 0.13 0.26 0.34 0.36 0.38 0.39 0.42 0.44 0.47 0.48 0.49 0.49 0.51 0.54 0.52 0.48 0.42 0.40 0.38 0.37 0.39 0.40 0.37 0.38 0.38 0.36 0.36 0.39 0.46 0.38 0.23 0.22 0.17 0.15 0.19 0.34 0.46 0.57 0.58 0.54 0.53
0.04 0.08 0.16 0.31 0.38 0.39 0.42 0.41 0.44 0.47 0.51 0.51 0.48 0.50 0.54 0.58 0.54 0.49 0.44 0.42 0.40 0.38 0.38 0.34 0.30 0.30 0.33 0.37 0.37 0.38 0.42 0.32 0.24 0.30 0.33 0.30 0.29 0.39 0.49 0.55 0.57 0.57 0.60
0.06 0.10 0.19 0.33 0.41 0.47 0.50 0.48 0.48 0.52 0.55 0.55 0.53 0.52 0.53 0.57 0.54 0.50 0.43 0.42 0.41 0.39 0.38 0.33 0.29 0.27 0.28 0.28 0.30 0.33 0.34 0.31 0.34 0.44 0.38 0.42 0.37 0.49 0.57 0.55 0.56 0.60 0.63
0.10 0.14 0.22 0.31 0.40 0.46 0.51 0.51 0.52 0.51 0.54 0.57 0.56 0.56 0.52 0.52 0.54 0.50 0.43 0.41 0.42 0.41 0.41 0.38 0.34 0.30 0.29 0.27 0.25 0.26 0.28 0.27 0.27 0.35 0.44 0.38 0.39 0.58 0.71 0.66 0.59 0.60 0.64
0.18 0.21 0.27 0.34 0.41 0.49 0.53 0.51 0.56 0.58 0.58 0.61 0.59 0.58 0.59 0.54 0.52 0.49 0.43 0.39 0.40 0.41 0.41 0.39 0.37 0.36 0.34 0.28 0.24 0.24 0.23 0.18 0.22 0.32 0.37 0.33 0.42 0.63 0.81 0.78 0.72 0.65 0.65
0.21 0.25 0.31 0.36 0.44 0.53 0.58 0.60 0.65 0.64 0.60 0.59 0.53 0.54 0.56 0.57 0.55 0.48 0.44 0.42 0.41 0.44 0.46 0.45 0.41 0.39 0.36 0.27 0.24 0.27 0.19 0.13 0.14 0.15 0.17 0.22 0.33 0.52 0.79 0.88 0.86 0.81 0.77
0.19 0.27 0.33 0.40 0.46 0.55 0.61 0.63 0.62 0.65 0.62 0.59 0.54 0.52 0.53 0.58 0.55 0.52 0.50 0.50 0.48 0.45 0.47 0.50 0.53 0.48 0.44 0.36 0.31 0.29 0.22 0.19 0.16 0.13 0.11 0.16 0.22 0.35 0.56 0.74 0.91 0.95 0.96
0.20 0.29 0.36 0.44 0.53 0.59 0.62 0.65 0.62 0.59 0.58 0.55 0.55 0.54 0.55 0.54 0.50 0.47 0.43 0.41 0.42 0.40 0.41 0.45 0.47 0.50 0.52 0.49 0.40 0.33 0.32 0.30 0.24 0.20 0.16 0.19 0.20 0.28 0.46 0.61 0.78 0.94 1.04
0.20 0.30 0.40 0.48 0.53 0.62 0.70 0.67 0.65 0.59 0.54 0.52 0.55 0.55 0.54 0.53 0.49 0.46 0.43 0.42 0.41 0.36 0.34 0.37 0.36 0.35 0.36 0.41 0.41 0.38 0.37 0.33 0.30 0.30 0.26 0.27 0.25 0.24 0.38 0.54 0.67 0.85 1.02
0.22 0.31 0.41 0.51 0.56 0.62 0.70 0.69 0.65 0.61 0.58 0.58 0.54 0.52 0.54 0.55 0.51 0.46 0.43 0.40 0.40 0.38 0.36 0.34 0.34 0.32 0.28 0.26 0.25 0.26 0.31 0.33 0.34 0.34 0.30 0.30 0.29 0.25 0.31 0.46 0.61 0.76 0.97
0.25 0.34 0.44 0.49 0.58 0.62 0.67 0.72 0.70 0.65 0.62 0.63 0.58 0.55 0.56 0.58 0.58 0.53 0.49 0.43 0.39 0.38 0.38 0.39 0.39 0.36 0.32 0.28 0.24 0.22 0.22 0.23 0.27 0.31 0.32 0.31 0.33 0.30 0.30 0.39 0.54 0.67 0.84
0.29 0.38 0.49 0.54 0.59 0.63 0.67 0.75 0.74 0.73 0.66 0.66 0.67 0.64 0.59 0.58 0.60 0.61 0.60 0.56 0.50 0.46 0.43 0.43 0.42 0.41 0.37 0.32 0.29 0.25 0.25 0.24 0.23 0.25 0.27 0.30 0.34 0.34 0.33 0.38 0.47 0.63 0.76
0.26 0.36 0.51 0.58 0.62 0.65 0.68 0.76 0.83 0.81 0.77 0.71 0.72 0.72 0.66 0.64 0.63 0.62 0.61 0.62 0.66 0.63 0.54 0.48 0.44 0.40 0.38 0.34 0.32 0.30 0.28 0.26 0.26 0.27 0.24 0.23 0.25 0.29 0.34 0.37 0.43 0.54 0.66
0.26 0.36 0.50 0.64 0.71 0.74 0.79 0.81 0.92 0.95 0.86 0.79 0.75 0.77 0.74 0.70 0.68 0.68 0.65 0.63 0.66 0.69 0.66 0.56 0.49 0.44 0.40 0.38 0.36 0.35 0.34 0.32 0.28 0.25 0.24 0.23 0.22 0.24 0.31 0.36 0.38 0.45 0.55
0.32 0.38 0.50 0.62 0.75 0.80 0.86 0.86 0.84 0.90 0.90 0.84 0.76 0.79 0.88 0.83 0.73 0.73 0.74 0.74 0.71 0.68 0.65 0.60 0.55 0.53 0.50 0.46 0.47 0.47 0.41 0.38 0.37 0.31 0.26 0.24 0.24 0.23 0.26 0.34 0.40 0.41 0.49
0.33 0.37 0.48 0.62 0.73 0.77 0.78 0.84 0.82 0.86 0.87 0.89 0.84 0.84 0.90 0.96 0.88 0.79 0.76 0.77 0.75 0.69 0.65 0.60 0.59 0.62 0.60 0.53 0.50 0.54 0.55 0.52 0.44 0.36 0.30 0.25 0.25 0.25 0.26 0.29 0.37 0.42 0.45
0.30 0.34 0.40 0.56 0.74 0.80 0.78 0.88 0.95 1.02 1.07 1.05 0.98 0.91 0.91 0.94 0.92 0.85 0.78 0.71 0.74 0.73 0.69 0.62 0.59 0.60 0.63 0.58 0.49 0.59 0.70 0.60 0.42 0.35 0.32 0.28 0.26 0.26 0.26 0.27 0.32 0.40 0.44
0.32 0.36 0.38 0.47 0.64 0.84 0.86 0.88 0.94 0.99 1.01 1.06 0.99 0.92 0.90 0.94 0.97 0.92 0.88 0.80 0.73 0.71 0.67 0.63 0.62 0.61 0.66 0.67 0.57 0.51 0.53 0.55 0.60 0.48 0.35 0.34 0.33 0.31 0.29 0.28 0.29 0.35 0.43
0.39 0.46 0.45 0.50 0.58 0.78 0.83 0.83 0.88 0.92 0.94 1.02 1.05 0.98 0.95 0.98 1.02 1.02 0.99 0.93 0.87 0.78 0.69 0.64 0.64 0.66 0.68 0.69 0.64 0.56 0.50 0.44 0.46 0.59 0.48 0.41 0.45 0.43 0.40 0.37 0.36 0.37 0.42
0.44 0.55 0.55 0.58 0.58 0.69 0.86 0.84 0.81 0.85 0.88 0.94 0.99 1.05 1.05 1.03 1.04 1.03 1.03 0.99 0.93 0.92 0.83 0.73 0.68 0.69 0.69 0.68 0.68 0.65 0.64 0.62 0.52 0.55 0.55 0.44 0.44 0.43 0.44 0.48 0.49 0.48 0.49

GEFSSE_prec_meanprecacc_210.txt.gz
Total_Precipitation_Accumulation
0.02 0.09 0.30 0.45 0.45 0.45 0.44 0.43 0.40 0.35 0.34 0.38 0.43 0.48 0.51 0.47 0.43 0.40 0.38 0.40 0.44 0.47 0.53 0.61 0.63 0.66 0.64 0.63 0.59 0.52 0.51 0.51 0.51 0.49 0.52 0.56 0.57 0.52 0.46 0.42 0.31 0.37 0.57
0.02 0.10 0.27 0.36 0.38 0.41 0.44 0.42 0.39 0.34 0.33 0.37 0.41 0.42 0.43 0.43 0.43 0.44 0.42 0.42 0.44 0.49 0.56 0.63 0.62 0.62 0.63 0.61 0.55 0.46 0.42 0.39 0.38 0.37 0.34 0.32 0.47 0.53 0.47 0.48 0.43 0.62 0.73
0.02 0.08 0.19 0.29 0.34 0.38 0.41 0.39 0.38 0.37 0.36 0.39 0.40 0.41 0.40 0.41 0.42 0.46 0.48 0.47 0.47 0.45 0.47 0.55 0.59 0.58 0.56 0.51 0.46 0.41 0.39 0.33 0.28 0.28 0.26 0.19 0.38 0.63 0.60 0.57 0.55 0.74 0.74
0.02 0.07 0.12 0.23 0.30 0.35 0.38 0.38 0.40 0.41 0.41 0.46 0.46 0.43 0.43 0.43 0.43 0.46 0.47 0.46 0.47 0.45 0.44 0.47 0.46 0.47 0.43 0.36 0.35 0.36 0.39 0.35 0.26 0.21 0.11 0.11 0.34 0.65 0.71 0.65 0.61 0.66 0.70
0.03 0.06 0.14 0.25 0.30 0.34 0.39 0.40 0.42 0.41 0.45 0.51 0.53 0.50 0.48 0.49 0.47 0.47 0.45 0.44 0.42 0.41 0.41 0.43 0.40 0.39 0.38 0.35 0.34 0.35 0.35 0.32 0.25 0.17 0.07 0.09 0.27 0.59 0.62 0.61 0.56 0.59 0.64
0.03 0.05 0.13 0.25 0.32 0.34 0.37 0.38 0.40 0.41 0.45 0.51 0.51 0.50 0.50 0.53 0.51 0.47 0.45 0.43 0.40 0.39 0.40 0.41 0.38 0.39 0.36 0.34 0.35 0.40 0.40 0.36 0.24 0.13 0.09 0.10 0.17 0.42 0.55 0.61 0.60 0.57 0.52
0.04 0.06 0.14 0.27 0.35 0.37 0.38 0.40 0.42 0.44 0.47 0.48 0.49 0.50 0.52 0.55 0.53 0.48 0.42 0.41 0.39 0.37 0.39 0.40 0.37 0.38 0.39 0.37 0.37 0.41 0.48 0.39 0.23 0.23 0.18 0.16 0.20 0.35 0.48 0.60 0.62 0.58 0.56
0.05 0.08 0.17 0.33 0.39 0.40 0.42 0.41 0.44 0.47 0.51 0.51 0.49 0.50 0.54 0.58 0.55 0.50 0.45 0.42 0.40 0.38 0.38 0.35 0.30 0.30 0.34 0.37 0.38 0.40 0.44 0.33 0.25 0.30 0.33 0.30 0.30 0.41 0.50 0.58 0.62 0.62 0.64
0.07 0.11 0.21 0.35 0.42 0.49 0.51 0.49 0.49 0.53 0.55 0.55 0.54 0.53 0.53 0.57 0.55 0.50 0.44 0.43 0.41 0.39 0.38 0.33 0.29 0.27 0.28 0.29 0.31 0.34 0.35 0.31 0.35 0.45 0.38 0.42 0.38 0.50 0.58 0.57 0.59 0.66 0.67
0.11 0.15 0.23 0.33 0.42 0.48 0.53 0.53 0.53 0.51 0.54 0.57 0.56 0.56 0.53 0.52 0.55 0.51 0.43 0.42 0.42 0.42 0.41 0.38 0.34 0.31 0.29 0.27 0.26 0.27 0.29 0.27 0.28 0.35 0.45 0.39 0.40 0.60 0.73 0.68 0.62 0.64 0.69
0.19 0.22 0.29 0.36 0.44 0.52 0.56 0.54 0.58 0.59 0.59 0.61 0.59 0.59 0.59 0.54 0.52 0.49 0.43 0.39 0.40 0.42 0.42 0.40 0.38 0.37 0.34 0.28 0.25 0.26 0.25 0.19 0.23 0.33 0.38 0.34 0.44 0.66 0.86 0.82 0.76 0.69 0.69
0.21 0.26 0.32 0.37 0.46 0.57 0.63 0.64 0.67 0.65 0.61 0.59 0.53 0.54 0.56 0.57 0.55 0.48 0.44 0.42 0.41 0.44 0.47 0.46 0.42 0.40 0.37 0.27 0.24 0.27 0.20 0.14 0.14 0.16 0.18 0.23 0.35 0.55 0.84 0.93 0.90 0.86 0.83
0.20 0.28 0.35 0.42 0.48 0.58 0.64 0.67 0.65 0.67 0.62 0.60 0.54 0.52 0.53 0.58 0.55 0.52 0.50 0.50 0.48 0.46 0.47 0.51 0.53 0.49 0.44 0.37 0.31 0.29 0.22 0.19 0.16 0.13 0.11 0.17 0.23 0.37 0.60 0.79 0.97 1.01 1.03
0.21 0.31 0.39 0.47 0.56 0.63 0.67 0.70 0.66 0.63 0.59 0.56 0.56 0.55 0.55 0.54 0.51 0.47 0.43 0.41 0.43 0.40 0.41 0.45 0.48 0.50 0.52 0.49 0.40 0.33 0.32 0.30 0.24 0.20 0.16 0.19 0.21 0.29 0.48 0.65 0.84 1.01 1.11
0.20 0.32 0.42 0.51 0.57 0.66 0.74 0.72 0.70 0.63 0.56 0.54 0.56 0.56 0.55 0.53 0.49 0.46 0.43 0.42 0.41 0.36 0.34 0.37 0.36 0.35 0.36 0.41 0.42 0.38 0.37 0.33 0.30 0.30 0.26 0.27 0.25 0.25 0.40 0.57 0.71 0.91 1.09
0.22 0.32 0.42 0.53 0.59 0.66 0.73 0.73 0.70 0.66 0.62 0.61 0.56 0.53 0.55 0.55 0.51 0.46 0.43 0.40 0.40 0.39 0.37 0.35 0.34 0.32 0.28 0.27 0.25 0.26 0.31 0.34 0.35 0.34 0.31 0.31 0.29 0.26 0.32 0.48 0.63 0.81 1.04
0.25 0.35 0.45 0.50 0.60 0.64 0.70 0.75 0.75 0.71 0.67 0.66 0.61 0.57 0.58 0.60 0.60 0.55 0.50 0.44 0.40 0.39 0.39 0.40 0.39 0.37 0.33 0.28 0.25 0.23 0.22 0.24 0.27 0.32 0.32 0.32 0.33 0.31 0.31 0.40 0.55 0.70 0.90
0.29 0.39 0.50 0.55 0.60 0.65 0.69 0.78 0.78 0.78 0.71 0.71 0.71 0.67 0.62 0.61 0.63 0.63 0.61 0.58 0.52 0.48 0.45 0.44 0.43 0.41 0.38 0.33 0.29 0.26 0.25 0.24 0.23 0.25 0.27 0.30 0.34 0.35 0.34 0.38 0.48 0.64 0.81
0.26 0.36 0.51 0.59 0.63 0.66 0.69 0.78 0.86 0.85 0.81 0.75 0.77 0.76 0.69 0.67 0.66 0.64 0.63 0.64 0.68 0.65 0.55 0.49 0.45 0.40 0.39 0.35 0.32 0.31 0.28 0.26 0.26 0.27 0.25 0.23 0.25 0.30 0.34 0.37 0.44 0.55 0.70
0.26 0.36 0.50 0.64 0.72 0.75 0.81 0.83 0.94 0.97 0.89 0.82 0.78 0.79 0.77 0.72 0.71 0.71 0.67 0.64 0.67 0.70 0.67 0.57 0.49 0.45 0.41 0.39 0.36 0.35 0.35 0.32 0.28 0.26 0.25 0.24 0.22 0.24 0.31 0.36 0.39 0.46 0.57
0.32 0.38 0.50 0.62 0.75 0.81 0.87 0.86 0.84 0.91 0.91 0.85 0.78 0.81 0.90 0.85 0.76 0.76 0.76 0.75 0.72 0.69 0.66 0.61 0.56 0.53 0.50 0.46 0.48 0.47 0.42 0.39 0.38 0.32 0.27 0.25 0.25 0.24 0.27 0.36 0.41 0.42 0.50
0.33 0.37 0.49 0.63 0.74 0.78 0.78 0.84 0.83 0.86 0.88 0.90 0.86 0.85 0.92 0.97 0.90 0.81 0.78 0.78 0.76 0.70 0.66 0.61 0.60 0.64 0.62 0.54 0.51 0.55 0.56 0.53 0.44 0.37 0.32 0.27 0.26 0.27 0.28 0.31 0.38 0.43 0.46
0.30 0.34 0.40 0.56 0.74 0.81 0.79 0.89 0.96 1.03 1.08 1.07 1.00 0.92 0.92 0.95 0.93 0.87 0.79 0.73 0.76 0.74 0.70 0.64 0.61 0.61 0.65 0.60 0.51 0.62 0.73 0.63 0.44 0.36 0.33 0.29 0.27 0.28 0.27 0.29 0.33 0.41 0.46
0.32 0.36 0.38 0.48 0.64 0.84 0.87 0.89 0.95 0.99 1.02 1.06 0.99 0.92 0.91 0.95 0.98 0.93 0.89 0.82 0.75 0.72 0.68 0.65 0.64 0.63 0.68 0.69 0.59 0.53 0.55 0.58 0.62 0.50 0.36 0.35 0.35 0.32 0.30 0.29 0.30 0.36 0.45
0.39 0.46 0.45 0.50 0.58 0.78 0.84 0.84 0.89 0.92 0.94 1.02 1.05 0.99 0.96 0.99 1.03 1.03 1.00 0.95 0.89 0.79 0.70 0.65 0.65 0.68 0.70 0.71 0.66 0.58 0.52 0.46 0.48 0.62 0.50 0.43 0.47 0.45 0.41 0.38 0.36 0.38 0.43
0.44 0.55 0.55 0.58 0.58 0.70 0.86 0.84 0.81 0.86 0.88 0.94 1.00 1.05 1.06 1.04 1.05 1.04 1.04 1.00 0.95 0.93 0.84 0.74 0.70 0.71 0.70 0.70 0.71 0.67 0.65 0.64 0.56 0.59 0.57 0.46 0.45 0.45 0.46 0.50 0.50 0.50 0.52

GEFSSE_prec_meanprecacc_216.txt.gz
Total_Precipitation_Accumulation
0.02 0.09 0.31 0.46 0.47 0.47 0.46 0.44 0.41 0.36 0.35 0.39 0.44 0.48 0.51 0.47 0.44 0.40 0.38 0.40 0.45 0.48 0.54 0.61 0.64 0.66 0.65 0.64 0.60 0.53 0.52 0.52 0.53 0.50 0.53 0.58 0.59 0.54 0.48 0.44 0.33 0.39 0.60
0.03 0.10 0.28 0.37 0.40 0.43 0.45 0.43 0.40 0.35 0.34 0.38 0.42 0.43 0.43 0.44 0.44 0.45 0.43 0.43 0.44 0.50 0.57 0.64 0.63 0.63 0.64 0.61 0.56 0.47 0.43 0.39 0.39 0.38 0.35 0.33 0.49 0.55 0.49 0.51 0.46 0.65 0.76
0.02 0.08 0.20 0.30 0.36 0.39 0.41 0.39 0.38 0.37 0.37 0.39 0.41 0.41 0.40 0.41 0.43 0.47 0.48 0.48 0.48 0.45 0.48 0.55 0.59 0.59 0.57 0.51 0.47 0.41 0.40 0.34 0.28 0.28 0.26 0.20 0.39 0.64 0.62 0.62 0.58 0.76 0.77
0.02 0.07 0.13 0.25 0.32 0.36 0.39 0.39 0.41 0.42 0.41 0.47 0.46 0.44 0.44 0.44 0.43 0.46 0.48 0.47 0.47 0.45 0.45 0.47 0.47 0.48 0.44 0.37 0.36 0.37 0.39 0.35 0.26 0.21 0.12 0.12 0.36 0.68 0.74 0.68 0.64 0.68 0.73
0.03 0.07 0.15 0.26 0.32 0.35 0.40 0.42 0.42 0.42 0.45 0.52 0.53 0.50 0.48 0.49 0.48 0.48 0.46 0.45 0.42 0.42 0.42 0.44 0.40 0.39 0.38 0.36 0.35 0.36 0.36 0.32 0.25 0.17 0.08 0.10 0.28 0.62 0.64 0.62 0.58 0.62 0.67
0.03 0.06 0.15 0.26 0.34 0.35 0.38 0.39 0.40 0.41 0.45 0.51 0.51 0.51 0.51 0.54 0.51 0.48 0.45 0.44 0.40 0.39 0.41 0.41 0.39 0.39 0.37 0.35 0.36 0.41 0.41 0.36 0.24 0.13 0.10 0.11 0.18 0.43 0.57 0.63 0.62 0.59 0.55
0.05 0.08 0.15 0.28 0.36 0.37 0.39 0.41 0.43 0.45 0.48 0.49 0.50 0.51 0.53 0.56 0.54 0.49 0.43 0.41 0.39 0.37 0.39 0.40 0.37 0.38 0.39 0.37 0.37 0.42 0.49 0.40 0.24 0.23 0.18 0.16 0.20 0.36 0.50 0.61 0.64 0.61 0.59
0.06 0.10 0.19 0.34 0.40 0.41 0.43 0.42 0.45 0.48 0.52 0.52 0.50 0.51 0.55 0.59 0.56 0.51 0.46 0.43 0.41 0.38 0.38 0.35 0.31 0.31 0.34 0.38 0.39 0.40 0.44 0.33 0.26 0.30 0.34 0.30 0.30 0.41 0.52 0.59 0.63 0.64 0.67
0.08 0.13 0.23 0.37 0.44 0.50 0.52 0.50 0.51 0.54 0.57 0.57 0.55 0.53 0.54 0.58 0.55 0.51 0.45 0.44 0.42 0.40 0.39 0.34 0.29 0.27 0.28 0.29 0.32 0.34 0.35 0.31 0.35 0.45 0.39 0.43 0.39 0.51 0.60 0.58 0.61 0.67 0.70
0.12 0.17 0.26 0.36 0.45 0.50 0.54 0.54 0.54 0.53 0.55 0.58 0.57 0.57 0.53 0.53 0.56 0.52 0.44 0.42 0.43 0.42 0.41 0.39 0.35 0.31 0.30 0.27 0.26 0.28 0.29 0.28 0.28 0.36 0.45 0.39 0.40 0.61 0.75 0.70 0.64 0.66 0.71
0.20 0.23 0.31 0.39 0.48 0.57 0.60 0.57 0.60 0.61 0.61 0.63 0.61 0.60 0.60 0.55 0.53 0.50 0.44 0.40 0.41 0.43 0.43 0.41 0.39 0.37 0.34 0.28 0.25 0.26 0.25 0.19 0.24 0.34 0.38 0.34 0.44 0.67 0.89 0.85 0.78 0.72 0.73
0.22 0.27 0.34 0.40 0.50 0.63 0.69 0.70 0.73 0.70 0.63 0.62 0.55 0.56 0.58 0.58 0.56 0.50 0.45 0.42 0.42 0.45 0.47 0.47 0.43 0.40 0.37 0.27 0.24 0.28 0.20 0.14 0.15 0.16 0.18 0.23 0.35 0.56 0.86 0.96 0.92 0.88 0.86
0.21 0.29 0.37 0.45 0.52 0.63 0.70 0.73 0.72 0.72 0.65 0.62 0.56 0.54 0.55 0.60 0.57 0.54 0.52 0.52 0.50 0.46 0.48 0.51 0.54 0.49 0.44 0.37 0.31 0.30 0.22 0.19 0.17 0.13 0.11 0.17 0.23 0.39 0.62 0.82 1.00 1.03 1.05
0.23 0.32 0.41 0.50 0.59 0.68 0.73 0.76 0.72 0.67 0.62 0.57 0.58 0.57 0.57 0.56 0.52 0.48 0.44 0.42 0.43 0.41 0.41 0.45 0.48 0.50 0.52 0.49 0.41 0.33 0.32 0.30 0.25 0.21 0.17 0.20 0.21 0.30 0.50 0.68 0.87 1.03 1.13
0.21 0.33 0.44 0.54 0.60 0.70 0.79 0.77 0.75 0.68 0.60 0.57 0.59 0.58 0.56 0.54 0.49 0.46 0.43 0.43 0.41 0.37 0.35 0.38 0.37 0.35 0.37 0.41 0.42 0.38 0.37 0.34 0.30 0.30 0.27 0.28 0.25 0.26 0.41 0.59 0.74 0.94 1.12
0.23 0.33 0.44 0.55 0.61 0.69 0.77 0.77 0.74 0.71 0.68 0.65 0.59 0.55 0.56 0.56 0.52 0.47 0.44 0.41 0.41 0.40 0.37 0.35 0.35 0.33 0.29 0.27 0.26 0.26 0.32 0.34 0.35 0.35 0.31 0.31 0.29 0.27 0.33 0.49 0.66 0.84 1.07
0.26 0.35 0.46 0.52 0.62 0.68 0.73 0.80 0.80 0.76 0.73 0.73 0.66 0.61 0.61 0.61 0.61 0.56 0.51 0.45 0.41 0.40 0.40 0.41 0.40 0.37 0.33 0.28 0.25 0.23 0.23 0.24 0.28 0.32 0.32 0.32 0.33 0.31 0.31 0.41 0.57 0.73 0.93
0.29 0.39 0.51 0.56 0.61 0.67 0.70 0.81 0.81 0.83 0.78 0.77 0.79 0.73 0.67 0.65 0.65 0.64 0.63 0.60 0.54 0.49 0.46 0.45 0.43 0.42 0.38 0.34 0.30 0.26 0.25 0.25 0.24 0.25 0.27 0.30 0.34 0.35 0.34 0.39 0.49 0.66 0.84
0.26 0.37 0.51 0.60 0.64 0.67 0.70 0.80 0.89 0.89 0.87 0.82 0.83 0.84 0.75 0.72 0.70 0.67 0.66 0.67 0.70 0.67 0.57 0.51 0.45 0.41 0.40 0.35 0.33 0.31 0.29 0.26 0.26 0.27 0.25 0.23 0.25 0.30 0.35 0.38 0.44 0.56 0.71
0.26 0.37 0.51 0.65 0.72 0.75 0.81 0.84 0.97 1.01 0.93 0.87 0.82 0.85 0.83 0.78 0.76 0.75 0.70 0.67 0.70 0.72 0.69 0.58 0.50 0.46 0.41 0.40 0.37 0.36 0.35 0.33 0.29 0.26 0.25 0.24 0.23 0.25 0.32 0.37 0.40 0.47 0.58
0.32 0.38 0.51 0.63 0.76 0.81 0.88 0.87 0.85 0.92 0.93 0.87 0.80 0.83 0.94 0.91 0.83 0.84 0.82 0.79 0.75 0.71 0.67 0.62 0.57 0.54 0.51 0.47 0.48 0.47 0.42 0.39 0.38 0.32 0.27 0.25 0.25 0.24 0.28 0.36 0.42 0.43 0.51
0.33 0.38 0.49 0.63 0.74 0.78 0.78 0.84 0.83 0.87 0.89 0.92 0.88 0.88 0.95 1.02 0.96 0.88 0.86 0.86 0.82 0.74 0.69 0.64 0.62 0.65 0.62 0.54 0.52 0.56 0.57 0.53 0.45 0.38 0.33 0.28 0.27 0.28 0.29 0.31 0.39 0.44 0.47
0.30 0.34 0.40 0.56 0.75 0.81 0.79 0.89 0.97 1.04 1.09 1.08 1.01 0.94 0.96 0.99 0.97 0.90 0.83 0.78 0.82 0.80 0.74 0.68 0.64 0.64 0.66 0.61 0.53 0.63 0.75 0.65 0.46 0.38 0.35 0.31 0.28 0.29 0.29 0.30 0.34 0.42 0.47
0.32 0.36 0.38 0.48 0.64 0.84 0.87 0.89 0.95 1.00 1.02 1.06 1.00 0.93 0.93 0.99 1.02 0.96 0.92 0.84 0.78 0.77 0.72 0.68 0.66 0.65 0.70 0.70 0.60 0.54 0.58 0.61 0.65 0.52 0.38 0.36 0.36 0.34 0.32 0.30 0.31 0.37 0.45
0.39 0.46 0.46 0.50 0.58 0.78 0.84 0.84 0.89 0.93 0.95 1.02 1.06 1.00 0.97 1.01 1.07 1.07 1.03 0.97 0.91 0.82 0.72 0.67 0.67 0.69 0.71 0.72 0.67 0.60 0.54 0.48 0.50 0.64 0.52 0.44 0.49 0.46 0.44 0.40 0.38 0.39 0.44
0.44 0.55 0.55 0.58 0.58 0.70 0.86 0.85 0.82 0.86 0.89 0.94 1.00 1.06 1.07 1.05 1.06 1.06 1.06 1.01 0.96 0.94 0.86 0.75 0.71 0.71 0.71 0.71 0.72 0.69 0.67 0.66 0.58 0.61 0.60 0.48 0.48 0.47 0.49 0.53 0.52 0.51 0.54

GEFSSE_prec_meanprecacc_222.txt.gz
Total_Precipitation_Accumulation
0.02 0.09 0.31 0.47 0.47 0.47 0.47 0.45 0.42 0.37 0.36 0.40 0.45 0.49 0.52 0.48 0.44 0.41 0.39 0.41 0.45 0.49 0.55 0.62 0.65 0.67 0.65 0.64 0.60 0.54 0.52 0.53 0.53 0.51 0.54 0.59 0.60 0.55 0.49 0.45 0.34 0.40 0.61
0.03 0.10 0.29 0.38 0.41 0.44 0.46 0.44 0.41 0.36 0.35 0.39 0.43 0.43 0.45 0.45 0.45 0.45 0.43 0.43 0.45 0.50 0.57 0.64 0.64 0.64 0.65 0.62 0.57 0.47 0.44 0.39 0.39 0.38 0.36 0.34 0.50 0.56 0.50 0.52 0.47 0.66 0.77
0.02 0.09 0.20 0.31 0.37 0.41 0.43 0.41 0.39 0.39 0.38 0.41 0.42 0.42 0.41 0.42 0.43 0.47 0.48 0.48 0.48 0.45 0.48 0.56 0.60 0.59 0.57 0.52 0.48 0.42 0.41 0.34 0.29 0.28 0.27 0.21 0.41 0.66 0.64 0.64 0.59 0.78 0.79
0.03 0.08 0.13 0.25 0.33 0.38 0.40 0.40 0.41 0.43 0.43 0.48 0.47 0.45 0.45 0.45 0.44 0.47 0.48 0.47 0.48 0.46 0.45 0.48 0.47 0.48 0.44 0.37 0.37 0.38 0.40 0.36 0.27 0.22 0.13 0.13 0.38 0.69 0.75 0.69 0.65 0.70 0.74
0.04 0.08 0.15 0.27 0.33 0.37 0.41 0.43 0.44 0.43 0.46 0.53 0.54 0.51 0.49 0.51 0.49 0.48 0.46 0.46 0.43 0.42 0.42 0.44 0.40 0.40 0.39 0.36 0.36 0.36 0.37 0.33 0.25 0.17 0.08 0.11 0.30 0.63 0.65 0.63 0.58 0.62 0.68
0.05 0.08 0.17 0.27 0.35 0.37 0.40 0.41 0.42 0.43 0.47 0.53 0.52 0.51 0.51 0.55 0.52 0.48 0.46 0.44 0.41 0.40 0.41 0.41 0.39 0.39 0.37 0.35 0.36 0.41 0.42 0.37 0.24 0.13 0.10 0.12 0.19 0.45 0.58 0.63 0.63 0.60 0.57
0.06 0.11 0.17 0.30 0.38 0.40 0.41 0.43 0.45 0.46 0.49 0.50 0.51 0.51 0.53 0.57 0.54 0.49 0.43 0.41 0.39 0.37 0.39 0.41 0.38 0.39 0.40 0.38 0.38 0.42 0.49 0.40 0.24 0.23 0.19 0.17 0.21 0.37 0.51 0.62 0.65 0.62 0.60
0.08 0.13 0.21 0.37 0.42 0.43 0.45 0.44 0.46 0.49 0.54 0.54 0.51 0.53 0.56 0.60 0.56 0.51 0.46 0.43 0.41 0.39 0.38 0.35 0.31 0.31 0.35 0.38 0.39 0.40 0.44 0.33 0.26 0.31 0.34 0.31 0.31 0.42 0.52 0.59 0.64 0.65 0.68
0.11 0.17 0.26 0.41 0.47 0.52 0.53 0.52 0.52 0.55 0.58 0.58 0.56 0.54 0.55 0.58 0.56 0.52 0.46 0.45 0.42 0.40 0.39 0.34 0.30 0.28 0.29 0.29 0.32 0.34 0.35 0.31 0.35 0.45 0.39 0.43 0.39 0.51 0.60 0.59 0.61 0.68 0.71
0.15 0.22 0.31 0.41 0.49 0.53 0.57 0.56 0.55 0.54 0.57 0.60 0.59 0.58 0.53 0.53 0.56 0.53 0.44 0.43 0.43 0.42 0.42 0.39 0.35 0.32 0.30 0.28 0.26 0.28 0.29 0.28 0.28 0.36 0.46 0.39 0.41 0.61 0.76 0.71 0.64 0.67 0.72
0.23 0.28 0.36 0.45 0.53 0.62 0.65 0.59 0.63 0.63 0.63 0.65 0.63 0.61 0.61 0.56 0.54 0.51 0.44 0.40 0.41 0.43 0.43 0.41 0.39 0.37 0.35 0.28 0.25 0.26 0.25 0.19 0.24 0.34 0.39 0.34 0.44 0.68 0.90 0.86 0.79 0.73 0.74
0.24 0.31 0.38 0.47 0.57 0.70 0.76 0.75 0.78 0.74 0.66 0.64 0.57 0.58 0.60 0.60 0.58 0.51 0.46 0.43 0.42 0.45 0.48 0.47 0.43 0.41 0.37 0.28 0.25 0.28 0.20 0.15 0.16 0.17 0.19 0.24 0.35 0.57 0.88 0.98 0.94 0.90 0.87
0.24 0.33 0.41 0.51 0.62 0.72 0.78 0.80 0.79 0.78 0.70 0.66 0.60 0.58 0.59 0.63 0.60 0.56 0.54 0.53 0.51 0.46 0.48 0.51 0.54 0.49 0.45 0.37 0.32 0.30 0.22 0.20 0.18 0.14 0.13 0.18 0.24 0.40 0.64 0.83 1.02 1.05 1.08
0.26 0.36 0.45 0.55 0.67 0.77 0.81 0.83 0.79 0.72 0.66 0.61 0.62 0.62 0.62 0.59 0.54 0.50 0.46 0.43 0.44 0.42 0.42 0.46 0.48 0.50 0.53 0.50 0.41 0.34 0.33 0.31 0.25 0.21 0.17 0.20 0.21 0.31 0.52 0.70 0.89 1.05 1.15
0.23 0.36 0.46 0.57 0.65 0.77 0.88 0.85 0.82 0.75 0.65 0.62 0.63 0.62 0.60 0.57 0.51 0.48 0.45 0.45 0.43 0.39 0.37 0.39 0.38 0.36 0.38 0.42 0.42 0.38 0.38 0.34 0.31 0.30 0.27 0.28 0.25 0.26 0.42 0.60 0.75 0.96 1.15
0.24 0.34 0.46 0.57 0.64 0.74 0.83 0.84 0.81 0.79 0.77 0.74 0.65 0.59 0.59 0.60 0.55 0.49 0.46 0.43 0.43 0.43 0.41 0.39 0.37 0.35 0.30 0.28 0.26 0.27 0.32 0.34 0.35 0.35 0.31 0.31 0.30 0.27 0.34 0.50 0.67 0.86 1.10
0.27 0.37 0.47 0.54 0.65 0.71 0.77 0.85 0.86 0.81 0.79 0.80 0.73 0.68 0.67 0.65 0.64 0.60 0.54 0.47 0.43 0.43 0.42 0.43 0.41 0.38 0.34 0.29 0.25 0.23 0.23 0.25 0.28 0.33 0.32 0.32 0.34 0.31 0.31 0.41 0.57 0.74 0.96
0.30 0.40 0.53 0.58 0.63 0.69 0.73 0.85 0.86 0.88 0.83 0.83 0.86 0.81 0.74 0.72 0.70 0.67 0.66 0.62 0.57 0.52 0.47 0.46 0.44 0.42 0.38 0.34 0.30 0.27 0.26 0.25 0.24 0.26 0.28 0.31 0.35 0.36 0.35 0.39 0.50 0.68 0.87
0.27 0.38 0.53 0.62 0.66 0.69 0.72 0.82 0.92 0.93 0.92 0.87 0.89 0.91 0.83 0.80 0.78 0.74 0.70 0.71 0.74 0.69 0.59 0.52 0.47 0.42 0.40 0.36 0.33 0.32 0.29 0.26 0.26 0.27 0.25 0.24 0.26 0.31 0.35 0.38 0.45 0.57 0.72
0.26 0.37 0.52 0.67 0.74 0.77 0.83 0.86 0.99 1.03 0.95 0.91 0.87 0.90 0.90 0.86 0.85 0.84 0.77 0.72 0.74 0.75 0.71 0.61 0.52 0.47 0.42 0.40 0.38 0.37 0.36 0.34 0.29 0.26 0.25 0.24 0.23 0.25 0.32 0.37 0.40 0.47 0.58
0.32 0.39 0.52 0.64 0.77 0.83 0.89 0.88 0.87 0.94 0.94 0.88 0.82 0.86 0.99 0.98 0.92 0.92 0.90 0.85 0.79 0.75 0.70 0.64 0.59 0.56 0.52 0.48 0.49 0.48 0.43 0.40 0.39 0.33 0.27 0.26 0.25 0.24 0.28 0.37 0.42 0.44 0.52
0.34 0.38 0.49 0.64 0.75 0.79 0.79 0.85 0.84 0.88 0.90 0.93 0.89 0.90 0.97 1.05 1.02 0.96 0.96 0.94 0.89 0.80 0.74 0.68 0.65 0.67 0.64 0.56 0.53 0.57 0.58 0.54 0.45 0.38 0.33 0.28 0.27 0.28 0.29 0.32 0.39 0.45 0.48
0.31 0.35 0.41 0.57 0.76 0.82 0.80 0.90 0.98 1.05 1.10 1.08 1.02 0.95 0.97 1.00 0.99 0.94 0.90 0.86 0.90 0.88 0.82 0.75 0.70 0.69 0.71 0.65 0.55 0.65 0.77 0.66 0.46 0.39 0.36 0.32 0.29 0.30 0.29 0.30 0.35 0.42 0.47
0.33 0.37 0.39 0.49 0.65 0.85 0.88 0.90 0.96 1.01 1.03 1.07 1.00 0.95 0.94 1.00 1.03 0.98 0.96 0.89 0.83 0.81 0.77 0.72 0.71 0.70 0.75 0.75 0.64 0.58 0.60 0.63 0.67 0.54 0.39 0.37 0.37 0.35 0.33 0.31 0.31 0.38 0.46
0.40 0.47 0.47 0.51 0.59 0.79 0.85 0.85 0.90 0.93 0.95 1.03 1.07 1.01 0.98 1.02 1.08 1.09 1.05 1.00 0.94 0.85 0.76 0.70 0.70 0.72 0.74 0.76 0.71 0.63 0.57 0.51 0.53 0.67 0.54 0.46 0.50 0.47 0.44 0.41 0.39 0.41 0.46
0.45 0.57 0.56 0.58 0.59 0.70 0.87 0.85 0.82 0.87 0.89 0.95 1.00 1.07 1.08 1.06 1.07 1.08 1.08 1.04 0.99 0.97 0.88 0.78 0.74 0.74 0.73 0.72 0.74 0.71 0.69 0.68 0.60 0.63 0.61 0.49 0.49 0.48 0.50 0.54 0.55 0.55 0.59

GEFSSE_prec_meanprecacc_228.txt.gz
Total_Precipitation_Accumulation
0.03 0.10 0.33 0.48 0.48 0.48 0.48 0.45 0.42 0.37 0.37 0.41 0.45 0.49 0.52 0.49 0.45 0.41 0.39 0.41 0.45 0.49 0.55 0.62 0.65 0.67 0.65 0.64 0.61 0.54 0.52 0.53 0.54 0.52 0.55 0.60 0.61 0.56 0.50 0.46 0.35 0.41 0.62
0.03 0.12 0.30 0.39 0.42 0.45 0.47 0.45 0.41 0.36 0.35 0.40 0.44 0.44 0.45 0.45 0.45 0.45 0.43 0.43 0.45 0.50 0.57 0.65 0.64 0.64 0.65 0.62 0.57 0.48 0.44 0.40 0.40 0.39 0.36 0.34 0.51 0.57 0.51 0.53 0.48 0.67 0.79
0.03 0.10 0.22 0.32 0.38 0.42 0.44 0.41 0.39 0.39 0.39 0.42 0.43 0.43 0.42 0.42 0.43 0.47 0.49 0.48 0.49 0.46 0.48 0.56 0.60 0.60 0.58 0.53 0.48 0.43 0.41 0.34 0.29 0.29 0.27 0.21 0.42 0.67 0.65 0.65 0.61 0.80 0.80
0.03 0.09 0.15 0.27 0.34 0.39 0.41 0.41 0.42 0.44 0.44 0.48 0.48 0.46 0.45 0.45 0.44 0.48 0.48 0.47 0.48 0.46 0.45 0.48 0.48 0.49 0.45 0.38 0.37 0.38 0.40 0.36 0.27 0.22 0.13 0.13 0.38 0.70 0.76 0.70 0.66 0.71 0.75
0.04 0.09 0.17 0.29 0.35 0.38 0.42 0.44 0.44 0.44 0.47 0.53 0.54 0.52 0.51 0.51 0.49 0.49 0.47 0.46 0.43 0.43 0.42 0.44 0.41 0.41 0.39 0.37 0.36 0.37 0.37 0.33 0.26 0.17 0.08 0.11 0.30 0.64 0.65 0.64 0.59 0.63 0.68
0.06 0.11 0.20 0.31 0.38 0.39 0.41 0.42 0.43 0.44 0.47 0.53 0.52 0.51 0.52 0.56 0.53 0.49 0.46 0.45 0.41 0.40 0.41 0.42 0.39 0.40 0.37 0.35 0.36 0.41 0.42 0.37 0.24 0.13 0.10 0.12 0.19 0.45 0.59 0.64 0.64 0.61 0.58
0.07 0.13 0.22 0.34 0.42 0.43 0.44 0.45 0.46 0.48 0.50 0.51 0.51 0.52 0.54 0.57 0.55 0.50 0.44 0.42 0.39 0.37 0.40 0.41 0.38 0.39 0.40 0.38 0.38 0.42 0.50 0.40 0.24 0.23 0.19 0.17 0.22 0.38 0.52 0.63 0.67 0.63 0.62
0.09 0.15 0.25 0.43 0.47 0.48 0.49 0.46 0.49 0.51 0.56 0.55 0.52 0.53 0.57 0.60 0.57 0.52 0.47 0.44 0.41 0.39 0.38 0.35 0.31 0.31 0.35 0.38 0.39 0.41 0.45 0.33 0.26 0.31 0.34 0.31 0.31 0.43 0.53 0.60 0.64 0.65 0.69
0.12 0.19 0.29 0.45 0.51 0.56 0.57 0.55 0.55 0.57 0.59 0.59 0.57 0.55 0.55 0.58 0.56 0.52 0.46 0.45 0.42 0.40 0.39 0.34 0.30 0.28 0.29 0.29 0.32 0.34 0.35 0.32 0.35 0.45 0.39 0.43 0.40 0.52 0.61 0.60 0.62 0.69 0.72
0.17 0.24 0.34 0.45 0.53 0.58 0.61 0.59 0.59 0.57 0.59 0.62 0.60 0.58 0.54 0.53 0.56 0.53 0.44 0.43 0.43 0.42 0.42 0.39 0.35 0.32 0.30 0.28 0.26 0.28 0.30 0.28 0.29 0.36 0.46 0.39 0.41 0.63 0.77 0.72 0.65 0.68 0.74
0.25 0.31 0.41 0.49 0.58 0.68 0.70 0.63 0.66 0.67 0.66 0.68 0.65 0.62 0.62 0.56 0.54 0.51 0.44 0.40 0.41 0.43 0.43 0.41 0.39 0.37 0.35 0.28 0.25 0.26 0.25 0.20 0.24 0.34 0.39 0.35 0.45 0.69 0.92 0.87 0.80 0.74 0.75
0.27 0.34 0.43 0.52 0.63 0.76 0.82 0.80 0.83 0.77 0.70 0.67 0.60 0.60 0.61 0.61 0.58 0.51 0.46 0.43 0.42 0.45 0.48 0.47 0.43 0.41 0.37 0.28 0.25 0.28 0.20 0.15 0.16 0.17 0.19 0.24 0.36 0.58 0.90 1.00 0.96 0.91 0.88
0.27 0.36 0.46 0.57 0.69 0.79 0.85 0.86 0.83 0.81 0.74 0.70 0.63 0.60 0.60 0.64 0.60 0.56 0.54 0.54 0.51 0.47 0.48 0.51 0.54 0.49 0.45 0.37 0.32 0.30 0.23 0.20 0.18 0.14 0.13 0.18 0.24 0.40 0.65 0.85 1.04 1.07 1.09
0.29 0.39 0.50 0.61 0.74 0.85 0.89 0.91 0.85 0.76 0.69 0.64 0.65 0.64 0.63 0.60 0.55 0.51 0.46 0.44 0.45 0.42 0.43 0.46 0.49 0.51 0.53 0.50 0.41 0.34 0.33 0.31 0.25 0.21 0.17 0.20 0.22 0.31 0.52 0.71 0.91 1.07 1.17
0.27 0.40 0.51 0.62 0.71 0.84 0.96 0.93 0.89 0.81 0.70 0.65 0.66 0.65 0.62 0.58 0.52 0.49 0.46 0.45 0.43 0.39 0.37 0.39 0.38 0.37 0.38 0.42 0.42 0.38 0.38 0.34 0.31 0.30 0.27 0.28 0.26 0.27 0.43 0.61 0.76 0.97 1.16
0.28 0.38 0.51 0.63 0.70 0.80 0.90 0.92 0.90 0.86 0.83 0.79 0.69 0.62 0.62 0.62 0.57 0.51 0.47 0.44 0.44 0.43 0.41 0.39 0.38 0.35 0.31 0.28 0.27 0.27 0.32 0.34 0.35 0.35 0.31 0.31 0.30 0.28 0.34 0.51 0.68 0.87 1.12
0.31 0.41 0.53 0.60 0.72 0.77 0.82 0.92 0.94 0.92 0.89 0.87 0.79 0.73 0.71 0.69 0.67 0.61 0.56 0.49 0.44 0.44 0.43 0.44 0.42 0.38 0.34 0.29 0.25 0.23 0.23 0.25 0.28 0.33 0.32 0.32 0.34 0.32 0.32 0.41 0.58 0.75 0.98
0.34 0.43 0.57 0.61 0.69 0.74 0.78 0.89 0.92 0.96 0.92 0.93 0.94 0.89 0.82 0.79 0.76 0.72 0.69 0.65 0.60 0.54 0.50 0.47 0.44 0.43 0.39 0.34 0.30 0.27 0.26 0.25 0.24 0.26 0.28 0.31 0.35 0.36 0.35 0.40 0.50 0.69 0.89
0.29 0.40 0.55 0.64 0.70 0.74 0.78 0.87 0.97 0.99 0.99 0.97 1.00 1.01 0.94 0.91 0.87 0.82 0.77 0.76 0.78 0.74 0.63 0.55 0.49 0.43 0.41 0.37 0.34 0.32 0.29 0.27 0.27 0.27 0.25 0.24 0.26 0.31 0.35 0.38 0.45 0.58 0.72
0.29 0.40 0.55 0.70 0.78 0.82 0.89 0.92 1.04 1.09 1.02 1.00 0.97 1.01 1.01 0.98 0.96 0.95 0.87 0.80 0.80 0.80 0.75 0.64 0.55 0.49 0.44 0.42 0.39 0.37 0.37 0.34 0.29 0.26 0.26 0.25 0.23 0.25 0.32 0.37 0.40 0.47 0.59
0.36 0.44 0.56 0.68 0.81 0.86 0.93 0.93 0.92 0.98 0.98 0.93 0.88 0.94 1.08 1.08 1.02 1.03 1.01 0.96 0.89 0.83 0.76 0.70 0.63 0.60 0.55 0.49 0.50 0.49 0.44 0.41 0.39 0.33 0.28 0.27 0.26 0.25 0.28 0.37 0.42 0.44 0.52
0.36 0.42 0.54 0.68 0.79 0.82 0.82 0.89 0.89 0.93 0.95 0.96 0.92 0.94 1.02 1.12 1.10 1.06 1.06 1.06 1.01 0.91 0.84 0.77 0.72 0.73 0.69 0.60 0.56 0.61 0.61 0.56 0.46 0.39 0.34 0.29 0.28 0.29 0.30 0.32 0.40 0.45 0.48
0.33 0.38 0.45 0.61 0.80 0.86 0.84 0.95 1.02 1.09 1.15 1.13 1.05 0.98 1.00 1.05 1.05 1.02 0.97 0.94 0.99 0.98 0.91 0.81 0.76 0.75 0.77 0.70 0.59 0.70 0.81 0.70 0.49 0.40 0.37 0.32 0.29 0.30 0.30 0.31 0.35 0.43 0.47
0.34 0.39 0.42 0.53 0.70 0.91 0.93 0.94 1.00 1.04 1.05 1.09 1.02 0.97 0.97 1.03 1.07 1.02 1.00 0.94 0.90 0.87 0.82 0.77 0.74 0.73 0.78 0.78 0.67 0.60 0.62 0.65 0.69 0.55 0.40 0.37 0.38 0.35 0.33 0.31 0.32 0.38 0.46
0.40 0.48 0.48 0.54 0.63 0.84 0.90 0.89 0.94 0.98 0.98 1.06 1.10 1.03 1.01 1.05 1.11 1.12 1.07 1.02 0.98 0.89 0.79 0.73 0.72 0.74 0.76 0.77 0.72 0.64 0.58 0.52 0.54 0.68 0.54 0.46 0.50 0.47 0.45 0.41 0.39 0.41 0.47
0.46 0.57 0.57 0.60 0.62 0.75 0.91 0.90 0.86 0.91 0.93 0.98 1.03 1.10 1.10 1.09 1.10 1.11 1.11 1.06 1.00 0.99 0.92 0.82 0.77 0.77 0.75 0.74 0.75 0.71 0.69 0.69 0.60 0.63 0.62 0.50 0.49 0.48 0.50 0.55 0.55 0.56 0.59

GEFSSE_prec_meanprecacc_234.txt.gz
Total_Precipitation_Accumulation
0.03 0.11 0.35 0.50 0.50 0.50 0.49 0.47 0.43 0.38 0.38 0.42 0.46 0.50 0.53 0.49 0.45 0.41 0.39 0.41 0.45 0.49 0.55 0.63 0.65 0.68 0.66 0.65 0.61 0.55 0.53 0.54 0.54 0.52 0.56 0.61 0.62 0.57 0.50 0.46 0.35 0.42 0.64
0.03 0.12 0.32 0.42 0.44 0.48 0.49 0.46 0.42 0.37 0.36 0.40 0.44 0.45 0.46 0.46 0.45 0.46 0.43 0.44 0.45 0.51 0.58 0.65 0.65 0.64 0.65 0.63 0.57 0.48 0.44 0.40 0.40 0.39 0.36 0.35 0.52 0.58 0.51 0.54 0.49 0.68 0.80
0.03 0.11 0.24 0.36 0.41 0.44 0.46 0.43 0.40 0.40 0.40 0.43 0.44 0.44 0.43 0.43 0.44 0.48 0.49 0.49 0.49 0.46 0.49 0.56 0.61 0.60 0.58 0.53 0.48 0.43 0.41 0.35 0.29 0.29 0.28 0.22 0.42 0.68 0.66 0.66 0.62 0.81 0.81
0.03 0.10 0.17 0.30 0.37 0.42 0.44 0.43 0.44 0.46 0.45 0.50 0.50 0.47 0.46 0.45 0.45 0.48 0.49 0.48 0.48 0.46 0.46 0.48 0.48 0.50 0.45 0.38 0.38 0.38 0.40 0.36 0.27 0.22 0.13 0.13 0.38 0.71 0.77 0.71 0.67 0.73 0.77
0.05 0.10 0.21 0.33 0.39 0.41 0.45 0.47 0.48 0.47 0.50 0.56 0.56 0.53 0.52 0.52 0.50 0.49 0.47 0.46 0.43 0.43 0.43 0.45 0.41 0.41 0.39 0.37 0.36 0.37 0.37 0.33 0.26 0.17 0.08 0.11 0.30 0.65 0.66 0.64 0.60 0.64 0.69
0.06 0.12 0.23 0.35 0.43 0.44 0.45 0.46 0.47 0.47 0.50 0.55 0.53 0.53 0.53 0.57 0.53 0.49 0.46 0.45 0.41 0.40 0.42 0.42 0.40 0.40 0.38 0.35 0.37 0.42 0.42 0.37 0.24 0.13 0.10 0.12 0.19 0.46 0.60 0.65 0.65 0.63 0.59
0.09 0.14 0.25 0.40 0.49 0.50 0.49 0.49 0.51 0.52 0.54 0.53 0.53 0.53 0.56 0.58 0.56 0.50 0.44 0.42 0.40 0.38 0.40 0.41 0.38 0.39 0.40 0.38 0.38 0.43 0.50 0.40 0.24 0.23 0.19 0.17 0.22 0.39 0.53 0.65 0.68 0.64 0.63
0.11 0.17 0.28 0.49 0.56 0.56 0.57 0.52 0.54 0.57 0.61 0.59 0.55 0.55 0.58 0.61 0.57 0.52 0.47 0.44 0.41 0.39 0.39 0.35 0.32 0.32 0.35 0.38 0.39 0.41 0.45 0.33 0.26 0.31 0.34 0.31 0.32 0.44 0.54 0.61 0.65 0.67 0.70
0.14 0.22 0.34 0.51 0.60 0.66 0.66 0.61 0.60 0.62 0.64 0.63 0.59 0.57 0.56 0.59 0.57 0.52 0.46 0.45 0.42 0.40 0.39 0.35 0.30 0.28 0.29 0.30 0.32 0.34 0.35 0.32 0.35 0.45 0.39 0.43 0.40 0.53 0.62 0.61 0.63 0.70 0.73
0.20 0.28 0.39 0.51 0.60 0.66 0.70 0.68 0.66 0.64 0.65 0.66 0.63 0.60 0.55 0.54 0.57 0.53 0.45 0.43 0.43 0.42 0.42 0.39 0.36 0.32 0.30 0.28 0.26 0.28 0.30 0.28 0.29 0.36 0.46 0.39 0.41 0.63 0.78 0.73 0.66 0.69 0.75
0.29 0.36 0.46 0.54 0.64 0.75 0.78 0.71 0.73 0.72 0.72 0.74 0.69 0.65 0.64 0.57 0.55 0.52 0.44 0.40 0.42 0.43 0.43 0.41 0.39 0.38 0.35 0.28 0.25 0.26 0.25 0.20 0.24 0.34 0.39 0.35 0.45 0.69 0.93 0.88 0.81 0.75 0.76
0.30 0.38 0.48 0.58 0.69 0.85 0.92 0.90 0.90 0.83 0.75 0.73 0.65 0.64 0.64 0.62 0.59 0.52 0.47 0.44 0.43 0.46 0.48 0.47 0.43 0.41 0.37 0.28 0.25 0.28 0.20 0.15 0.16 0.17 0.19 0.24 0.36 0.59 0.91 1.01 0.97 0.92 0.89
0.29 0.39 0.49 0.61 0.75 0.88 0.94 0.96 0.92 0.87 0.79 0.76 0.69 0.64 0.64 0.67 0.62 0.57 0.55 0.55 0.52 0.48 0.49 0.52 0.54 0.49 0.45 0.37 0.32 0.30 0.23 0.20 0.18 0.14 0.13 0.18 0.24 0.41 0.66 0.86 1.06 1.08 1.11
0.32 0.42 0.53 0.64 0.79 0.92 0.99 1.02 0.95 0.84 0.75 0.70 0.71 0.69 0.68 0.63 0.57 0.52 0.47 0.44 0.45 0.43 0.43 0.47 0.49 0.51 0.53 0.50 0.41 0.34 0.33 0.31 0.25 0.21 0.17 0.20 0.22 0.31 0.53 0.72 0.92 1.09 1.20
0.30 0.43 0.54 0.65 0.75 0.91 1.05 1.05 1.03 0.92 0.77 0.72 0.72 0.71 0.66 0.62 0.55 0.51 0.47 0.47 0.44 0.40 0.38 0.40 0.39 0.37 0.38 0.42 0.42 0.38 0.38 0.34 0.31 0.30 0.27 0.28 0.26 0.27 0.43 0.62 0.77 0.99 1.19
0.31 0.42 0.54 0.67 0.74 0.85 0.98 1.02 1.02 1.01 0.94 0.86 0.76 0.69 0.67 0.67 0.60 0.53 0.49 0.46 0.45 0.44 0.42 0.40 0.38 0.35 0.31 0.28 0.27 0.27 0.32 0.34 0.35 0.35 0.31 0.31 0.30 0.28 0.34 0.51 0.69 0.90 1.15
0.34 0.44 0.56 0.64 0.76 0.82 0.89 1.00 1.04 1.06 1.02 0.98 0.86 0.79 0.78 0.74 0.71 0.65 0.58 0.51 0.46 0.45 0.44 0.45 0.42 0.39 0.34 0.29 0.26 0.24 0.23 0.25 0.29 0.33 0.32 0.32 0.34 0.32 0.32 0.42 0.59 0.77 1.02
0.38 0.47 0.61 0.65 0.74 0.80 0.84 0.96 1.00 1.06 1.09 1.09 1.06 0.97 0.89 0.86 0.82 0.77 0.74 0.69 0.63 0.56 0.51 0.49 0.45 0.44 0.40 0.35 0.30 0.27 0.26 0.25 0.24 0.26 0.28 0.31 0.35 0.36 0.35 0.40 0.50 0.70 0.91
0.32 0.43 0.59 0.68 0.74 0.79 0.84 0.93 1.03 1.07 1.11 1.16 1.20 1.17 1.03 0.98 0.94 0.89 0.84 0.82 0.84 0.77 0.65 0.56 0.50 0.45 0.43 0.38 0.35 0.33 0.30 0.27 0.27 0.28 0.25 0.24 0.26 0.31 0.36 0.39 0.46 0.58 0.73
0.32 0.44 0.58 0.74 0.84 0.89 0.96 0.99 1.10 1.16 1.10 1.10 1.13 1.19 1.17 1.10 1.05 1.03 0.94 0.87 0.86 0.86 0.79 0.66 0.56 0.51 0.46 0.44 0.41 0.39 0.38 0.35 0.30 0.27 0.26 0.25 0.24 0.26 0.32 0.38 0.41 0.48 0.59
0.39 0.47 0.60 0.73 0.86 0.92 0.99 1.01 0.99 1.05 1.05 1.01 0.96 1.06 1.21 1.24 1.18 1.15 1.09 1.05 0.98 0.91 0.83 0.74 0.67 0.63 0.57 0.51 0.53 0.52 0.46 0.42 0.41 0.34 0.29 0.27 0.26 0.25 0.28 0.37 0.42 0.44 0.52
0.39 0.45 0.57 0.73 0.85 0.87 0.87 0.96 0.98 1.03 1.04 1.05 0.99 1.00 1.11 1.26 1.34 1.32 1.25 1.21 1.14 1.04 0.97 0.87 0.79 0.79 0.75 0.64 0.60 0.65 0.64 0.59 0.49 0.40 0.35 0.30 0.29 0.30 0.30 0.32 0.40 0.46 0.48
0.34 0.40 0.47 0.64 0.84 0.91 0.91 1.02 1.11 1.21 1.27 1.24 1.14 1.04 1.06 1.11 1.15 1.18 1.17 1.15 1.17 1.13 1.05 0.96 0.87 0.85 0.86 0.77 0.65 0.76 0.87 0.75 0.53 0.43 0.40 0.35 0.31 0.31 0.30 0.31 0.35 0.43 0.47
0.35 0.41 0.44 0.55 0.73 0.95 0.98 0.99 1.06 1.13 1.18 1.20 1.11 1.03 1.02 1.09 1.13 1.11 1.11 1.09 1.04 0.99 0.93 0.89 0.85 0.81 0.86 0.85 0.73 0.65 0.66 0.68 0.72 0.58 0.41 0.39 0.38 0.36 0.33 0.31 0.32 0.38 0.46
0.42 0.50 0.50 0.57 0.67 0.87 0.93 0.93 0.99 1.03 1.07 1.18 1.20 1.10 1.07 1.11 1.17 1.18 1.14 1.11 1.08 0.99 0.89 0.83 0.82 0.83 0.82 0.81 0.74 0.66 0.59 0.52 0.54 0.69 0.55 0.46 0.50 0.47 0.45 0.41 0.39 0.41 0.47
0.47 0.60 0.60 0.64 0.66 0.78 0.95 0.93 0.89 0.95 0.98 1.06 1.17 1.22 1.18 1.15 1.15 1.16 1.15 1.11 1.06 1.05 0.99 0.89 0.84 0.85 0.82 0.78 0.77 0.73 0.70 0.70 0.60 0.64 0.62 0.50 0.49 0.48 0.50 0.55 0.55 0.56 0.60

GEFSSE_prec_meanprecacc_240.txt.gz
Total_Precipitation_Accumulation
0.04 0.12 0.36 0.51 0.51 0.52 0.51 0.49 0.45 0.41 0.40 0.43 0.47 0.51 0.53 0.50 0.46 0.42 0.40 0.42 0.46 0.50 0.57 0.64 0.67 0.69 0.67 0.66 0.62 0.55 0.54 0.54 0.55 0.53 0.56 0.61 0.62 0.57 0.51 0.47 0.36 0.42 0.65
0.03 0.13 0.33 0.43 0.46 0.49 0.51 0.48 0.44 0.39 0.38 0.42 0.46 0.46 0.47 0.46 0.46 0.46 0.44 0.44 0.46 0.51 0.59 0.66 0.65 0.65 0.66 0.64 0.58 0.48 0.44 0.40 0.40 0.39 0.36 0.35 0.53 0.59 0.52 0.54 0.49 0.69 0.80
0.03 0.11 0.25 0.38 0.43 0.47 0.48 0.45 0.43 0.42 0.42 0.45 0.46 0.46 0.44 0.43 0.44 0.48 0.49 0.49 0.49 0.46 0.49 0.57 0.61 0.61 0.59 0.53 0.49 0.43 0.41 0.35 0.29 0.29 0.28 0.22 0.43 0.69 0.67 0.67 0.63 0.82 0.81
0.04 0.11 0.19 0.33 0.41 0.44 0.46 0.46 0.47 0.49 0.48 0.54 0.52 0.49 0.47 0.46 0.45 0.48 0.49 0.48 0.49 0.46 0.46 0.49 0.49 0.50 0.46 0.38 0.38 0.39 0.40 0.36 0.27 0.22 0.13 0.13 0.39 0.72 0.78 0.72 0.68 0.74 0.78
0.06 0.12 0.24 0.37 0.43 0.45 0.49 0.50 0.51 0.51 0.54 0.59 0.59 0.55 0.53 0.53 0.50 0.49 0.47 0.46 0.44 0.43 0.43 0.45 0.42 0.42 0.40 0.37 0.37 0.37 0.37 0.33 0.26 0.17 0.08 0.11 0.31 0.66 0.67 0.65 0.61 0.65 0.70
0.08 0.14 0.27 0.39 0.49 0.49 0.50 0.50 0.51 0.52 0.54 0.59 0.56 0.55 0.56 0.59 0.54 0.50 0.47 0.45 0.42 0.40 0.42 0.42 0.40 0.41 0.38 0.35 0.37 0.42 0.42 0.37 0.24 0.13 0.10 0.12 0.20 0.47 0.60 0.66 0.66 0.63 0.60
0.10 0.17 0.29 0.45 0.55 0.58 0.56 0.56 0.57 0.58 0.59 0.58 0.57 0.56 0.58 0.60 0.57 0.51 0.45 0.42 0.40 0.38 0.41 0.42 0.39 0.40 0.41 0.38 0.38 0.43 0.50 0.40 0.24 0.23 0.19 0.17 0.22 0.40 0.54 0.66 0.68 0.64 0.64
0.12 0.19 0.32 0.55 0.63 0.65 0.67 0.60 0.61 0.64 0.68 0.66 0.60 0.58 0.61 0.63 0.59 0.53 0.48 0.44 0.42 0.39 0.39 0.36 0.32 0.32 0.35 0.38 0.40 0.41 0.45 0.33 0.26 0.31 0.34 0.31 0.32 0.44 0.55 0.61 0.66 0.67 0.71
0.16 0.24 0.37 0.56 0.66 0.76 0.78 0.72 0.69 0.69 0.71 0.69 0.64 0.60 0.59 0.62 0.59 0.54 0.47 0.46 0.43 0.41 0.40 0.35 0.30 0.28 0.29 0.30 0.32 0.35 0.35 0.32 0.35 0.45 0.39 0.43 0.40 0.54 0.63 0.61 0.63 0.70 0.74
0.22 0.31 0.42 0.55 0.65 0.74 0.82 0.82 0.78 0.73 0.73 0.73 0.68 0.64 0.58 0.57 0.60 0.56 0.47 0.44 0.44 0.43 0.43 0.40 0.36 0.32 0.30 0.28 0.26 0.28 0.30 0.28 0.29 0.36 0.46 0.40 0.42 0.64 0.79 0.74 0.67 0.70 0.75
0.32 0.40 0.50 0.58 0.68 0.80 0.85 0.83 0.88 0.85 0.82 0.83 0.76 0.69 0.67 0.61 0.59 0.55 0.47 0.42 0.43 0.45 0.44 0.42 0.40 0.38 0.35 0.28 0.25 0.26 0.25 0.20 0.24 0.34 0.39 0.35 0.46 0.70 0.94 0.89 0.82 0.76 0.77
0.33 0.43 0.53 0.63 0.73 0.88 0.96 0.98 1.05 0.97 0.87 0.84 0.72 0.68 0.67 0.65 0.61 0.54 0.48 0.45 0.45 0.47 0.50 0.48 0.44 0.41 0.37 0.28 0.25 0.28 0.20 0.15 0.16 0.17 0.19 0.24 0.36 0.59 0.92 1.01 0.98 0.93 0.90
0.31 0.43 0.54 0.65 0.79 0.91 0.98 1.00 1.01 1.01 0.92 0.88 0.81 0.71 0.68 0.69 0.64 0.59 0.57 0.56 0.54 0.50 0.51 0.53 0.55 0.50 0.45 0.38 0.32 0.30 0.23 0.20 0.18 0.14 0.13 0.18 0.24 0.41 0.66 0.87 1.06 1.09 1.12
0.35 0.46 0.58 0.69 0.83 0.95 1.02 1.06 0.99 0.93 0.88 0.83 0.85 0.81 0.74 0.68 0.60 0.55 0.49 0.46 0.47 0.45 0.45 0.48 0.51 0.52 0.54 0.50 0.41 0.34 0.33 0.31 0.26 0.21 0.17 0.20 0.22 0.31 0.53 0.72 0.93 1.10 1.21
0.33 0.48 0.59 0.71 0.80 0.95 1.10 1.10 1.07 0.97 0.86 0.84 0.85 0.83 0.77 0.68 0.59 0.54 0.50 0.49 0.45 0.41 0.39 0.41 0.40 0.38 0.39 0.43 0.43 0.39 0.38 0.34 0.31 0.30 0.27 0.28 0.26 0.27 0.43 0.62 0.78 1.01 1.22
0.36 0.47 0.59 0.72 0.80 0.90 1.03 1.08 1.08 1.06 1.02 0.98 0.89 0.82 0.80 0.76 0.65 0.56 0.52 0.49 0.47 0.46 0.44 0.42 0.40 0.37 0.32 0.30 0.28 0.28 0.32 0.34 0.35 0.35 0.31 0.31 0.30 0.28 0.34 0.52 0.70 0.92 1.18
0.41 0.50 0.61 0.71 0.83 0.87 0.93 1.07 1.12 1.13 1.10 1.06 0.96 0.90 0.88 0.84 0.79 0.69 0.62 0.55 0.50 0.47 0.46 0.47 0.45 0.42 0.38 0.32 0.28 0.25 0.24 0.25 0.29 0.33 0.33 0.32 0.34 0.32 0.32 0.42 0.59 0.78 1.04
0.46 0.56 0.69 0.73 0.82 0.86 0.88 1.01 1.07 1.14 1.18 1.18 1.14 1.05 0.97 0.94 0.90 0.84 0.78 0.74 0.68 0.61 0.55 0.50 0.47 0.45 0.42 0.37 0.33 0.29 0.28 0.26 0.25 0.26 0.28 0.31 0.35 0.36 0.35 0.40 0.51 0.71 0.93
0.40 0.53 0.69 0.77 0.82 0.86 0.90 0.98 1.10 1.16 1.19 1.27 1.32 1.26 1.11 1.05 1.02 0.97 0.91 0.88 0.89 0.83 0.71 0.59 0.52 0.46 0.44 0.40 0.37 0.35 0.32 0.29 0.29 0.29 0.26 0.24 0.26 0.31 0.36 0.39 0.46 0.59 0.74
0.40 0.54 0.70 0.85 0.93 0.95 1.01 1.04 1.15 1.24 1.18 1.18 1.26 1.32 1.29 1.21 1.13 1.11 1.03 0.95 0.94 0.94 0.89 0.74 0.59 0.52 0.47 0.45 0.42 0.41 0.40 0.38 0.33 0.30 0.28 0.26 0.24 0.26 0.33 0.38 0.41 0.48 0.59
0.48 0.54 0.68 0.83 0.95 1.00 1.04 1.04 1.02 1.10 1.14 1.08 1.04 1.20 1.38 1.41 1.35 1.29 1.21 1.15 1.08 1.00 0.91 0.82 0.72 0.66 0.58 0.52 0.54 0.53 0.47 0.43 0.42 0.36 0.31 0.28 0.27 0.26 0.29 0.37 0.43 0.44 0.52
0.46 0.50 0.63 0.80 0.92 0.93 0.92 0.99 1.02 1.07 1.12 1.15 1.09 1.10 1.25 1.42 1.51 1.52 1.45 1.35 1.25 1.16 1.07 0.95 0.85 0.82 0.77 0.66 0.62 0.66 0.65 0.60 0.50 0.41 0.36 0.30 0.30 0.30 0.30 0.33 0.40 0.46 0.49
0.40 0.45 0.51 0.69 0.90 0.97 0.97 1.07 1.16 1.27 1.32 1.31 1.21 1.12 1.15 1.22 1.28 1.32 1.31 1.27 1.32 1.27 1.18 1.07 0.95 0.90 0.89 0.79 0.67 0.78 0.89 0.76 0.54 0.44 0.41 0.36 0.32 0.32 0.31 0.31 0.36 0.43 0.48
0.40 0.45 0.48 0.61 0.79 1.01 1.04 1.04 1.10 1.18 1.23 1.25 1.17 1.11 1.11 1.19 1.24 1.20 1.22 1.19 1.14 1.14 1.09 1.02 0.96 0.88 0.91 0.90 0.77 0.69 0.69 0.70 0.74 0.60 0.43 0.40 0.40 0.37 0.34 0.32 0.32 0.39 0.47
0.46 0.54 0.54 0.62 0.73 0.92 0.98 0.98 1.03 1.09 1.14 1.25 1.28 1.18 1.16 1.22 1.29 1.30 1.24 1.20 1.18 1.09 0.99 0.94 0.94 0.94 0.91 0.88 0.81 0.73 0.65 0.57 0.58 0.71 0.57 0.48 0.52 0.49 0.46 0.42 0.40 0.42 0.47
0.51 0.64 0.64 0.68 0.71 0.83 0.99 0.97 0.93 1.00 1.04 1.13 1.26 1.33 1.29 1.27 1.28 1.30 1.30 1.22 1.17 1.16 1.08 0.97 0.92 0.94 0.91 0.87 0.85 0.79 0.76 0.74 0.64 0.66 0.64 0.51 0.50 0.49 0.51 0.56 0.56 0.56 0.60

GEFSSE_prec_meanprecacc_246.txt.gz
Total_Precipitation_Accumulation
0.05 0.13 0.37 0.52 0.54 0.54 0.55 0.54 0.50 0.45 0.42 0.45 0.51 0.54 0.55 0.51 0.47 0.43 0.41 0.43 0.48 0.52 0.59 0.66 0.68 0.70 0.68 0.67 0.63 0.56 0.54 0.55 0.55 0.53 0.56 0.61 0.63 0.58 0.51 0.48 0.37 0.43 0.66
0.04 0.14 0.34 0.45 0.49 0.52 0.54 0.52 0.48 0.43 0.42 0.44 0.50 0.49 0.48 0.48 0.47 0.47 0.45 0.45 0.47 0.53 0.60 0.68 0.67 0.66 0.67 0.64 0.58 0.49 0.45 0.41 0.40 0.39 0.37 0.35 0.53 0.60 0.52 0.55 0.50 0.69 0.81
0.03 0.12 0.27 0.39 0.46 0.50 0.52 0.49 0.47 0.47 0.47 0.49 0.50 0.49 0.45 0.44 0.45 0.49 0.50 0.50 0.50 0.48 0.50 0.58 0.63 0.63 0.60 0.54 0.49 0.43 0.42 0.35 0.30 0.29 0.28 0.22 0.43 0.70 0.68 0.67 0.63 0.83 0.82
0.05 0.12 0.21 0.35 0.44 0.49 0.51 0.51 0.52 0.53 0.54 0.59 0.58 0.53 0.49 0.47 0.46 0.49 0.50 0.48 0.49 0.47 0.47 0.50 0.50 0.51 0.46 0.39 0.38 0.39 0.41 0.36 0.27 0.23 0.14 0.14 0.39 0.73 0.79 0.73 0.69 0.74 0.78
0.06 0.13 0.25 0.39 0.46 0.49 0.54 0.56 0.57 0.57 0.61 0.66 0.66 0.60 0.56 0.55 0.52 0.50 0.48 0.47 0.44 0.44 0.44 0.46 0.42 0.42 0.40 0.38 0.37 0.37 0.38 0.33 0.26 0.18 0.09 0.12 0.32 0.67 0.68 0.66 0.61 0.65 0.70
0.08 0.15 0.29 0.42 0.52 0.53 0.55 0.56 0.59 0.60 0.63 0.67 0.64 0.62 0.61 0.62 0.56 0.51 0.48 0.46 0.42 0.41 0.43 0.43 0.41 0.41 0.39 0.36 0.37 0.42 0.42 0.37 0.24 0.13 0.10 0.12 0.20 0.47 0.61 0.67 0.67 0.64 0.60
0.11 0.18 0.30 0.48 0.59 0.63 0.63 0.63 0.66 0.68 0.69 0.67 0.66 0.64 0.65 0.65 0.60 0.54 0.46 0.43 0.40 0.38 0.41 0.42 0.39 0.40 0.41 0.38 0.38 0.43 0.50 0.40 0.24 0.23 0.19 0.17 0.23 0.40 0.55 0.66 0.69 0.65 0.64
0.13 0.21 0.34 0.58 0.69 0.72 0.75 0.69 0.70 0.75 0.78 0.75 0.69 0.67 0.68 0.69 0.63 0.56 0.50 0.45 0.42 0.40 0.40 0.36 0.32 0.32 0.36 0.38 0.40 0.41 0.45 0.34 0.26 0.31 0.34 0.32 0.33 0.45 0.56 0.62 0.66 0.68 0.71
0.17 0.26 0.39 0.60 0.73 0.84 0.87 0.81 0.78 0.77 0.81 0.80 0.75 0.70 0.68 0.68 0.64 0.58 0.50 0.47 0.44 0.41 0.40 0.36 0.31 0.29 0.29 0.30 0.32 0.35 0.35 0.32 0.36 0.46 0.39 0.44 0.41 0.54 0.64 0.62 0.64 0.71 0.75
0.23 0.33 0.45 0.59 0.72 0.83 0.92 0.90 0.87 0.82 0.81 0.83 0.79 0.75 0.70 0.69 0.69 0.61 0.50 0.46 0.45 0.44 0.43 0.41 0.37 0.33 0.31 0.28 0.26 0.28 0.30 0.28 0.29 0.37 0.46 0.40 0.42 0.65 0.80 0.74 0.68 0.71 0.76
0.33 0.42 0.53 0.62 0.75 0.88 0.94 0.91 0.96 0.94 0.92 0.92 0.86 0.80 0.79 0.75 0.73 0.65 0.51 0.45 0.45 0.46 0.46 0.43 0.41 0.40 0.36 0.28 0.25 0.26 0.25 0.20 0.24 0.35 0.39 0.35 0.46 0.71 0.94 0.90 0.83 0.76 0.77
0.35 0.46 0.57 0.67 0.77 0.95 1.03 1.05 1.11 1.05 0.97 0.96 0.83 0.80 0.79 0.78 0.78 0.67 0.56 0.50 0.48 0.48 0.51 0.50 0.47 0.44 0.39 0.29 0.25 0.28 0.21 0.15 0.16 0.17 0.19 0.24 0.36 0.60 0.93 1.02 0.98 0.93 0.91
0.36 0.49 0.59 0.70 0.84 0.97 1.04 1.06 1.07 1.09 1.01 0.99 0.93 0.82 0.80 0.83 0.79 0.75 0.67 0.62 0.58 0.52 0.52 0.55 0.59 0.53 0.47 0.39 0.32 0.31 0.23 0.21 0.19 0.15 0.13 0.18 0.25 0.42 0.67 0.88 1.07 1.10 1.13
0.43 0.55 0.65 0.76 0.90 1.01 1.08 1.13 1.06 0.99 0.96 0.90 0.94 0.94 0.89 0.84 0.76 0.70 0.62 0.53 0.51 0.47 0.47 0.50 0.52 0.54 0.57 0.53 0.43 0.36 0.34 0.32 0.26 0.22 0.18 0.21 0.22 0.32 0.54 0.73 0.94 1.11 1.23
0.41 0.56 0.67 0.79 0.87 1.02 1.16 1.18 1.15 1.03 0.94 0.92 0.94 0.93 0.91 0.86 0.78 0.71 0.63 0.57 0.50 0.44 0.41 0.43 0.42 0.40 0.42 0.45 0.45 0.41 0.40 0.36 0.32 0.31 0.28 0.28 0.26 0.27 0.44 0.63 0.79 1.03 1.23
0.42 0.54 0.68 0.81 0.89 1.00 1.11 1.15 1.17 1.15 1.11 1.09 0.99 0.90 0.90 0.92 0.85 0.75 0.69 0.61 0.55 0.51 0.48 0.45 0.42 0.39 0.35 0.32 0.30 0.30 0.35 0.36 0.37 0.37 0.33 0.32 0.30 0.28 0.35 0.52 0.71 0.93 1.19
0.47 0.57 0.69 0.81 0.94 0.98 1.03 1.16 1.22 1.23 1.20 1.20 1.07 1.01 0.98 0.96 0.95 0.88 0.79 0.69 0.59 0.54 0.52 0.51 0.48 0.44 0.40 0.35 0.30 0.27 0.27 0.28 0.32 0.35 0.35 0.34 0.35 0.33 0.32 0.43 0.60 0.79 1.05
0.52 0.64 0.79 0.83 0.91 0.95 0.97 1.11 1.18 1.24 1.29 1.32 1.27 1.16 1.09 1.03 1.00 0.96 0.91 0.86 0.80 0.70 0.61 0.55 0.50 0.47 0.44 0.39 0.35 0.30 0.28 0.27 0.26 0.27 0.29 0.32 0.36 0.36 0.36 0.40 0.51 0.71 0.93
0.47 0.61 0.80 0.88 0.92 0.97 1.01 1.09 1.21 1.27 1.30 1.40 1.46 1.38 1.24 1.17 1.11 1.06 1.01 0.97 0.99 0.95 0.80 0.66 0.55 0.49 0.46 0.42 0.39 0.37 0.33 0.30 0.30 0.30 0.27 0.26 0.27 0.32 0.36 0.39 0.46 0.59 0.75
0.48 0.62 0.81 0.96 1.04 1.07 1.14 1.14 1.25 1.35 1.29 1.29 1.38 1.43 1.40 1.34 1.25 1.21 1.12 1.02 1.02 1.04 1.00 0.85 0.66 0.55 0.50 0.47 0.45 0.43 0.42 0.39 0.34 0.31 0.30 0.28 0.26 0.27 0.33 0.38 0.41 0.48 0.60
0.56 0.63 0.77 0.94 1.08 1.13 1.18 1.15 1.10 1.17 1.22 1.18 1.14 1.30 1.46 1.51 1.49 1.42 1.29 1.22 1.14 1.07 1.01 0.95 0.84 0.71 0.62 0.55 0.57 0.55 0.50 0.45 0.44 0.38 0.32 0.29 0.28 0.27 0.30 0.38 0.43 0.44 0.53
0.56 0.60 0.71 0.89 1.02 1.04 1.05 1.11 1.09 1.12 1.16 1.21 1.17 1.19 1.34 1.50 1.63 1.69 1.58 1.43 1.31 1.21 1.14 1.06 0.98 0.94 0.82 0.69 0.64 0.69 0.68 0.62 0.51 0.42 0.37 0.31 0.30 0.30 0.31 0.33 0.40 0.46 0.49
0.53 0.56 0.59 0.78 1.01 1.07 1.08 1.19 1.23 1.32 1.36 1.35 1.28 1.19 1.22 1.30 1.37 1.46 1.51 1.42 1.41 1.34 1.25 1.15 1.06 1.03 0.99 0.84 0.70 0.80 0.91 0.78 0.56 0.46 0.42 0.37 0.33 0.32 0.31 0.32 0.36 0.43 0.48
0.50 0.56 0.57 0.68 0.89 1.13 1.14 1.15 1.18 1.23 1.27 1.28 1.22 1.16 1.16 1.25 1.30 1.29 1.35 1.37 1.28 1.23 1.17 1.11 1.07 1.00 1.02 0.97 0.81 0.71 0.71 0.72 0.76 0.62 0.45 0.42 0.41 0.38 0.35 0.32 0.32 0.39 0.47
0.56 0.63 0.61 0.69 0.81 1.03 1.11 1.08 1.11 1.14 1.17 1.28 1.31 1.21 1.20 1.26 1.33 1.35 1.32 1.32 1.34 1.22 1.08 1.01 1.02 1.05 1.03 0.99 0.89 0.77 0.68 0.59 0.60 0.73 0.59 0.49 0.53 0.50 0.47 0.43 0.40 0.42 0.47
0.64 0.74 0.70 0.73 0.75 0.89 1.10 1.09 1.02 1.05 1.07 1.16 1.29 1.36 1.33 1.32 1.33 1.35 1.38 1.32 1.29 1.31 1.22 1.08 1.00 1.01 1.00 0.97 0.95 0.88 0.82 0.79 0.67 0.69 0.66 0.52 0.51 0.50 0.52 0.57 0.57 0.58 0.61

GEFSSE_prec_meanprecacc_252.txt.gz
Total_Precipitation_Accumulation
0.05 0.13 0.38 0.54 0.55 0.56 0.56 0.56 0.53 0.49 0.46 0.48 0.54 0.58 0.59 0.54 0.49 0.45 0.43 0.45 0.50 0.55 0.62 0.69 0.70 0.71 0.69 0.67 0.63 0.56 0.54 0.55 0.55 0.54 0.57 0.62 0.64 0.59 0.52 0.48 0.37 0.44 0.67
0.05 0.15 0.36 0.46 0.51 0.54 0.56 0.54 0.50 0.47 0.47 0.48 0.53 0.53 0.52 0.50 0.49 0.49 0.47 0.47 0.50 0.56 0.63 0.70 0.68 0.67 0.68 0.65 0.58 0.49 0.45 0.41 0.41 0.40 0.37 0.36 0.54 0.60 0.53 0.55 0.50 0.70 0.82
0.04 0.13 0.28 0.42 0.48 0.52 0.53 0.51 0.48 0.50 0.52 0.54 0.55 0.53 0.49 0.47 0.47 0.51 0.52 0.52 0.52 0.51 0.54 0.60 0.64 0.64 0.60 0.54 0.49 0.44 0.42 0.35 0.30 0.30 0.28 0.23 0.44 0.71 0.68 0.68 0.64 0.83 0.83
0.05 0.13 0.22 0.38 0.46 0.51 0.52 0.52 0.54 0.56 0.58 0.64 0.64 0.59 0.54 0.50 0.48 0.51 0.52 0.51 0.52 0.50 0.50 0.52 0.51 0.51 0.46 0.39 0.38 0.39 0.41 0.37 0.28 0.23 0.14 0.14 0.40 0.74 0.80 0.74 0.70 0.75 0.78
0.06 0.13 0.26 0.41 0.50 0.52 0.57 0.58 0.59 0.60 0.65 0.71 0.71 0.68 0.67 0.63 0.56 0.53 0.51 0.51 0.48 0.47 0.46 0.47 0.43 0.43 0.41 0.38 0.37 0.38 0.38 0.34 0.26 0.18 0.09 0.12 0.32 0.68 0.68 0.66 0.62 0.66 0.71
0.08 0.15 0.29 0.43 0.54 0.57 0.59 0.59 0.61 0.63 0.68 0.73 0.71 0.69 0.70 0.73 0.65 0.56 0.52 0.51 0.47 0.45 0.46 0.45 0.42 0.42 0.39 0.36 0.37 0.42 0.43 0.38 0.25 0.13 0.11 0.12 0.20 0.48 0.62 0.67 0.67 0.64 0.61
0.11 0.18 0.31 0.49 0.61 0.66 0.66 0.67 0.69 0.71 0.73 0.72 0.71 0.69 0.70 0.72 0.71 0.61 0.52 0.49 0.45 0.43 0.45 0.45 0.40 0.41 0.41 0.39 0.38 0.43 0.51 0.41 0.25 0.24 0.19 0.18 0.23 0.41 0.55 0.67 0.70 0.66 0.65
0.14 0.22 0.35 0.60 0.71 0.74 0.78 0.73 0.75 0.79 0.82 0.79 0.73 0.71 0.73 0.74 0.70 0.67 0.58 0.52 0.48 0.45 0.43 0.39 0.34 0.33 0.36 0.39 0.40 0.41 0.45 0.34 0.27 0.31 0.35 0.32 0.33 0.46 0.56 0.63 0.67 0.68 0.72
0.18 0.28 0.41 0.62 0.76 0.87 0.90 0.84 0.82 0.82 0.86 0.85 0.79 0.75 0.73 0.74 0.69 0.66 0.62 0.56 0.49 0.46 0.44 0.38 0.32 0.30 0.30 0.30 0.33 0.35 0.36 0.32 0.36 0.46 0.39 0.44 0.41 0.55 0.64 0.63 0.65 0.72 0.76
0.25 0.35 0.47 0.62 0.75 0.87 0.96 0.94 0.90 0.86 0.86 0.88 0.83 0.80 0.76 0.75 0.76 0.70 0.61 0.60 0.55 0.49 0.48 0.44 0.39 0.34 0.32 0.29 0.27 0.28 0.30 0.28 0.29 0.37 0.46 0.40 0.43 0.66 0.81 0.75 0.69 0.71 0.77
0.36 0.45 0.55 0.65 0.79 0.92 0.99 0.97 1.01 0.99 0.98 0.98 0.91 0.87 0.86 0.85 0.83 0.77 0.64 0.59 0.59 0.56 0.52 0.49 0.44 0.41 0.37 0.29 0.25 0.26 0.25 0.20 0.24 0.35 0.39 0.36 0.47 0.72 0.96 0.90 0.83 0.77 0.78
0.38 0.50 0.61 0.69 0.81 1.00 1.08 1.11 1.19 1.11 1.03 1.02 0.89 0.85 0.85 0.88 0.92 0.82 0.73 0.65 0.63 0.61 0.60 0.57 0.50 0.46 0.40 0.29 0.26 0.28 0.21 0.16 0.16 0.18 0.20 0.25 0.38 0.62 0.94 1.03 0.99 0.94 0.92
0.40 0.53 0.63 0.74 0.88 1.03 1.09 1.12 1.15 1.16 1.06 1.04 0.99 0.88 0.85 0.90 0.90 0.91 0.85 0.83 0.76 0.68 0.66 0.65 0.63 0.55 0.48 0.39 0.33 0.31 0.24 0.21 0.19 0.16 0.14 0.19 0.26 0.44 0.68 0.89 1.08 1.11 1.14
0.47 0.59 0.70 0.82 0.97 1.10 1.15 1.19 1.15 1.08 1.03 0.97 1.03 1.02 0.95 0.88 0.83 0.80 0.78 0.73 0.71 0.66 0.65 0.65 0.60 0.57 0.58 0.53 0.44 0.36 0.35 0.33 0.27 0.23 0.19 0.22 0.24 0.34 0.55 0.75 0.95 1.12 1.24
0.47 0.61 0.72 0.86 0.96 1.13 1.29 1.27 1.24 1.12 1.01 0.99 1.02 1.03 0.99 0.90 0.81 0.77 0.73 0.74 0.69 0.61 0.58 0.58 0.50 0.44 0.45 0.47 0.46 0.42 0.41 0.37 0.33 0.32 0.29 0.30 0.28 0.29 0.45 0.64 0.81 1.04 1.25
0.50 0.61 0.73 0.87 0.96 1.08 1.24 1.28 1.29 1.25 1.19 1.16 1.07 1.01 1.01 0.98 0.89 0.81 0.76 0.73 0.71 0.66 0.62 0.57 0.51 0.44 0.38 0.35 0.32 0.31 0.36 0.37 0.37 0.37 0.34 0.33 0.31 0.29 0.36 0.53 0.72 0.94 1.21
0.57 0.67 0.77 0.88 1.02 1.06 1.12 1.29 1.35 1.36 1.32 1.31 1.19 1.12 1.12 1.06 1.02 0.93 0.86 0.79 0.71 0.65 0.63 0.62 0.56 0.50 0.44 0.38 0.33 0.30 0.29 0.29 0.32 0.36 0.35 0.35 0.36 0.34 0.33 0.43 0.61 0.80 1.06
0.64 0.75 0.89 0.91 1.00 1.05 1.05 1.20 1.32 1.38 1.42 1.44 1.43 1.32 1.25 1.19 1.12 1.06 0.99 0.96 0.90 0.80 0.69 0.63 0.57 0.52 0.47 0.42 0.38 0.35 0.33 0.30 0.27 0.28 0.29 0.32 0.36 0.37 0.36 0.41 0.51 0.72 0.94
0.60 0.76 0.95 1.00 1.01 1.07 1.11 1.18 1.34 1.38 1.39 1.48 1.59 1.55 1.45 1.39 1.26 1.17 1.11 1.07 1.11 1.06 0.89 0.74 0.63 0.54 0.50 0.45 0.42 0.40 0.38 0.35 0.33 0.31 0.28 0.26 0.27 0.32 0.37 0.39 0.46 0.59 0.75
0.61 0.78 0.97 1.11 1.15 1.17 1.24 1.24 1.35 1.46 1.38 1.36 1.47 1.55 1.57 1.54 1.42 1.34 1.22 1.11 1.13 1.17 1.12 0.96 0.76 0.64 0.56 0.52 0.50 0.48 0.46 0.43 0.38 0.33 0.31 0.28 0.26 0.28 0.34 0.38 0.41 0.48 0.60
0.69 0.78 0.93 1.08 1.20 1.22 1.26 1.24 1.20 1.28 1.32 1.25 1.22 1.40 1.60 1.68 1.66 1.57 1.41 1.30 1.21 1.16 1.11 1.05 0.97 0.85 0.72 0.63 0.63 0.62 0.55 0.49 0.48 0.41 0.33 0.30 0.28 0.27 0.30 0.38 0.43 0.45 0.53
0.70 0.76 0.87 1.03 1.14 1.14 1.12 1.17 1.17 1.22 1.26 1.28 1.23 1.28 1.45 1.65 1.77 1.87 1.73 1.53 1.39 1.29 1.22 1.14 1.06 1.04 0.94 0.79 0.72 0.75 0.74 0.69 0.57 0.46 0.40 0.33 0.30 0.30 0.31 0.33 0.41 0.46 0.49
0.67 0.72 0.72 0.89 1.13 1.17 1.15 1.26 1.31 1.41 1.46 1.43 1.34 1.26 1.32 1.45 1.52 1.61 1.71 1.55 1.49 1.43 1.34 1.25 1.16 1.13 1.10 0.96 0.80 0.87 0.96 0.83 0.60 0.50 0.45 0.39 0.34 0.32 0.31 0.32 0.36 0.43 0.48
0.65 0.77 0.73 0.78 1.01 1.24 1.23 1.23 1.25 1.31 1.37 1.36 1.28 1.23 1.25 1.37 1.45 1.45 1.54 1.57 1.39 1.31 1.26 1.21 1.18 1.11 1.12 1.10 0.95 0.83 0.79 0.78 0.81 0.67 0.49 0.44 0.44 0.40 0.35 0.32 0.33 0.39 0.47
0.68 0.81 0.81 0.86 0.93 1.15 1.21 1.16 1.18 1.21 1.26 1.37 1.37 1.29 1.27 1.36 1.47 1.50 1.48 1.52 1.53 1.34 1.17 1.11 1.13 1.15 1.12 1.07 0.99 0.88 0.78 0.66 0.65 0.77 0.63 0.53 0.57 0.54 0.49 0.44 0.41 0.43 0.48
0.73 0.86 0.88 0.91 0.90 1.01 1.22 1.18 1.10 1.12 1.15 1.25 1.36 1.43 1.40 1.38 1.44 1.49 1.51 1.46 1.44 1.45 1.35 1.18 1.10 1.12 1.09 1.06 1.04 0.98 0.92 0.88 0.74 0.74 0.70 0.55 0.54 0.53 0.56 0.60 0.58 0.58 0.61

GEFSSE_prec_meanprecacc_258.txt.gz
Total_Precipitation_Accumulation
0.05 0.14 0.39 0.57 0.59 0.59 0.59 0.58 0.55 0.51 0.49 0.51 0.57 0.62 0.63 0.59 0.56 0.52 0.49 0.51 0.55 0.60 0.65 0.71 0.72 0.72 0.70 0.68 0.64 0.56 0.55 0.56 0.57 0.55 0.58 0.64 0.65 0.60 0.53 0.49 0.39 0.45 0.68
0.05 0.15 0.37 0.49 0.54 0.57 0.58 0.56 0.52 0.49 0.48 0.51 0.56 0.57 0.57 0.57 0.56 0.56 0.53 0.53 0.55 0.61 0.69 0.74 0.72 0.69 0.69 0.65 0.59 0.49 0.46 0.42 0.42 0.41 0.38 0.37 0.55 0.61 0.54 0.56 0.51 0.71 0.83
0.04 0.13 0.29 0.45 0.51 0.55 0.55 0.52 0.49 0.51 0.53 0.56 0.57 0.57 0.54 0.53 0.55 0.60 0.61 0.58 0.57 0.56 0.59 0.65 0.67 0.65 0.61 0.55 0.50 0.44 0.42 0.36 0.30 0.30 0.29 0.23 0.44 0.72 0.69 0.68 0.64 0.84 0.83
0.05 0.13 0.22 0.40 0.50 0.54 0.54 0.54 0.56 0.58 0.59 0.66 0.66 0.62 0.58 0.57 0.58 0.61 0.60 0.58 0.57 0.55 0.55 0.58 0.55 0.54 0.48 0.40 0.39 0.39 0.41 0.37 0.28 0.23 0.14 0.14 0.40 0.75 0.81 0.74 0.70 0.75 0.79
0.07 0.14 0.27 0.43 0.52 0.55 0.59 0.60 0.61 0.62 0.67 0.73 0.73 0.71 0.70 0.69 0.65 0.65 0.63 0.59 0.53 0.52 0.51 0.53 0.48 0.47 0.43 0.39 0.38 0.38 0.38 0.34 0.26 0.18 0.09 0.12 0.32 0.69 0.69 0.67 0.62 0.67 0.71
0.09 0.17 0.31 0.46 0.57 0.60 0.63 0.63 0.64 0.66 0.70 0.74 0.73 0.71 0.73 0.79 0.75 0.66 0.62 0.62 0.56 0.51 0.52 0.51 0.46 0.46 0.42 0.37 0.38 0.43 0.43 0.38 0.25 0.13 0.11 0.12 0.21 0.49 0.62 0.68 0.68 0.65 0.62
0.13 0.20 0.34 0.52 0.63 0.68 0.69 0.70 0.72 0.75 0.75 0.74 0.73 0.71 0.72 0.75 0.76 0.69 0.61 0.58 0.55 0.53 0.55 0.55 0.48 0.46 0.45 0.42 0.40 0.43 0.51 0.41 0.25 0.24 0.19 0.18 0.23 0.42 0.56 0.68 0.70 0.66 0.66
0.17 0.25 0.40 0.64 0.73 0.76 0.80 0.75 0.77 0.83 0.85 0.81 0.76 0.74 0.76 0.76 0.73 0.71 0.64 0.59 0.56 0.54 0.52 0.49 0.46 0.41 0.41 0.42 0.41 0.42 0.46 0.35 0.27 0.31 0.35 0.32 0.34 0.47 0.57 0.63 0.68 0.69 0.73
0.22 0.32 0.47 0.67 0.80 0.91 0.92 0.86 0.84 0.84 0.89 0.87 0.82 0.78 0.76 0.76 0.72 0.70 0.67 0.62 0.57 0.54 0.52 0.47 0.44 0.40 0.36 0.35 0.35 0.36 0.36 0.33 0.36 0.46 0.39 0.44 0.42 0.56 0.66 0.64 0.66 0.74 0.77
0.29 0.40 0.54 0.70 0.81 0.91 1.00 0.96 0.91 0.89 0.89 0.92 0.88 0.84 0.80 0.78 0.79 0.73 0.65 0.66 0.61 0.57 0.56 0.52 0.49 0.45 0.39 0.34 0.30 0.30 0.31 0.29 0.30 0.37 0.46 0.41 0.44 0.67 0.83 0.77 0.71 0.73 0.79
0.41 0.51 0.61 0.74 0.88 0.99 1.03 0.99 1.03 1.02 1.03 1.04 0.99 0.97 0.94 0.90 0.87 0.80 0.67 0.65 0.66 0.63 0.59 0.58 0.53 0.51 0.45 0.33 0.28 0.27 0.26 0.20 0.24 0.35 0.40 0.36 0.48 0.74 0.97 0.92 0.85 0.78 0.80
0.45 0.56 0.67 0.76 0.91 1.10 1.15 1.15 1.22 1.14 1.10 1.13 1.00 0.96 0.99 0.97 0.98 0.87 0.78 0.71 0.70 0.69 0.67 0.64 0.61 0.56 0.49 0.35 0.29 0.30 0.21 0.16 0.17 0.18 0.20 0.25 0.39 0.64 0.97 1.05 1.00 0.95 0.93
0.47 0.60 0.70 0.80 0.96 1.13 1.18 1.18 1.19 1.20 1.12 1.14 1.11 0.98 0.95 1.00 0.98 0.98 0.92 0.90 0.84 0.77 0.75 0.73 0.72 0.66 0.59 0.48 0.38 0.34 0.25 0.21 0.19 0.16 0.15 0.20 0.28 0.46 0.71 0.91 1.10 1.13 1.15
0.55 0.65 0.75 0.88 1.03 1.18 1.24 1.28 1.21 1.14 1.09 1.04 1.11 1.11 1.03 0.96 0.90 0.85 0.84 0.80 0.78 0.74 0.74 0.74 0.72 0.68 0.68 0.63 0.50 0.40 0.37 0.33 0.27 0.23 0.19 0.23 0.25 0.36 0.58 0.77 0.97 1.14 1.26
0.58 0.68 0.76 0.90 1.01 1.20 1.39 1.38 1.35 1.21 1.09 1.07 1.10 1.12 1.07 0.99 0.91 0.85 0.79 0.81 0.75 0.69 0.66 0.66 0.62 0.56 0.53 0.54 0.52 0.46 0.44 0.38 0.33 0.32 0.29 0.31 0.29 0.30 0.47 0.65 0.82 1.06 1.27
0.63 0.72 0.79 0.92 1.00 1.13 1.32 1.39 1.41 1.35 1.28 1.24 1.14 1.08 1.08 1.07 0.98 0.91 0.84 0.80 0.78 0.73 0.70 0.65 0.59 0.52 0.45 0.41 0.37 0.36 0.40 0.40 0.38 0.38 0.34 0.33 0.32 0.30 0.37 0.54 0.73 0.96 1.22
0.68 0.78 0.87 0.97 1.09 1.12 1.19 1.39 1.44 1.45 1.40 1.37 1.24 1.18 1.18 1.14 1.11 1.04 0.96 0.88 0.79 0.73 0.72 0.73 0.67 0.57 0.49 0.43 0.38 0.35 0.33 0.32 0.33 0.37 0.36 0.35 0.36 0.34 0.34 0.44 0.62 0.82 1.07
0.73 0.83 0.99 1.06 1.11 1.13 1.13 1.30 1.43 1.47 1.51 1.50 1.47 1.36 1.30 1.25 1.20 1.16 1.10 1.05 1.00 0.89 0.79 0.73 0.69 0.62 0.54 0.48 0.43 0.39 0.36 0.32 0.29 0.29 0.31 0.33 0.37 0.37 0.37 0.41 0.52 0.73 0.96
0.68 0.83 1.02 1.12 1.15 1.18 1.21 1.26 1.46 1.51 1.50 1.57 1.63 1.58 1.48 1.44 1.33 1.26 1.20 1.17 1.21 1.17 1.00 0.84 0.74 0.64 0.57 0.50 0.47 0.45 0.41 0.37 0.35 0.34 0.30 0.28 0.30 0.34 0.37 0.40 0.47 0.60 0.76
0.69 0.85 1.05 1.22 1.29 1.29 1.35 1.33 1.46 1.62 1.51 1.46 1.53 1.58 1.59 1.57 1.49 1.41 1.30 1.21 1.22 1.28 1.25 1.07 0.86 0.75 0.65 0.59 0.56 0.53 0.50 0.46 0.40 0.37 0.35 0.33 0.31 0.32 0.37 0.40 0.42 0.49 0.61
0.79 0.86 1.02 1.19 1.31 1.34 1.37 1.36 1.30 1.43 1.48 1.36 1.28 1.43 1.62 1.70 1.71 1.65 1.49 1.39 1.32 1.27 1.23 1.18 1.06 0.94 0.82 0.72 0.71 0.69 0.61 0.54 0.52 0.44 0.37 0.34 0.32 0.31 0.33 0.40 0.44 0.46 0.54
0.83 0.86 0.96 1.14 1.26 1.24 1.23 1.30 1.31 1.34 1.42 1.43 1.32 1.33 1.48 1.68 1.82 1.95 1.81 1.62 1.49 1.39 1.33 1.25 1.15 1.11 1.02 0.88 0.81 0.82 0.80 0.74 0.62 0.51 0.43 0.36 0.33 0.33 0.33 0.35 0.42 0.47 0.50
0.83 0.87 0.83 0.98 1.24 1.28 1.25 1.38 1.46 1.56 1.60 1.60 1.47 1.32 1.36 1.47 1.57 1.67 1.79 1.65 1.59 1.52 1.44 1.33 1.22 1.18 1.16 1.05 0.89 0.96 1.04 0.89 0.65 0.54 0.50 0.45 0.38 0.35 0.33 0.33 0.37 0.44 0.49
0.80 0.94 0.89 0.91 1.11 1.34 1.32 1.33 1.36 1.45 1.49 1.50 1.43 1.31 1.30 1.41 1.49 1.51 1.62 1.67 1.51 1.41 1.35 1.30 1.24 1.16 1.17 1.16 1.02 0.90 0.86 0.83 0.86 0.71 0.53 0.52 0.52 0.47 0.40 0.35 0.34 0.40 0.48
0.80 0.97 1.02 1.00 1.02 1.24 1.30 1.25 1.27 1.29 1.36 1.47 1.49 1.42 1.34 1.41 1.52 1.56 1.56 1.62 1.65 1.48 1.28 1.21 1.23 1.23 1.18 1.14 1.06 0.96 0.84 0.71 0.69 0.82 0.67 0.58 0.63 0.61 0.58 0.50 0.45 0.45 0.49
0.84 1.01 1.08 1.09 1.04 1.11 1.32 1.29 1.20 1.20 1.22 1.33 1.45 1.54 1.50 1.45 1.49 1.55 1.57 1.54 1.56 1.58 1.48 1.28 1.20 1.21 1.17 1.13 1.10 1.04 0.99 0.93 0.79 0.78 0.73 0.58 0.58 0.57 0.61 0.67 0.65 0.62 0.63

GEFSSE_prec_meanprecacc_264.txt.gz
Total_Precipitation_Accumulation
0.06 0.14 0.41 0.59 0.61 0.61 0.61 0.60 0.57 0.53 0.50 0.53 0.59 0.66 0.68 0.64 0.60 0.55 0.53 0.54 0.58 0.63 0.69 0.75 0.75 0.75 0.72 0.70 0.64 0.57 0.55 0.56 0.57 0.55 0.60 0.65 0.67 0.62 0.55 0.51 0.39 0.46 0.69
0.06 0.16 0.39 0.52 0.56 0.60 0.61 0.58 0.53 0.51 0.50 0.53 0.58 0.59 0.61 0.62 0.61 0.61 0.58 0.58 0.60 0.65 0.73 0.79 0.76 0.73 0.71 0.67 0.60 0.50 0.46 0.42 0.42 0.41 0.39 0.38 0.56 0.62 0.55 0.57 0.52 0.72 0.84
0.05 0.14 0.31 0.47 0.54 0.58 0.58 0.54 0.51 0.53 0.55 0.58 0.60 0.59 0.57 0.58 0.60 0.66 0.67 0.64 0.62 0.60 0.64 0.71 0.74 0.71 0.65 0.57 0.51 0.45 0.43 0.36 0.31 0.30 0.29 0.23 0.45 0.72 0.70 0.69 0.65 0.84 0.84
0.06 0.14 0.24 0.43 0.53 0.57 0.58 0.57 0.59 0.62 0.63 0.69 0.69 0.65 0.61 0.61 0.62 0.66 0.65 0.64 0.63 0.60 0.59 0.63 0.62 0.62 0.54 0.44 0.42 0.41 0.42 0.38 0.28 0.23 0.14 0.14 0.40 0.75 0.81 0.75 0.71 0.76 0.79
0.08 0.15 0.28 0.46 0.56 0.59 0.63 0.64 0.64 0.66 0.71 0.75 0.76 0.73 0.72 0.72 0.68 0.69 0.68 0.65 0.60 0.58 0.57 0.59 0.56 0.54 0.50 0.46 0.43 0.41 0.39 0.35 0.27 0.18 0.09 0.12 0.32 0.69 0.70 0.68 0.63 0.67 0.72
0.11 0.19 0.33 0.50 0.62 0.66 0.68 0.67 0.69 0.71 0.73 0.77 0.75 0.73 0.74 0.81 0.77 0.69 0.66 0.67 0.61 0.57 0.58 0.57 0.54 0.54 0.49 0.44 0.46 0.48 0.46 0.39 0.25 0.14 0.11 0.12 0.21 0.50 0.64 0.69 0.68 0.66 0.62
0.16 0.24 0.37 0.56 0.68 0.74 0.76 0.78 0.79 0.80 0.80 0.77 0.76 0.73 0.74 0.76 0.78 0.73 0.66 0.64 0.60 0.58 0.60 0.60 0.56 0.55 0.52 0.47 0.48 0.53 0.58 0.44 0.25 0.24 0.19 0.18 0.24 0.44 0.58 0.69 0.71 0.67 0.67
0.22 0.31 0.47 0.70 0.79 0.81 0.85 0.81 0.85 0.90 0.91 0.88 0.81 0.77 0.79 0.78 0.75 0.74 0.67 0.65 0.65 0.62 0.58 0.54 0.52 0.49 0.48 0.47 0.47 0.50 0.55 0.42 0.29 0.31 0.35 0.33 0.35 0.49 0.59 0.64 0.69 0.71 0.74
0.26 0.37 0.54 0.75 0.86 0.96 0.98 0.92 0.91 0.90 0.95 0.93 0.88 0.83 0.80 0.79 0.74 0.72 0.69 0.64 0.64 0.67 0.64 0.54 0.51 0.48 0.43 0.41 0.40 0.42 0.45 0.42 0.41 0.47 0.40 0.45 0.43 0.57 0.67 0.64 0.67 0.74 0.78
0.32 0.44 0.60 0.77 0.89 0.98 1.06 1.02 0.97 0.94 0.95 0.98 0.92 0.88 0.86 0.84 0.82 0.75 0.67 0.68 0.65 0.64 0.68 0.63 0.56 0.55 0.50 0.41 0.35 0.35 0.37 0.37 0.38 0.41 0.47 0.41 0.44 0.68 0.83 0.78 0.71 0.74 0.80
0.47 0.58 0.71 0.82 0.94 1.06 1.12 1.07 1.09 1.07 1.08 1.09 1.04 1.01 0.98 0.97 0.95 0.85 0.70 0.67 0.69 0.67 0.66 0.67 0.62 0.59 0.56 0.43 0.36 0.33 0.32 0.28 0.32 0.41 0.42 0.37 0.49 0.75 0.98 0.93 0.86 0.79 0.80
0.50 0.65 0.78 0.85 0.98 1.16 1.21 1.22 1.27 1.19 1.14 1.17 1.03 0.99 1.03 1.03 1.07 0.96 0.85 0.75 0.73 0.72 0.73 0.72 0.69 0.65 0.58 0.44 0.37 0.36 0.27 0.22 0.23 0.24 0.23 0.27 0.40 0.65 0.98 1.06 1.01 0.96 0.94
0.51 0.66 0.79 0.92 1.06 1.21 1.23 1.23 1.25 1.25 1.17 1.19 1.16 1.01 0.97 1.04 1.04 1.07 1.01 0.98 0.89 0.82 0.80 0.81 0.82 0.72 0.65 0.55 0.47 0.41 0.30 0.26 0.24 0.20 0.18 0.21 0.29 0.48 0.73 0.93 1.12 1.14 1.17
0.59 0.70 0.84 0.99 1.15 1.27 1.28 1.31 1.26 1.19 1.14 1.09 1.19 1.17 1.06 0.99 0.93 0.91 0.91 0.87 0.85 0.80 0.80 0.81 0.80 0.74 0.74 0.69 0.58 0.50 0.44 0.38 0.31 0.26 0.22 0.25 0.26 0.39 0.60 0.79 1.00 1.17 1.28
0.63 0.74 0.85 0.99 1.12 1.29 1.46 1.43 1.39 1.27 1.16 1.13 1.17 1.19 1.11 1.02 0.93 0.88 0.84 0.86 0.83 0.75 0.72 0.72 0.69 0.63 0.59 0.60 0.58 0.53 0.52 0.45 0.38 0.36 0.32 0.33 0.30 0.32 0.49 0.67 0.84 1.08 1.30
0.69 0.79 0.90 1.02 1.11 1.24 1.41 1.46 1.46 1.41 1.35 1.32 1.21 1.16 1.13 1.10 1.01 0.93 0.87 0.85 0.84 0.80 0.76 0.70 0.66 0.60 0.53 0.48 0.44 0.43 0.47 0.47 0.45 0.42 0.37 0.35 0.33 0.31 0.39 0.57 0.75 0.97 1.25
0.73 0.84 0.97 1.09 1.22 1.24 1.29 1.48 1.51 1.52 1.47 1.45 1.31 1.26 1.25 1.17 1.13 1.07 0.99 0.91 0.84 0.79 0.78 0.78 0.73 0.65 0.58 0.51 0.45 0.42 0.40 0.39 0.40 0.42 0.40 0.38 0.38 0.35 0.35 0.46 0.64 0.83 1.09
0.79 0.89 1.07 1.17 1.25 1.25 1.24 1.40 1.50 1.53 1.57 1.57 1.54 1.43 1.38 1.31 1.23 1.20 1.14 1.09 1.03 0.93 0.84 0.80 0.75 0.69 0.62 0.57 0.51 0.46 0.44 0.40 0.36 0.36 0.36 0.37 0.39 0.39 0.38 0.43 0.54 0.75 0.97
0.75 0.90 1.10 1.21 1.25 1.28 1.30 1.35 1.53 1.56 1.55 1.62 1.70 1.64 1.54 1.50 1.37 1.28 1.22 1.21 1.25 1.20 1.04 0.89 0.81 0.71 0.65 0.58 0.55 0.53 0.49 0.45 0.42 0.41 0.35 0.31 0.32 0.35 0.40 0.42 0.49 0.62 0.78
0.76 0.92 1.12 1.29 1.36 1.37 1.43 1.42 1.54 1.69 1.56 1.51 1.58 1.63 1.63 1.62 1.53 1.44 1.32 1.23 1.27 1.33 1.29 1.12 0.93 0.82 0.73 0.65 0.62 0.61 0.57 0.53 0.47 0.43 0.40 0.36 0.33 0.33 0.39 0.43 0.45 0.51 0.62
0.85 0.92 1.08 1.25 1.37 1.41 1.45 1.43 1.37 1.50 1.56 1.43 1.34 1.49 1.67 1.74 1.76 1.69 1.52 1.42 1.35 1.30 1.26 1.23 1.14 1.03 0.91 0.80 0.78 0.76 0.68 0.60 0.57 0.49 0.41 0.37 0.35 0.32 0.34 0.42 0.46 0.47 0.55
0.87 0.90 1.01 1.20 1.31 1.30 1.30 1.36 1.36 1.39 1.47 1.50 1.38 1.40 1.54 1.73 1.86 1.98 1.86 1.66 1.52 1.42 1.37 1.31 1.24 1.21 1.13 0.98 0.88 0.90 0.88 0.82 0.67 0.55 0.47 0.39 0.36 0.35 0.35 0.37 0.44 0.49 0.52
0.88 0.90 0.88 1.04 1.29 1.33 1.32 1.46 1.51 1.60 1.64 1.65 1.53 1.40 1.44 1.53 1.62 1.70 1.82 1.69 1.64 1.56 1.49 1.40 1.30 1.26 1.25 1.14 0.97 1.04 1.12 0.97 0.72 0.60 0.54 0.48 0.41 0.38 0.36 0.36 0.39 0.46 0.50
0.85 0.99 0.94 0.96 1.16 1.39 1.38 1.40 1.42 1.48 1.52 1.52 1.47 1.37 1.38 1.49 1.55 1.55 1.64 1.70 1.56 1.47 1.40 1.37 1.33 1.23 1.25 1.25 1.13 0.99 0.93 0.91 0.93 0.78 0.58 0.55 0.56 0.50 0.43 0.38 0.36 0.41 0.49
0.86 1.02 1.08 1.07 1.10 1.31 1.37 1.31 1.31 1.32 1.39 1.49 1.51 1.46 1.41 1.49 1.59 1.61 1.59 1.65 1.68 1.53 1.35 1.28 1.32 1.32 1.27 1.22 1.15 1.04 0.91 0.78 0.76 0.87 0.72 0.62 0.66 0.65 0.61 0.54 0.48 0.48 0.51
0.91 1.06 1.14 1.19 1.13 1.20 1.42 1.37 1.26 1.23 1.24 1.36 1.48 1.58 1.57 1.53 1.57 1.63 1.62 1.58 1.59 1.62 1.55 1.36 1.28 1.31 1.30 1.25 1.19 1.11 1.04 0.99 0.84 0.82 0.77 0.61 0.60 0.60 0.65 0.70 0.69 0.66 0.66

GEFSSE_prec_meanprecacc_270.txt.gz
Total_Precipitation_Accumulation
0.07 0.15 0.41 0.60 0.62 0.63 0.63 0.62 0.60 0.54 0.51 0.54 0.61 0.68 0.71 0.66 0.63 0.58 0.56 0.57 0.61 0.66 0.72 0.78 0.78 0.78 0.75 0.73 0.66 0.59 0.58 0.58 0.60 0.58 0.61 0.66 0.68 0.63 0.56 0.52 0.40 0.46 0.70
0.06 0.16 0.39 0.53 0.58 0.61 0.62 0.59 0.56 0.52 0.52 0.55 0.61 0.63 0.65 0.64 0.63 0.63 0.61 0.61 0.63 0.68 0.76 0.82 0.78 0.76 0.74 0.69 0.61 0.51 0.48 0.44 0.44 0.42 0.39 0.39 0.56 0.63 0.56 0.57 0.52 0.73 0.85
0.05 0.14 0.31 0.48 0.56 0.61 0.60 0.57 0.54 0.54 0.56 0.61 0.64 0.63 0.60 0.59 0.62 0.68 0.70 0.67 0.66 0.64 0.67 0.74 0.77 0.73 0.68 0.60 0.53 0.47 0.45 0.38 0.32 0.32 0.30 0.24 0.46 0.73 0.71 0.70 0.66 0.85 0.85
0.06 0.14 0.24 0.44 0.55 0.60 0.61 0.61 0.63 0.65 0.65 0.72 0.72 0.68 0.64 0.62 0.64 0.69 0.68 0.67 0.66 0.64 0.64 0.67 0.66 0.65 0.58 0.47 0.44 0.43 0.44 0.39 0.29 0.24 0.15 0.16 0.42 0.77 0.82 0.76 0.71 0.76 0.80
0.08 0.15 0.29 0.47 0.58 0.61 0.66 0.66 0.67 0.69 0.74 0.78 0.78 0.76 0.75 0.75 0.70 0.71 0.70 0.67 0.62 0.61 0.61 0.64 0.60 0.59 0.55 0.50 0.46 0.43 0.42 0.37 0.28 0.19 0.10 0.14 0.34 0.71 0.71 0.68 0.63 0.67 0.72
0.12 0.19 0.34 0.51 0.64 0.68 0.71 0.70 0.72 0.75 0.77 0.81 0.78 0.75 0.78 0.84 0.80 0.71 0.68 0.69 0.63 0.59 0.61 0.62 0.60 0.60 0.54 0.49 0.49 0.51 0.48 0.42 0.27 0.15 0.12 0.14 0.23 0.52 0.65 0.69 0.69 0.66 0.63
0.19 0.25 0.38 0.57 0.70 0.76 0.78 0.81 0.83 0.85 0.86 0.83 0.80 0.76 0.77 0.79 0.81 0.76 0.68 0.65 0.62 0.60 0.62 0.63 0.60 0.61 0.59 0.53 0.52 0.56 0.60 0.47 0.28 0.26 0.22 0.21 0.27 0.45 0.59 0.70 0.72 0.68 0.68
0.24 0.33 0.49 0.71 0.81 0.84 0.88 0.84 0.89 0.97 0.99 0.95 0.87 0.83 0.83 0.82 0.78 0.77 0.69 0.67 0.66 0.63 0.59 0.56 0.55 0.55 0.55 0.54 0.52 0.54 0.58 0.45 0.32 0.35 0.38 0.36 0.39 0.52 0.60 0.66 0.70 0.72 0.75
0.26 0.38 0.56 0.79 0.89 1.00 1.02 0.95 0.93 0.95 1.03 1.02 0.95 0.91 0.90 0.86 0.78 0.75 0.72 0.66 0.65 0.68 0.66 0.56 0.53 0.51 0.48 0.47 0.47 0.48 0.49 0.45 0.45 0.53 0.45 0.49 0.46 0.60 0.70 0.67 0.69 0.76 0.79
0.34 0.47 0.63 0.82 0.93 1.02 1.10 1.05 0.99 0.97 1.01 1.06 1.00 0.94 0.94 0.94 0.90 0.81 0.71 0.71 0.68 0.65 0.69 0.65 0.59 0.60 0.56 0.47 0.42 0.41 0.42 0.41 0.41 0.47 0.55 0.46 0.48 0.71 0.86 0.80 0.73 0.75 0.81
0.49 0.62 0.76 0.88 1.00 1.11 1.16 1.10 1.12 1.10 1.12 1.15 1.12 1.08 1.04 1.04 1.02 0.91 0.76 0.72 0.74 0.69 0.67 0.69 0.65 0.66 0.66 0.54 0.43 0.40 0.39 0.32 0.36 0.46 0.50 0.44 0.54 0.79 1.02 0.96 0.87 0.80 0.81
0.52 0.68 0.83 0.92 1.06 1.23 1.28 1.27 1.31 1.22 1.17 1.21 1.10 1.07 1.09 1.08 1.12 1.00 0.89 0.79 0.77 0.76 0.75 0.73 0.71 0.70 0.67 0.57 0.51 0.47 0.36 0.28 0.27 0.28 0.30 0.34 0.47 0.70 1.01 1.08 1.03 0.98 0.95
0.53 0.68 0.84 0.99 1.14 1.31 1.33 1.29 1.29 1.28 1.19 1.22 1.20 1.08 1.05 1.10 1.09 1.11 1.03 1.01 0.92 0.85 0.84 0.84 0.85 0.78 0.72 0.65 0.60 0.53 0.40 0.35 0.31 0.25 0.23 0.27 0.35 0.54 0.77 0.95 1.14 1.16 1.18
0.61 0.73 0.88 1.05 1.23 1.39 1.39 1.39 1.31 1.23 1.17 1.13 1.22 1.22 1.14 1.07 0.98 0.94 0.92 0.88 0.86 0.82 0.83 0.85 0.84 0.78 0.79 0.75 0.66 0.60 0.54 0.48 0.40 0.33 0.27 0.30 0.32 0.44 0.65 0.82 1.02 1.18 1.30
0.65 0.78 0.89 1.05 1.20 1.40 1.58 1.53 1.48 1.34 1.21 1.17 1.20 1.23 1.19 1.11 1.00 0.91 0.85 0.88 0.84 0.77 0.74 0.77 0.73 0.68 0.65 0.66 0.66 0.62 0.62 0.55 0.49 0.45 0.39 0.38 0.36 0.37 0.53 0.71 0.87 1.10 1.31
0.72 0.83 0.96 1.09 1.18 1.33 1.52 1.56 1.54 1.48 1.41 1.37 1.26 1.20 1.20 1.21 1.11 0.98 0.90 0.87 0.86 0.82 0.79 0.74 0.72 0.65 0.58 0.53 0.51 0.51 0.55 0.56 0.55 0.52 0.45 0.42 0.39 0.37 0.43 0.60 0.79 1.00 1.26
0.76 0.89 1.03 1.15 1.28 1.33 1.39 1.56 1.58 1.57 1.52 1.50 1.36 1.30 1.31 1.28 1.25 1.16 1.04 0.94 0.85 0.80 0.80 0.81 0.78 0.73 0.65 0.56 0.50 0.49 0.48 0.47 0.48 0.50 0.46 0.44 0.44 0.42 0.42 0.51 0.67 0.86 1.11
0.82 0.94 1.13 1.24 1.32 1.34 1.33 1.48 1.56 1.59 1.63 1.63 1.59 1.47 1.43 1.41 1.36 1.32 1.21 1.13 1.05 0.94 0.86 0.82 0.78 0.75 0.70 0.62 0.55 0.51 0.50 0.47 0.43 0.43 0.42 0.42 0.45 0.45 0.44 0.48 0.57 0.77 0.99
0.77 0.94 1.16 1.28 1.33 1.36 1.37 1.43 1.59 1.60 1.61 1.70 1.77 1.70 1.60 1.59 1.50 1.42 1.32 1.26 1.29 1.23 1.06 0.91 0.84 0.77 0.71 0.64 0.61 0.57 0.54 0.51 0.49 0.48 0.43 0.39 0.39 0.42 0.45 0.47 0.52 0.64 0.80
0.79 0.96 1.18 1.37 1.44 1.45 1.50 1.49 1.60 1.74 1.62 1.57 1.67 1.72 1.71 1.71 1.64 1.57 1.45 1.30 1.32 1.37 1.32 1.14 0.95 0.87 0.78 0.70 0.68 0.66 0.63 0.58 0.53 0.49 0.47 0.44 0.42 0.41 0.45 0.49 0.49 0.53 0.64
0.89 0.97 1.14 1.33 1.44 1.47 1.50 1.47 1.42 1.55 1.61 1.48 1.41 1.56 1.72 1.80 1.83 1.79 1.65 1.52 1.41 1.35 1.30 1.26 1.16 1.06 0.97 0.86 0.85 0.83 0.74 0.65 0.62 0.54 0.47 0.43 0.42 0.40 0.41 0.48 0.51 0.50 0.58
0.92 0.95 1.08 1.28 1.38 1.37 1.35 1.41 1.40 1.44 1.53 1.56 1.45 1.46 1.59 1.76 1.90 2.05 1.95 1.76 1.60 1.47 1.42 1.35 1.26 1.24 1.18 1.04 0.95 0.97 0.96 0.89 0.73 0.60 0.53 0.44 0.42 0.42 0.42 0.43 0.48 0.52 0.55
0.94 0.95 0.95 1.13 1.36 1.40 1.40 1.51 1.56 1.65 1.70 1.70 1.58 1.45 1.48 1.56 1.65 1.75 1.88 1.78 1.73 1.62 1.54 1.44 1.34 1.30 1.31 1.20 1.03 1.11 1.18 1.03 0.79 0.67 0.60 0.54 0.46 0.44 0.42 0.41 0.44 0.49 0.53
0.91 1.05 1.02 1.05 1.24 1.46 1.47 1.46 1.47 1.54 1.57 1.57 1.51 1.41 1.41 1.52 1.57 1.59 1.69 1.75 1.64 1.53 1.45 1.41 1.37 1.27 1.30 1.31 1.18 1.04 0.99 0.96 0.99 0.87 0.68 0.63 0.62 0.56 0.49 0.43 0.41 0.46 0.52
0.94 1.10 1.17 1.16 1.16 1.37 1.43 1.36 1.36 1.37 1.43 1.54 1.55 1.50 1.44 1.52 1.61 1.65 1.63 1.69 1.73 1.60 1.41 1.32 1.36 1.37 1.32 1.27 1.20 1.10 0.96 0.83 0.81 0.94 0.82 0.70 0.72 0.70 0.66 0.59 0.53 0.54 0.56
0.99 1.13 1.23 1.27 1.20 1.25 1.46 1.41 1.30 1.27 1.29 1.40 1.51 1.61 1.60 1.56 1.59 1.65 1.67 1.62 1.62 1.66 1.60 1.41 1.33 1.36 1.34 1.30 1.25 1.18 1.12 1.05 0.90 0.88 0.84 0.68 0.65 0.64 0.68 0.75 0.74 0.72 0.71

GEFSSE_prec_meanprecacc_276.txt.gz
Total_Precipitation_Accumulation
0.07 0.15 0.42 0.61 0.63 0.64 0.64 0.62 0.60 0.56 0.53 0.56 0.63 0.71 0.72 0.68 0.64 0.59 0.58 0.59 0.62 0.67 0.74 0.83 0.83 0.82 0.78 0.75 0.69 0.61 0.60 0.60 0.61 0.59 0.63 0.67 0.69 0.65 0.57 0.53 0.41 0.47 0.71
0.06 0.16 0.40 0.54 0.59 0.63 0.64 0.60 0.56 0.53 0.52 0.56 0.63 0.66 0.68 0.67 0.65 0.65 0.63 0.63 0.64 0.70 0.78 0.85 0.84 0.81 0.79 0.73 0.64 0.54 0.50 0.45 0.45 0.44 0.41 0.40 0.57 0.65 0.58 0.59 0.53 0.74 0.86
0.05 0.15 0.32 0.49 0.57 0.62 0.63 0.59 0.55 0.55 0.57 0.62 0.65 0.65 0.64 0.63 0.65 0.70 0.72 0.69 0.67 0.65 0.69 0.76 0.80 0.78 0.73 0.66 0.58 0.51 0.47 0.39 0.33 0.33 0.32 0.25 0.47 0.74 0.72 0.71 0.67 0.87 0.86
0.06 0.14 0.25 0.45 0.56 0.62 0.63 0.63 0.64 0.67 0.67 0.73 0.73 0.71 0.66 0.66 0.67 0.72 0.70 0.68 0.68 0.65 0.65 0.69 0.67 0.68 0.60 0.51 0.49 0.48 0.47 0.41 0.31 0.25 0.16 0.17 0.42 0.78 0.84 0.77 0.73 0.78 0.81
0.08 0.15 0.29 0.48 0.59 0.63 0.68 0.68 0.69 0.71 0.77 0.80 0.80 0.78 0.78 0.78 0.74 0.74 0.73 0.69 0.64 0.63 0.62 0.65 0.61 0.60 0.57 0.53 0.50 0.47 0.45 0.40 0.30 0.21 0.11 0.14 0.35 0.73 0.73 0.70 0.65 0.68 0.73
0.13 0.19 0.35 0.52 0.65 0.69 0.73 0.72 0.74 0.77 0.80 0.84 0.80 0.78 0.80 0.87 0.84 0.75 0.71 0.71 0.65 0.62 0.63 0.62 0.61 0.61 0.56 0.51 0.53 0.55 0.52 0.45 0.30 0.17 0.13 0.15 0.23 0.52 0.66 0.71 0.70 0.67 0.64
0.20 0.26 0.39 0.58 0.71 0.78 0.81 0.84 0.87 0.87 0.88 0.86 0.84 0.79 0.79 0.82 0.84 0.79 0.71 0.68 0.64 0.62 0.63 0.64 0.61 0.62 0.60 0.55 0.54 0.59 0.64 0.50 0.30 0.28 0.23 0.21 0.27 0.46 0.60 0.71 0.74 0.70 0.69
0.26 0.34 0.50 0.73 0.83 0.87 0.91 0.87 0.93 1.00 1.01 0.99 0.93 0.87 0.86 0.84 0.81 0.81 0.73 0.70 0.68 0.65 0.61 0.57 0.56 0.56 0.56 0.55 0.54 0.57 0.62 0.48 0.34 0.36 0.40 0.37 0.40 0.54 0.63 0.68 0.73 0.74 0.77
0.27 0.39 0.57 0.80 0.92 1.03 1.06 0.99 0.97 0.98 1.05 1.04 1.00 0.97 0.94 0.88 0.81 0.79 0.76 0.69 0.68 0.71 0.67 0.57 0.54 0.53 0.49 0.48 0.48 0.50 0.52 0.48 0.48 0.55 0.46 0.50 0.49 0.64 0.73 0.69 0.71 0.78 0.81
0.35 0.48 0.63 0.82 0.95 1.05 1.14 1.10 1.04 1.02 1.04 1.08 1.03 0.99 0.97 0.97 0.94 0.85 0.74 0.75 0.72 0.69 0.72 0.67 0.61 0.61 0.56 0.48 0.42 0.43 0.45 0.45 0.44 0.49 0.56 0.48 0.51 0.75 0.90 0.83 0.76 0.78 0.83
0.50 0.63 0.76 0.88 1.01 1.13 1.20 1.14 1.17 1.16 1.17 1.19 1.15 1.13 1.09 1.07 1.08 0.99 0.81 0.76 0.78 0.74 0.71 0.72 0.67 0.67 0.67 0.54 0.44 0.41 0.41 0.35 0.39 0.50 0.53 0.47 0.58 0.84 1.07 0.99 0.91 0.83 0.84
0.53 0.69 0.83 0.93 1.07 1.25 1.31 1.31 1.37 1.28 1.23 1.25 1.14 1.11 1.14 1.12 1.16 1.08 1.00 0.87 0.82 0.80 0.78 0.77 0.75 0.72 0.69 0.58 0.52 0.49 0.37 0.30 0.30 0.32 0.33 0.39 0.52 0.77 1.08 1.13 1.07 1.01 0.98
0.54 0.69 0.85 0.99 1.15 1.33 1.36 1.34 1.35 1.33 1.24 1.27 1.25 1.12 1.09 1.15 1.13 1.16 1.14 1.13 1.03 0.92 0.88 0.88 0.89 0.81 0.75 0.67 0.61 0.55 0.43 0.38 0.35 0.29 0.27 0.32 0.41 0.61 0.85 1.02 1.18 1.20 1.22
0.64 0.75 0.89 1.06 1.25 1.42 1.43 1.45 1.38 1.28 1.21 1.17 1.26 1.26 1.18 1.11 1.03 0.98 0.99 0.97 0.96 0.91 0.88 0.88 0.87 0.82 0.81 0.77 0.67 0.61 0.56 0.51 0.44 0.38 0.32 0.35 0.38 0.51 0.73 0.89 1.08 1.23 1.34
0.72 0.81 0.91 1.06 1.21 1.42 1.63 1.61 1.57 1.42 1.27 1.21 1.25 1.27 1.22 1.15 1.06 0.97 0.90 0.93 0.89 0.81 0.79 0.80 0.76 0.71 0.69 0.70 0.68 0.63 0.63 0.56 0.51 0.48 0.44 0.44 0.42 0.45 0.63 0.80 0.95 1.16 1.36
0.78 0.89 0.98 1.11 1.20 1.36 1.57 1.65 1.64 1.57 1.49 1.43 1.30 1.24 1.24 1.24 1.16 1.07 0.96 0.92 0.90 0.84 0.81 0.77 0.74 0.67 0.61 0.57 0.54 0.53 0.57 0.57 0.56 0.53 0.47 0.47 0.46 0.45 0.55 0.71 0.89 1.09 1.33
0.83 0.94 1.07 1.18 1.31 1.36 1.44 1.65 1.68 1.66 1.59 1.57 1.42 1.36 1.37 1.33 1.30 1.24 1.14 1.01 0.90 0.83 0.82 0.83 0.79 0.75 0.68 0.60 0.54 0.52 0.51 0.49 0.50 0.51 0.48 0.46 0.48 0.48 0.52 0.64 0.80 0.98 1.20
0.88 0.98 1.17 1.27 1.36 1.38 1.38 1.58 1.68 1.72 1.74 1.71 1.65 1.55 1.52 1.49 1.42 1.37 1.32 1.24 1.10 0.97 0.88 0.84 0.79 0.76 0.71 0.65 0.59 0.54 0.53 0.50 0.46 0.45 0.44 0.44 0.48 0.49 0.51 0.58 0.68 0.87 1.07
0.83 0.97 1.19 1.32 1.38 1.43 1.42 1.52 1.71 1.72 1.72 1.77 1.82 1.77 1.68 1.67 1.57 1.48 1.41 1.40 1.39 1.27 1.08 0.93 0.85 0.79 0.72 0.66 0.63 0.61 0.58 0.55 0.53 0.52 0.47 0.42 0.42 0.45 0.49 0.52 0.59 0.70 0.86
0.86 1.02 1.22 1.42 1.50 1.53 1.57 1.57 1.71 1.84 1.70 1.61 1.70 1.75 1.76 1.78 1.71 1.64 1.53 1.44 1.49 1.45 1.35 1.17 0.98 0.89 0.81 0.72 0.71 0.70 0.67 0.63 0.58 0.54 0.52 0.49 0.46 0.44 0.48 0.51 0.53 0.57 0.68
0.94 1.04 1.20 1.38 1.52 1.55 1.57 1.55 1.51 1.63 1.67 1.52 1.44 1.59 1.76 1.85 1.90 1.86 1.73 1.63 1.57 1.49 1.37 1.30 1.19 1.09 1.00 0.90 0.88 0.88 0.80 0.71 0.69 0.60 0.52 0.48 0.46 0.44 0.44 0.51 0.54 0.53 0.60
0.95 1.00 1.15 1.37 1.47 1.45 1.42 1.48 1.47 1.51 1.57 1.58 1.47 1.49 1.61 1.81 1.96 2.10 2.01 1.84 1.72 1.61 1.52 1.42 1.31 1.28 1.22 1.08 0.99 1.02 1.03 0.96 0.80 0.67 0.58 0.48 0.45 0.46 0.46 0.46 0.52 0.55 0.57
0.97 1.00 1.01 1.22 1.47 1.49 1.47 1.58 1.63 1.71 1.74 1.73 1.60 1.47 1.50 1.60 1.69 1.79 1.92 1.82 1.81 1.73 1.63 1.52 1.40 1.35 1.35 1.24 1.08 1.16 1.25 1.10 0.84 0.72 0.66 0.58 0.50 0.47 0.45 0.44 0.47 0.52 0.55
0.95 1.11 1.09 1.13 1.34 1.55 1.56 1.54 1.53 1.59 1.60 1.60 1.53 1.43 1.43 1.54 1.61 1.62 1.72 1.79 1.68 1.61 1.54 1.49 1.44 1.34 1.36 1.36 1.24 1.10 1.05 1.01 1.04 0.92 0.74 0.69 0.67 0.60 0.52 0.46 0.44 0.49 0.55
1.00 1.17 1.24 1.25 1.26 1.46 1.53 1.46 1.44 1.43 1.47 1.57 1.59 1.52 1.46 1.53 1.63 1.67 1.66 1.72 1.77 1.65 1.47 1.40 1.43 1.43 1.38 1.33 1.25 1.16 1.02 0.88 0.86 0.99 0.87 0.76 0.79 0.76 0.69 0.62 0.56 0.56 0.58
1.07 1.21 1.31 1.36 1.28 1.34 1.55 1.51 1.39 1.36 1.35 1.44 1.55 1.64 1.62 1.57 1.61 1.67 1.69 1.64 1.65 1.69 1.66 1.48 1.40 1.42 1.40 1.35 1.30 1.23 1.17 1.10 0.95 0.92 0.88 0.72 0.71 0.69 0.72 0.78 0.77 0.75 0.75

GEFSSE_prec_meanprecacc_282.txt.gz
Total_Precipitation_Accumulation
0.07 0.16 0.43 0.62 0.65 0.66 0.67 0.64 0.62 0.58 0.55 0.58 0.65 0.73 0.74 0.70 0.67 0.63 0.61 0.61 0.64 0.69 0.77 0.87 0.87 0.85 0.81 0.79 0.72 0.65 0.62 0.63 0.64 0.62 0.65 0.70 0.72 0.68 0.61 0.55 0.42 0.48 0.72
0.06 0.17 0.41 0.55 0.61 0.65 0.66 0.63 0.59 0.55 0.54 0.58 0.64 0.68 0.71 0.70 0.68 0.69 0.67 0.66 0.66 0.72 0.82 0.88 0.87 0.84 0.82 0.76 0.67 0.57 0.53 0.48 0.48 0.46 0.43 0.42 0.60 0.68 0.61 0.61 0.56 0.75 0.87
0.05 0.15 0.33 0.50 0.59 0.64 0.65 0.61 0.58 0.57 0.59 0.64 0.67 0.67 0.66 0.67 0.70 0.75 0.77 0.73 0.70 0.68 0.72 0.78 0.82 0.80 0.76 0.71 0.64 0.55 0.50 0.42 0.36 0.35 0.34 0.27 0.48 0.76 0.74 0.73 0.69 0.89 0.89
0.06 0.14 0.25 0.46 0.57 0.63 0.65 0.65 0.67 0.69 0.70 0.75 0.76 0.72 0.68 0.69 0.72 0.76 0.74 0.72 0.70 0.68 0.68 0.70 0.69 0.70 0.62 0.54 0.56 0.55 0.52 0.44 0.33 0.28 0.18 0.18 0.43 0.79 0.86 0.79 0.75 0.80 0.84
0.09 0.15 0.30 0.50 0.61 0.64 0.70 0.71 0.71 0.74 0.79 0.83 0.82 0.80 0.80 0.80 0.78 0.79 0.77 0.73 0.67 0.65 0.65 0.67 0.63 0.61 0.57 0.54 0.53 0.54 0.53 0.45 0.33 0.23 0.13 0.16 0.36 0.74 0.75 0.71 0.66 0.70 0.75
0.14 0.20 0.35 0.53 0.67 0.71 0.75 0.75 0.76 0.79 0.82 0.86 0.83 0.81 0.83 0.90 0.88 0.80 0.75 0.75 0.68 0.64 0.66 0.65 0.62 0.62 0.57 0.52 0.54 0.58 0.58 0.52 0.34 0.20 0.15 0.16 0.24 0.54 0.68 0.73 0.72 0.69 0.66
0.22 0.26 0.40 0.59 0.73 0.80 0.83 0.87 0.90 0.90 0.91 0.89 0.87 0.82 0.82 0.85 0.87 0.83 0.74 0.71 0.67 0.65 0.67 0.67 0.63 0.63 0.61 0.55 0.55 0.61 0.68 0.56 0.35 0.32 0.26 0.23 0.29 0.49 0.63 0.74 0.76 0.72 0.72
0.28 0.34 0.51 0.74 0.84 0.88 0.92 0.90 0.97 1.04 1.05 1.01 0.97 0.91 0.89 0.86 0.83 0.84 0.76 0.73 0.72 0.68 0.64 0.59 0.58 0.57 0.57 0.56 0.55 0.57 0.63 0.51 0.38 0.40 0.44 0.40 0.43 0.58 0.67 0.73 0.76 0.76 0.79
0.29 0.41 0.58 0.81 0.93 1.04 1.06 1.01 1.00 1.02 1.10 1.09 1.04 1.01 0.96 0.90 0.83 0.81 0.78 0.73 0.72 0.73 0.70 0.60 0.57 0.55 0.50 0.49 0.49 0.50 0.52 0.49 0.49 0.57 0.50 0.55 0.53 0.70 0.79 0.75 0.75 0.81 0.83
0.37 0.49 0.65 0.83 0.95 1.06 1.15 1.10 1.05 1.05 1.08 1.14 1.08 1.03 1.01 0.98 0.95 0.86 0.76 0.78 0.75 0.72 0.75 0.70 0.63 0.64 0.58 0.49 0.43 0.43 0.45 0.45 0.45 0.50 0.58 0.51 0.55 0.81 0.96 0.89 0.80 0.81 0.86
0.52 0.64 0.77 0.89 1.01 1.14 1.20 1.15 1.18 1.17 1.20 1.24 1.21 1.18 1.13 1.09 1.08 0.99 0.83 0.79 0.81 0.77 0.74 0.76 0.71 0.70 0.69 0.56 0.44 0.41 0.41 0.35 0.39 0.50 0.54 0.49 0.61 0.88 1.13 1.05 0.95 0.87 0.88
0.55 0.70 0.84 0.94 1.07 1.25 1.32 1.32 1.37 1.29 1.25 1.28 1.18 1.16 1.18 1.15 1.17 1.08 1.01 0.89 0.85 0.85 0.83 0.81 0.80 0.77 0.72 0.61 0.53 0.49 0.38 0.30 0.30 0.32 0.34 0.40 0.55 0.81 1.13 1.19 1.12 1.06 1.02
0.57 0.71 0.86 1.00 1.16 1.33 1.36 1.35 1.35 1.35 1.26 1.30 1.29 1.18 1.15 1.20 1.15 1.17 1.14 1.15 1.07 0.98 0.94 0.93 0.94 0.87 0.79 0.70 0.64 0.56 0.43 0.38 0.35 0.29 0.27 0.33 0.43 0.65 0.90 1.07 1.23 1.24 1.26
0.66 0.77 0.91 1.07 1.26 1.42 1.44 1.46 1.39 1.30 1.24 1.20 1.30 1.32 1.25 1.18 1.09 1.00 1.00 0.99 1.00 0.97 0.96 0.94 0.92 0.88 0.86 0.79 0.70 0.63 0.57 0.52 0.44 0.38 0.32 0.36 0.39 0.54 0.78 0.95 1.13 1.28 1.39
0.73 0.83 0.93 1.08 1.22 1.43 1.64 1.62 1.59 1.44 1.29 1.25 1.29 1.33 1.30 1.23 1.13 1.01 0.92 0.95 0.92 0.87 0.87 0.87 0.80 0.76 0.74 0.72 0.71 0.67 0.66 0.58 0.51 0.49 0.44 0.45 0.43 0.47 0.67 0.85 1.01 1.23 1.43
0.78 0.91 1.01 1.13 1.22 1.37 1.58 1.66 1.65 1.59 1.52 1.47 1.35 1.29 1.31 1.31 1.23 1.12 1.00 0.95 0.93 0.88 0.87 0.82 0.78 0.72 0.67 0.61 0.57 0.56 0.62 0.61 0.58 0.54 0.48 0.47 0.46 0.46 0.58 0.76 0.95 1.15 1.39
0.84 0.97 1.10 1.22 1.34 1.39 1.46 1.66 1.69 1.68 1.62 1.60 1.46 1.41 1.43 1.39 1.36 1.30 1.19 1.05 0.93 0.87 0.86 0.88 0.84 0.79 0.73 0.64 0.57 0.54 0.53 0.52 0.52 0.52 0.49 0.47 0.49 0.49 0.54 0.69 0.86 1.04 1.27
0.90 1.00 1.19 1.31 1.40 1.43 1.41 1.61 1.70 1.74 1.78 1.74 1.69 1.60 1.57 1.55 1.49 1.43 1.38 1.28 1.15 1.02 0.93 0.88 0.84 0.80 0.76 0.69 0.62 0.56 0.55 0.51 0.48 0.46 0.45 0.45 0.48 0.49 0.51 0.60 0.73 0.94 1.14
0.86 1.00 1.22 1.35 1.41 1.47 1.47 1.56 1.73 1.75 1.77 1.84 1.89 1.81 1.74 1.73 1.65 1.55 1.47 1.46 1.46 1.32 1.14 0.98 0.89 0.82 0.76 0.69 0.66 0.63 0.60 0.56 0.55 0.54 0.49 0.44 0.43 0.46 0.50 0.53 0.61 0.76 0.94
0.89 1.05 1.24 1.45 1.53 1.56 1.61 1.61 1.74 1.87 1.74 1.67 1.77 1.82 1.81 1.83 1.77 1.70 1.58 1.50 1.57 1.54 1.42 1.23 1.01 0.93 0.84 0.76 0.74 0.73 0.69 0.65 0.60 0.57 0.55 0.51 0.48 0.46 0.50 0.53 0.54 0.60 0.74
0.97 1.08 1.24 1.42 1.55 1.58 1.60 1.59 1.54 1.66 1.71 1.57 1.48 1.64 1.80 1.89 1.94 1.91 1.77 1.67 1.64 1.60 1.46 1.38 1.26 1.14 1.05 0.94 0.92 0.91 0.82 0.73 0.71 0.62 0.55 0.51 0.49 0.46 0.46 0.53 0.55 0.56 0.64
0.97 1.04 1.20 1.41 1.50 1.48 1.44 1.50 1.51 1.54 1.60 1.62 1.50 1.51 1.64 1.83 1.99 2.14 2.05 1.88 1.76 1.70 1.64 1.51 1.40 1.34 1.27 1.13 1.03 1.05 1.06 0.98 0.83 0.69 0.61 0.53 0.50 0.50 0.49 0.49 0.54 0.57 0.60
0.98 1.03 1.06 1.27 1.52 1.53 1.50 1.61 1.66 1.74 1.77 1.76 1.63 1.49 1.52 1.61 1.71 1.83 1.96 1.85 1.84 1.78 1.73 1.63 1.49 1.42 1.40 1.29 1.12 1.19 1.27 1.12 0.86 0.74 0.68 0.61 0.54 0.52 0.51 0.49 0.51 0.55 0.58
0.97 1.15 1.15 1.20 1.41 1.60 1.59 1.57 1.56 1.62 1.64 1.64 1.56 1.45 1.45 1.55 1.63 1.66 1.76 1.82 1.72 1.65 1.59 1.57 1.53 1.42 1.43 1.42 1.29 1.14 1.07 1.03 1.06 0.93 0.76 0.72 0.70 0.64 0.57 0.51 0.49 0.54 0.58
1.03 1.21 1.30 1.32 1.33 1.50 1.57 1.50 1.47 1.47 1.51 1.61 1.62 1.55 1.48 1.55 1.65 1.70 1.70 1.77 1.81 1.70 1.53 1.46 1.50 1.50 1.46 1.40 1.31 1.19 1.05 0.90 0.88 1.01 0.88 0.78 0.82 0.79 0.74 0.66 0.60 0.61 0.62
1.10 1.26 1.36 1.42 1.33 1.38 1.59 1.56 1.43 1.39 1.39 1.48 1.58 1.67 1.64 1.58 1.62 1.69 1.72 1.67 1.68 1.73 1.69 1.52 1.44 1.48 1.46 1.41 1.34 1.26 1.20 1.12 0.97 0.95 0.91 0.75 0.73 0.73 0.77 0.82 0.81 0.79 0.78